<?xml version="1.0" encoding="UTF-8" standalone="no" ?>
<gpx xmlns="http://www.topografix.com/GPX/1/1" xmlns:xsi="http://www.w3.org/2001/XMLSchema-instance" xsi:schemaLocation="http://www.topografix.com/GPX/1/1 http://www.topografix.com/GPX/1/1/gpx.xsd" version="1.1" creator="VisuGPX - https://www.visugpx.com">
  <metadata>
    <name>creuzier malforet 70 kms </name>
    <desc><![CDATA[rando depart de creuzier le vieux bel apercu de la montagne bourbonnaise]]></desc>
  </metadata>
  <wpt lat="46.07266" lon="3.53981">
    <ele>431.55</ele>
    <name><![CDATA[WPT_0000003]]></name>
    <desc><![CDATA[]]></desc>
    <type><![CDATA[Photo]]></type>
  </wpt>
  <wpt lat="46.00259" lon="3.57972">
    <ele>675.55</ele>
    <name><![CDATA[WPT_0000004]]></name>
    <desc><![CDATA[]]></desc>
    <type><![CDATA[Photo]]></type>
  </wpt>
  <trk>
    <name><![CDATA[2014-10-18 10:41]]></name>
    <desc><![CDATA[<h1>OruxMaps</h1><br /><hr align="center" width="480" style="height: 2px; width: 517px"/><h2>Nom: 2014-10-18 10:41</h2><br /><p>Temps de départ: 10/18/2014 10:42</p><p>Temps d'arrivée: 10/18/2014 16:05</p><p>Distance: 45,5 km (05:23)</p><p>Temps déplacement: 04:12</p><p>Vitesse moyenne: 8,4 km/h</p><p>Vitesse moyenne: 10,8 km/h</p><p>Vitess Max.: 50,7 km/h</p><p>Altitude minimale: 264 m</p><p>Altitude maximale: 676 m</p><p>Vitesse d'élévation: 581,9 m/h</p><p>Vitesse de descente: -1039,3 m/h</p><p>Gain Altitude: 1527 m</p><p>Perte Altitude: -1248 m</p><p>Temps d'élévation: 02:37</p><p>Temps de descente: 01:12</p><hr align="center" width="480" style="height: 2px; width: 517px"/>]]></desc>
    <trkseg>
      <trkpt lat="46.17042" lon="3.43151">
        <ele>305.55</ele>
        <time>2014-10-18T08:42:21Z</time>
      </trkpt>
      <trkpt lat="46.17038" lon="3.43125">
        <ele>304.59</ele>
        <time>2014-10-18T08:42:35Z</time>
      </trkpt>
      <trkpt lat="46.17053" lon="3.4311">
        <ele>312.55</ele>
        <time>2014-10-18T08:43:11Z</time>
      </trkpt>
      <trkpt lat="46.17068" lon="3.43127">
        <ele>312.55</ele>
        <time>2014-10-18T08:43:19Z</time>
      </trkpt>
      <trkpt lat="46.17081" lon="3.43147">
        <ele>312.55</ele>
        <time>2014-10-18T08:43:27Z</time>
      </trkpt>
      <trkpt lat="46.17098" lon="3.43162">
        <ele>312.55</ele>
        <time>2014-10-18T08:43:36Z</time>
      </trkpt>
      <trkpt lat="46.17113" lon="3.43177">
        <ele>312.55</ele>
        <time>2014-10-18T08:43:45Z</time>
      </trkpt>
      <trkpt lat="46.1713" lon="3.43188">
        <ele>312.55</ele>
        <time>2014-10-18T08:43:53Z</time>
      </trkpt>
      <trkpt lat="46.17148" lon="3.432">
        <ele>313.05</ele>
        <time>2014-10-18T08:44:00Z</time>
      </trkpt>
      <trkpt lat="46.17165" lon="3.43211">
        <ele>313.55</ele>
        <time>2014-10-18T08:44:07Z</time>
      </trkpt>
      <trkpt lat="46.17182" lon="3.43224">
        <ele>314.54</ele>
        <time>2014-10-18T08:44:15Z</time>
      </trkpt>
      <trkpt lat="46.17199" lon="3.43241">
        <ele>315.49</ele>
        <time>2014-10-18T08:44:23Z</time>
      </trkpt>
      <trkpt lat="46.17216" lon="3.43256">
        <ele>316.43</ele>
        <time>2014-10-18T08:44:31Z</time>
      </trkpt>
      <trkpt lat="46.17232" lon="3.43273">
        <ele>317.43</ele>
        <time>2014-10-18T08:44:40Z</time>
      </trkpt>
      <trkpt lat="46.17248" lon="3.43286">
        <ele>317.55</ele>
        <time>2014-10-18T08:44:47Z</time>
      </trkpt>
      <trkpt lat="46.17264" lon="3.43301">
        <ele>318.52</ele>
        <time>2014-10-18T08:44:53Z</time>
      </trkpt>
      <trkpt lat="46.17281" lon="3.43318">
        <ele>319.05</ele>
        <time>2014-10-18T08:44:59Z</time>
      </trkpt>
      <trkpt lat="46.17298" lon="3.43336">
        <ele>319.55</ele>
        <time>2014-10-18T08:45:05Z</time>
      </trkpt>
      <trkpt lat="46.17314" lon="3.43351">
        <ele>320.52</ele>
        <time>2014-10-18T08:45:11Z</time>
      </trkpt>
      <trkpt lat="46.17331" lon="3.43364">
        <ele>321.52</ele>
        <time>2014-10-18T08:45:17Z</time>
      </trkpt>
      <trkpt lat="46.17348" lon="3.43376">
        <ele>322.49</ele>
        <time>2014-10-18T08:45:24Z</time>
      </trkpt>
      <trkpt lat="46.17363" lon="3.43391">
        <ele>323.43</ele>
        <time>2014-10-18T08:45:30Z</time>
      </trkpt>
      <trkpt lat="46.17377" lon="3.43409">
        <ele>324.05</ele>
        <time>2014-10-18T08:45:35Z</time>
      </trkpt>
      <trkpt lat="46.17393" lon="3.43426">
        <ele>324.55</ele>
        <time>2014-10-18T08:45:41Z</time>
      </trkpt>
      <trkpt lat="46.1741" lon="3.43436">
        <ele>325.52</ele>
        <time>2014-10-18T08:45:47Z</time>
      </trkpt>
      <trkpt lat="46.17427" lon="3.43447">
        <ele>326.54</ele>
        <time>2014-10-18T08:45:55Z</time>
      </trkpt>
      <trkpt lat="46.1744" lon="3.43471">
        <ele>327.49</ele>
        <time>2014-10-18T08:46:01Z</time>
      </trkpt>
      <trkpt lat="46.17453" lon="3.43494">
        <ele>327.55</ele>
        <time>2014-10-18T08:46:07Z</time>
      </trkpt>
      <trkpt lat="46.1746" lon="3.43522">
        <ele>329.79</ele>
        <time>2014-10-18T08:46:13Z</time>
      </trkpt>
      <trkpt lat="46.17459" lon="3.4355">
        <ele>332.08</ele>
        <time>2014-10-18T08:46:16Z</time>
      </trkpt>
      <trkpt lat="46.17456" lon="3.43578">
        <ele>332.49</ele>
        <time>2014-10-18T08:46:19Z</time>
      </trkpt>
      <trkpt lat="46.17459" lon="3.4361">
        <ele>333.3</ele>
        <time>2014-10-18T08:46:22Z</time>
      </trkpt>
      <trkpt lat="46.17464" lon="3.43645">
        <ele>333.52</ele>
        <time>2014-10-18T08:46:25Z</time>
      </trkpt>
      <trkpt lat="46.17463" lon="3.43679">
        <ele>333.55</ele>
        <time>2014-10-18T08:46:28Z</time>
      </trkpt>
      <trkpt lat="46.17453" lon="3.43703">
        <ele>333.55</ele>
        <time>2014-10-18T08:46:30Z</time>
      </trkpt>
      <trkpt lat="46.17441" lon="3.43726">
        <ele>332.8</ele>
        <time>2014-10-18T08:46:32Z</time>
      </trkpt>
      <trkpt lat="46.1743" lon="3.43748">
        <ele>331.37</ele>
        <time>2014-10-18T08:46:34Z</time>
      </trkpt>
      <trkpt lat="46.17415" lon="3.43767">
        <ele>328.53</ele>
        <time>2014-10-18T08:46:37Z</time>
      </trkpt>
      <trkpt lat="46.17396" lon="3.43776">
        <ele>326.3</ele>
        <time>2014-10-18T08:46:40Z</time>
      </trkpt>
      <trkpt lat="46.17378" lon="3.43784">
        <ele>324.72</ele>
        <time>2014-10-18T08:46:44Z</time>
      </trkpt>
      <trkpt lat="46.17362" lon="3.43801">
        <ele>323.81</ele>
        <time>2014-10-18T08:46:49Z</time>
      </trkpt>
      <trkpt lat="46.1735" lon="3.43823">
        <ele>323.07</ele>
        <time>2014-10-18T08:46:53Z</time>
      </trkpt>
      <trkpt lat="46.17339" lon="3.43846">
        <ele>321.82</ele>
        <time>2014-10-18T08:46:58Z</time>
      </trkpt>
      <trkpt lat="46.17329" lon="3.4387">
        <ele>320.62</ele>
        <time>2014-10-18T08:47:05Z</time>
      </trkpt>
      <trkpt lat="46.17321" lon="3.43896">
        <ele>319.57</ele>
        <time>2014-10-18T08:47:15Z</time>
      </trkpt>
      <trkpt lat="46.17313" lon="3.43921">
        <ele>318.58</ele>
        <time>2014-10-18T08:47:23Z</time>
      </trkpt>
      <trkpt lat="46.17305" lon="3.43947">
        <ele>317.57</ele>
        <time>2014-10-18T08:47:33Z</time>
      </trkpt>
      <trkpt lat="46.17291" lon="3.43964">
        <ele>317.55</ele>
        <time>2014-10-18T08:47:46Z</time>
      </trkpt>
      <trkpt lat="46.17294" lon="3.4393">
        <ele>315.05</ele>
        <time>2014-10-18T08:48:16Z</time>
      </trkpt>
      <trkpt lat="46.17287" lon="3.43906">
        <ele>316.05</ele>
        <time>2014-10-18T08:48:33Z</time>
      </trkpt>
      <trkpt lat="46.17259" lon="3.43909">
        <ele>317.55</ele>
        <time>2014-10-18T08:48:50Z</time>
      </trkpt>
      <trkpt lat="46.17236" lon="3.43919">
        <ele>318.05</ele>
        <time>2014-10-18T08:48:59Z</time>
      </trkpt>
      <trkpt lat="46.17217" lon="3.43926">
        <ele>318.55</ele>
        <time>2014-10-18T08:49:07Z</time>
      </trkpt>
      <trkpt lat="46.17196" lon="3.43934">
        <ele>319.54</ele>
        <time>2014-10-18T08:49:17Z</time>
      </trkpt>
      <trkpt lat="46.17176" lon="3.43943">
        <ele>320.54</ele>
        <time>2014-10-18T08:49:28Z</time>
      </trkpt>
      <trkpt lat="46.17158" lon="3.43951">
        <ele>320.55</ele>
        <time>2014-10-18T08:49:38Z</time>
      </trkpt>
      <trkpt lat="46.17141" lon="3.43964">
        <ele>321.05</ele>
        <time>2014-10-18T08:49:48Z</time>
      </trkpt>
      <trkpt lat="46.17121" lon="3.43971">
        <ele>321.55</ele>
        <time>2014-10-18T08:50:02Z</time>
      </trkpt>
      <trkpt lat="46.17103" lon="3.43973">
        <ele>323.42</ele>
        <time>2014-10-18T08:50:11Z</time>
      </trkpt>
      <trkpt lat="46.17085" lon="3.43982">
        <ele>325.49</ele>
        <time>2014-10-18T08:50:21Z</time>
      </trkpt>
      <trkpt lat="46.17068" lon="3.4399">
        <ele>327.52</ele>
        <time>2014-10-18T08:50:31Z</time>
      </trkpt>
      <trkpt lat="46.17051" lon="3.44001">
        <ele>329.52</ele>
        <time>2014-10-18T08:50:41Z</time>
      </trkpt>
      <trkpt lat="46.17032" lon="3.44009">
        <ele>332.29</ele>
        <time>2014-10-18T08:50:52Z</time>
      </trkpt>
      <trkpt lat="46.17014" lon="3.44014">
        <ele>334.29</ele>
        <time>2014-10-18T08:51:01Z</time>
      </trkpt>
      <trkpt lat="46.16995" lon="3.44018">
        <ele>335.52</ele>
        <time>2014-10-18T08:51:09Z</time>
      </trkpt>
      <trkpt lat="46.16976" lon="3.44024">
        <ele>337.3</ele>
        <time>2014-10-18T08:51:17Z</time>
      </trkpt>
      <trkpt lat="46.16957" lon="3.44024">
        <ele>339.04</ele>
        <time>2014-10-18T08:51:26Z</time>
      </trkpt>
      <trkpt lat="46.16938" lon="3.44027">
        <ele>340.52</ele>
        <time>2014-10-18T08:51:35Z</time>
      </trkpt>
      <trkpt lat="46.1692" lon="3.44033">
        <ele>342.3</ele>
        <time>2014-10-18T08:51:44Z</time>
      </trkpt>
      <trkpt lat="46.16902" lon="3.44042">
        <ele>343.49</ele>
        <time>2014-10-18T08:51:52Z</time>
      </trkpt>
      <trkpt lat="46.16883" lon="3.44046">
        <ele>344.52</ele>
        <time>2014-10-18T08:52:00Z</time>
      </trkpt>
      <trkpt lat="46.16865" lon="3.44054">
        <ele>345.52</ele>
        <time>2014-10-18T08:52:08Z</time>
      </trkpt>
      <trkpt lat="46.16851" lon="3.44074">
        <ele>345.55</ele>
        <time>2014-10-18T08:52:14Z</time>
      </trkpt>
      <trkpt lat="46.16838" lon="3.44095">
        <ele>346.55</ele>
        <time>2014-10-18T08:52:21Z</time>
      </trkpt>
      <trkpt lat="46.16828" lon="3.44121">
        <ele>347.49</ele>
        <time>2014-10-18T08:52:28Z</time>
      </trkpt>
      <trkpt lat="46.16818" lon="3.44145">
        <ele>348.05</ele>
        <time>2014-10-18T08:52:35Z</time>
      </trkpt>
      <trkpt lat="46.16809" lon="3.4417">
        <ele>348.55</ele>
        <time>2014-10-18T08:52:42Z</time>
      </trkpt>
      <trkpt lat="46.16803" lon="3.44196">
        <ele>349.54</ele>
        <time>2014-10-18T08:52:49Z</time>
      </trkpt>
      <trkpt lat="46.16796" lon="3.44224">
        <ele>350.49</ele>
        <time>2014-10-18T08:52:56Z</time>
      </trkpt>
      <trkpt lat="46.16793" lon="3.4425">
        <ele>351.3</ele>
        <time>2014-10-18T08:53:02Z</time>
      </trkpt>
      <trkpt lat="46.1678" lon="3.44269">
        <ele>352.3</ele>
        <time>2014-10-18T08:53:08Z</time>
      </trkpt>
      <trkpt lat="46.16761" lon="3.44275">
        <ele>353.49</ele>
        <time>2014-10-18T08:53:15Z</time>
      </trkpt>
      <trkpt lat="46.16742" lon="3.44282">
        <ele>355.42</ele>
        <time>2014-10-18T08:53:23Z</time>
      </trkpt>
      <trkpt lat="46.16722" lon="3.4429">
        <ele>357.42</ele>
        <time>2014-10-18T08:53:32Z</time>
      </trkpt>
      <trkpt lat="46.16705" lon="3.44299">
        <ele>359.02</ele>
        <time>2014-10-18T08:53:39Z</time>
      </trkpt>
      <trkpt lat="46.16687" lon="3.4431">
        <ele>361.41</ele>
        <time>2014-10-18T08:53:47Z</time>
      </trkpt>
      <trkpt lat="46.16672" lon="3.44327">
        <ele>364.02</ele>
        <time>2014-10-18T08:53:56Z</time>
      </trkpt>
      <trkpt lat="46.16654" lon="3.4434">
        <ele>366.49</ele>
        <time>2014-10-18T08:54:06Z</time>
      </trkpt>
      <trkpt lat="46.16635" lon="3.44348">
        <ele>368.49</ele>
        <time>2014-10-18T08:54:14Z</time>
      </trkpt>
      <trkpt lat="46.16618" lon="3.44363">
        <ele>370.04</ele>
        <time>2014-10-18T08:54:22Z</time>
      </trkpt>
      <trkpt lat="46.16601" lon="3.44374">
        <ele>371.3</ele>
        <time>2014-10-18T08:54:29Z</time>
      </trkpt>
      <trkpt lat="46.16583" lon="3.44385">
        <ele>372.43</ele>
        <time>2014-10-18T08:54:36Z</time>
      </trkpt>
      <trkpt lat="46.16563" lon="3.44393">
        <ele>372.55</ele>
        <time>2014-10-18T08:54:44Z</time>
      </trkpt>
      <trkpt lat="46.16544" lon="3.44402">
        <ele>372.55</ele>
        <time>2014-10-18T08:54:51Z</time>
      </trkpt>
      <trkpt lat="46.16526" lon="3.44413">
        <ele>372.55</ele>
        <time>2014-10-18T08:54:58Z</time>
      </trkpt>
      <trkpt lat="46.16509" lon="3.44426">
        <ele>373.3</ele>
        <time>2014-10-18T08:55:06Z</time>
      </trkpt>
      <trkpt lat="46.16494" lon="3.44441">
        <ele>373.55</ele>
        <time>2014-10-18T08:55:13Z</time>
      </trkpt>
      <trkpt lat="46.16482" lon="3.44462">
        <ele>376.29</ele>
        <time>2014-10-18T08:55:47Z</time>
      </trkpt>
      <trkpt lat="46.16464" lon="3.44477">
        <ele>377.49</ele>
        <time>2014-10-18T08:55:55Z</time>
      </trkpt>
      <trkpt lat="46.16446" lon="3.44492">
        <ele>378.52</ele>
        <time>2014-10-18T08:56:02Z</time>
      </trkpt>
      <trkpt lat="46.16431" lon="3.44509">
        <ele>379.52</ele>
        <time>2014-10-18T08:56:08Z</time>
      </trkpt>
      <trkpt lat="46.16415" lon="3.44529">
        <ele>380.52</ele>
        <time>2014-10-18T08:56:15Z</time>
      </trkpt>
      <trkpt lat="46.16399" lon="3.44546">
        <ele>381.52</ele>
        <time>2014-10-18T08:56:22Z</time>
      </trkpt>
      <trkpt lat="46.16382" lon="3.44561">
        <ele>382.43</ele>
        <time>2014-10-18T08:56:29Z</time>
      </trkpt>
      <trkpt lat="46.16364" lon="3.44567">
        <ele>382.55</ele>
        <time>2014-10-18T08:56:34Z</time>
      </trkpt>
      <trkpt lat="46.16343" lon="3.44572">
        <ele>382.55</ele>
        <time>2014-10-18T08:56:40Z</time>
      </trkpt>
      <trkpt lat="46.16325" lon="3.44576">
        <ele>383.3</ele>
        <time>2014-10-18T08:56:46Z</time>
      </trkpt>
      <trkpt lat="46.16305" lon="3.44582">
        <ele>383.55</ele>
        <time>2014-10-18T08:56:53Z</time>
      </trkpt>
      <trkpt lat="46.16284" lon="3.44589">
        <ele>383.55</ele>
        <time>2014-10-18T08:57:00Z</time>
      </trkpt>
      <trkpt lat="46.16264" lon="3.44595">
        <ele>384.54</ele>
        <time>2014-10-18T08:57:07Z</time>
      </trkpt>
      <trkpt lat="46.16246" lon="3.44602">
        <ele>385.52</ele>
        <time>2014-10-18T08:57:13Z</time>
      </trkpt>
      <trkpt lat="46.16227" lon="3.4461">
        <ele>387.29</ele>
        <time>2014-10-18T08:57:20Z</time>
      </trkpt>
      <trkpt lat="46.16207" lon="3.44617">
        <ele>388.04</ele>
        <time>2014-10-18T08:57:25Z</time>
      </trkpt>
      <trkpt lat="46.16189" lon="3.44617">
        <ele>391.08</ele>
        <time>2014-10-18T08:57:29Z</time>
      </trkpt>
      <trkpt lat="46.16175" lon="3.44636">
        <ele>392.48</ele>
        <time>2014-10-18T08:57:34Z</time>
      </trkpt>
      <trkpt lat="46.16162" lon="3.44657">
        <ele>393.49</ele>
        <time>2014-10-18T08:57:39Z</time>
      </trkpt>
      <trkpt lat="46.16147" lon="3.44677">
        <ele>394.05</ele>
        <time>2014-10-18T08:57:44Z</time>
      </trkpt>
      <trkpt lat="46.16132" lon="3.44696">
        <ele>394.54</ele>
        <time>2014-10-18T08:57:49Z</time>
      </trkpt>
      <trkpt lat="46.16111" lon="3.447">
        <ele>394.55</ele>
        <time>2014-10-18T08:57:55Z</time>
      </trkpt>
      <trkpt lat="46.16092" lon="3.44698">
        <ele>394.55</ele>
        <time>2014-10-18T08:58:00Z</time>
      </trkpt>
      <trkpt lat="46.16072" lon="3.4469">
        <ele>394.05</ele>
        <time>2014-10-18T08:58:06Z</time>
      </trkpt>
      <trkpt lat="46.16052" lon="3.44685">
        <ele>393.57</ele>
        <time>2014-10-18T08:58:11Z</time>
      </trkpt>
      <trkpt lat="46.1603" lon="3.44685">
        <ele>393.05</ele>
        <time>2014-10-18T08:58:16Z</time>
      </trkpt>
      <trkpt lat="46.16012" lon="3.44687">
        <ele>392.58</ele>
        <time>2014-10-18T08:58:20Z</time>
      </trkpt>
      <trkpt lat="46.15994" lon="3.44692">
        <ele>393.43</ele>
        <time>2014-10-18T08:58:25Z</time>
      </trkpt>
      <trkpt lat="46.15974" lon="3.44696">
        <ele>393.55</ele>
        <time>2014-10-18T08:58:30Z</time>
      </trkpt>
      <trkpt lat="46.15954" lon="3.447">
        <ele>394.43</ele>
        <time>2014-10-18T08:58:35Z</time>
      </trkpt>
      <trkpt lat="46.15933" lon="3.44702">
        <ele>394.55</ele>
        <time>2014-10-18T08:58:40Z</time>
      </trkpt>
      <trkpt lat="46.15914" lon="3.44705">
        <ele>394.55</ele>
        <time>2014-10-18T08:58:44Z</time>
      </trkpt>
      <trkpt lat="46.15893" lon="3.44711">
        <ele>394.55</ele>
        <time>2014-10-18T08:58:49Z</time>
      </trkpt>
      <trkpt lat="46.15873" lon="3.44722">
        <ele>393.8</ele>
        <time>2014-10-18T08:58:54Z</time>
      </trkpt>
      <trkpt lat="46.15852" lon="3.44737">
        <ele>393.06</ele>
        <time>2014-10-18T08:58:59Z</time>
      </trkpt>
      <trkpt lat="46.15834" lon="3.44748">
        <ele>391.83</ele>
        <time>2014-10-18T08:59:03Z</time>
      </trkpt>
      <trkpt lat="46.15817" lon="3.4476">
        <ele>392.07</ele>
        <time>2014-10-18T08:59:07Z</time>
      </trkpt>
      <trkpt lat="46.158" lon="3.44771">
        <ele>392.52</ele>
        <time>2014-10-18T08:59:11Z</time>
      </trkpt>
      <trkpt lat="46.15782" lon="3.44784">
        <ele>392.55</ele>
        <time>2014-10-18T08:59:15Z</time>
      </trkpt>
      <trkpt lat="46.15765" lon="3.44795">
        <ele>391.62</ele>
        <time>2014-10-18T08:59:19Z</time>
      </trkpt>
      <trkpt lat="46.15747" lon="3.44803">
        <ele>392.43</ele>
        <time>2014-10-18T08:59:23Z</time>
      </trkpt>
      <trkpt lat="46.15729" lon="3.4481">
        <ele>392.79</ele>
        <time>2014-10-18T08:59:26Z</time>
      </trkpt>
      <trkpt lat="46.1571" lon="3.44814">
        <ele>393.08</ele>
        <time>2014-10-18T08:59:29Z</time>
      </trkpt>
      <trkpt lat="46.15692" lon="3.4482">
        <ele>393.49</ele>
        <time>2014-10-18T08:59:32Z</time>
      </trkpt>
      <trkpt lat="46.15671" lon="3.44827">
        <ele>392.67</ele>
        <time>2014-10-18T08:59:35Z</time>
      </trkpt>
      <trkpt lat="46.15649" lon="3.44842">
        <ele>392.07</ele>
        <time>2014-10-18T08:59:38Z</time>
      </trkpt>
      <trkpt lat="46.15634" lon="3.44863">
        <ele>390.87</ele>
        <time>2014-10-18T08:59:41Z</time>
      </trkpt>
      <trkpt lat="46.15624" lon="3.44889">
        <ele>390.59</ele>
        <time>2014-10-18T08:59:44Z</time>
      </trkpt>
      <trkpt lat="46.15612" lon="3.44911">
        <ele>390.56</ele>
        <time>2014-10-18T08:59:46Z</time>
      </trkpt>
      <trkpt lat="46.15592" lon="3.4493">
        <ele>390.56</ele>
        <time>2014-10-18T08:59:48Z</time>
      </trkpt>
      <trkpt lat="46.15571" lon="3.44943">
        <ele>391.8</ele>
        <time>2014-10-18T08:59:50Z</time>
      </trkpt>
      <trkpt lat="46.15552" lon="3.44954">
        <ele>393.12</ele>
        <time>2014-10-18T08:59:52Z</time>
      </trkpt>
      <trkpt lat="46.15548" lon="3.44979">
        <ele>390.56</ele>
        <time>2014-10-18T09:00:00Z</time>
      </trkpt>
      <trkpt lat="46.1556" lon="3.45001">
        <ele>385.62</ele>
        <time>2014-10-18T09:00:04Z</time>
      </trkpt>
      <trkpt lat="46.1557" lon="3.45024">
        <ele>382.43</ele>
        <time>2014-10-18T09:00:08Z</time>
      </trkpt>
      <trkpt lat="46.15577" lon="3.45054">
        <ele>379.72</ele>
        <time>2014-10-18T09:00:14Z</time>
      </trkpt>
      <trkpt lat="46.15583" lon="3.45084">
        <ele>379.56</ele>
        <time>2014-10-18T09:00:20Z</time>
      </trkpt>
      <trkpt lat="46.15585" lon="3.45112">
        <ele>379.55</ele>
        <time>2014-10-18T09:00:26Z</time>
      </trkpt>
      <trkpt lat="46.15587" lon="3.4514">
        <ele>379.05</ele>
        <time>2014-10-18T09:00:32Z</time>
      </trkpt>
      <trkpt lat="46.15589" lon="3.45168">
        <ele>378.56</ele>
        <time>2014-10-18T09:00:38Z</time>
      </trkpt>
      <trkpt lat="46.15591" lon="3.45196">
        <ele>378.05</ele>
        <time>2014-10-18T09:00:44Z</time>
      </trkpt>
      <trkpt lat="46.15594" lon="3.45224">
        <ele>375.96</ele>
        <time>2014-10-18T09:00:48Z</time>
      </trkpt>
      <trkpt lat="46.15597" lon="3.45258">
        <ele>374.2</ele>
        <time>2014-10-18T09:00:52Z</time>
      </trkpt>
      <trkpt lat="46.15592" lon="3.4529">
        <ele>373.09</ele>
        <time>2014-10-18T09:00:56Z</time>
      </trkpt>
      <trkpt lat="46.1558" lon="3.45314">
        <ele>373.09</ele>
        <time>2014-10-18T09:01:00Z</time>
      </trkpt>
      <trkpt lat="46.1557" lon="3.4534">
        <ele>373.52</ele>
        <time>2014-10-18T09:01:04Z</time>
      </trkpt>
      <trkpt lat="46.15573" lon="3.45376">
        <ele>372.11</ele>
        <time>2014-10-18T09:01:08Z</time>
      </trkpt>
      <trkpt lat="46.15579" lon="3.45404">
        <ele>370.87</ele>
        <time>2014-10-18T09:01:11Z</time>
      </trkpt>
      <trkpt lat="46.15583" lon="3.4543">
        <ele>370.59</ele>
        <time>2014-10-18T09:01:14Z</time>
      </trkpt>
      <trkpt lat="46.15588" lon="3.45462">
        <ele>368.62</ele>
        <time>2014-10-18T09:01:18Z</time>
      </trkpt>
      <trkpt lat="46.15603" lon="3.45484">
        <ele>366.31</ele>
        <time>2014-10-18T09:01:21Z</time>
      </trkpt>
      <trkpt lat="46.15618" lon="3.45509">
        <ele>364.02</ele>
        <time>2014-10-18T09:01:24Z</time>
      </trkpt>
      <trkpt lat="46.1562" lon="3.45544">
        <ele>361.49</ele>
        <time>2014-10-18T09:01:27Z</time>
      </trkpt>
      <trkpt lat="46.15615" lon="3.45574">
        <ele>359.29</ele>
        <time>2014-10-18T09:01:30Z</time>
      </trkpt>
      <trkpt lat="46.15603" lon="3.45604">
        <ele>355.77</ele>
        <time>2014-10-18T09:01:33Z</time>
      </trkpt>
      <trkpt lat="46.15595" lon="3.45627">
        <ele>352.58</ele>
        <time>2014-10-18T09:01:36Z</time>
      </trkpt>
      <trkpt lat="46.15597" lon="3.45662">
        <ele>347.12</ele>
        <time>2014-10-18T09:01:40Z</time>
      </trkpt>
      <trkpt lat="46.15606" lon="3.45687">
        <ele>343.62</ele>
        <time>2014-10-18T09:01:43Z</time>
      </trkpt>
      <trkpt lat="46.15619" lon="3.45713">
        <ele>341.31</ele>
        <time>2014-10-18T09:01:46Z</time>
      </trkpt>
      <trkpt lat="46.15636" lon="3.45737">
        <ele>339.4</ele>
        <time>2014-10-18T09:01:49Z</time>
      </trkpt>
      <trkpt lat="46.15647" lon="3.4576">
        <ele>336.98</ele>
        <time>2014-10-18T09:01:53Z</time>
      </trkpt>
      <trkpt lat="46.15639" lon="3.45788">
        <ele>335.7</ele>
        <time>2014-10-18T09:01:57Z</time>
      </trkpt>
      <trkpt lat="46.15632" lon="3.45814">
        <ele>334.82</ele>
        <time>2014-10-18T09:02:00Z</time>
      </trkpt>
      <trkpt lat="46.15626" lon="3.4584">
        <ele>333.84</ele>
        <time>2014-10-18T09:02:03Z</time>
      </trkpt>
      <trkpt lat="46.15613" lon="3.45863">
        <ele>331.45</ele>
        <time>2014-10-18T09:02:07Z</time>
      </trkpt>
      <trkpt lat="46.15591" lon="3.45868">
        <ele>327.55</ele>
        <time>2014-10-18T09:02:11Z</time>
      </trkpt>
      <trkpt lat="46.15571" lon="3.45876">
        <ele>325.62</ele>
        <time>2014-10-18T09:02:16Z</time>
      </trkpt>
      <trkpt lat="46.15569" lon="3.45904">
        <ele>324.55</ele>
        <time>2014-10-18T09:02:21Z</time>
      </trkpt>
      <trkpt lat="46.15573" lon="3.45932">
        <ele>319.93</ele>
        <time>2014-10-18T09:02:24Z</time>
      </trkpt>
      <trkpt lat="46.15577" lon="3.45968">
        <ele>317.35</ele>
        <time>2014-10-18T09:02:27Z</time>
      </trkpt>
      <trkpt lat="46.15577" lon="3.45996">
        <ele>316.75</ele>
        <time>2014-10-18T09:02:29Z</time>
      </trkpt>
      <trkpt lat="46.15577" lon="3.46031">
        <ele>316.58</ele>
        <time>2014-10-18T09:02:32Z</time>
      </trkpt>
      <trkpt lat="46.15576" lon="3.46065">
        <ele>317.43</ele>
        <time>2014-10-18T09:02:36Z</time>
      </trkpt>
      <trkpt lat="46.15568" lon="3.46093">
        <ele>318.54</ele>
        <time>2014-10-18T09:02:42Z</time>
      </trkpt>
      <trkpt lat="46.15551" lon="3.4611">
        <ele>321.43</ele>
        <time>2014-10-18T09:02:47Z</time>
      </trkpt>
      <trkpt lat="46.15537" lon="3.46138">
        <ele>325.3</ele>
        <time>2014-10-18T09:02:52Z</time>
      </trkpt>
      <trkpt lat="46.15531" lon="3.46166">
        <ele>325.79</ele>
        <time>2014-10-18T09:02:56Z</time>
      </trkpt>
      <trkpt lat="46.15526" lon="3.46192">
        <ele>325.08</ele>
        <time>2014-10-18T09:02:59Z</time>
      </trkpt>
      <trkpt lat="46.15518" lon="3.46222">
        <ele>320.09</ele>
        <time>2014-10-18T09:03:03Z</time>
      </trkpt>
      <trkpt lat="46.15511" lon="3.46245">
        <ele>317.37</ele>
        <time>2014-10-18T09:03:06Z</time>
      </trkpt>
      <trkpt lat="46.15501" lon="3.46271">
        <ele>314.79</ele>
        <time>2014-10-18T09:03:10Z</time>
      </trkpt>
      <trkpt lat="46.15492" lon="3.46299">
        <ele>313.63</ele>
        <time>2014-10-18T09:03:14Z</time>
      </trkpt>
      <trkpt lat="46.15481" lon="3.46325">
        <ele>312.12</ele>
        <time>2014-10-18T09:03:18Z</time>
      </trkpt>
      <trkpt lat="46.15473" lon="3.4635">
        <ele>310.84</ele>
        <time>2014-10-18T09:03:22Z</time>
      </trkpt>
      <trkpt lat="46.15466" lon="3.46374">
        <ele>310.57</ele>
        <time>2014-10-18T09:03:26Z</time>
      </trkpt>
      <trkpt lat="46.15458" lon="3.464">
        <ele>309.68</ele>
        <time>2014-10-18T09:03:30Z</time>
      </trkpt>
      <trkpt lat="46.15451" lon="3.46426">
        <ele>308.81</ele>
        <time>2014-10-18T09:03:34Z</time>
      </trkpt>
      <trkpt lat="46.15444" lon="3.46456">
        <ele>308.57</ele>
        <time>2014-10-18T09:03:38Z</time>
      </trkpt>
      <trkpt lat="46.15435" lon="3.46486">
        <ele>308.55</ele>
        <time>2014-10-18T09:03:42Z</time>
      </trkpt>
      <trkpt lat="46.15426" lon="3.46514">
        <ele>309.49</ele>
        <time>2014-10-18T09:03:46Z</time>
      </trkpt>
      <trkpt lat="46.15419" lon="3.46544">
        <ele>310.05</ele>
        <time>2014-10-18T09:03:50Z</time>
      </trkpt>
      <trkpt lat="46.15403" lon="3.46565">
        <ele>310.52</ele>
        <time>2014-10-18T09:03:54Z</time>
      </trkpt>
      <trkpt lat="46.15388" lon="3.46584">
        <ele>310.55</ele>
        <time>2014-10-18T09:03:58Z</time>
      </trkpt>
      <trkpt lat="46.15364" lon="3.46589">
        <ele>309.68</ele>
        <time>2014-10-18T09:04:02Z</time>
      </trkpt>
      <trkpt lat="46.15342" lon="3.46576">
        <ele>309.56</ele>
        <time>2014-10-18T09:04:06Z</time>
      </trkpt>
      <trkpt lat="46.15323" lon="3.46569">
        <ele>308.8</ele>
        <time>2014-10-18T09:04:10Z</time>
      </trkpt>
      <trkpt lat="46.15304" lon="3.46561">
        <ele>306.88</ele>
        <time>2014-10-18T09:04:14Z</time>
      </trkpt>
      <trkpt lat="46.15283" lon="3.46548">
        <ele>305.59</ele>
        <time>2014-10-18T09:04:19Z</time>
      </trkpt>
      <trkpt lat="46.15267" lon="3.46535">
        <ele>305.55</ele>
        <time>2014-10-18T09:04:24Z</time>
      </trkpt>
      <trkpt lat="46.15253" lon="3.46518">
        <ele>305.55</ele>
        <time>2014-10-18T09:04:29Z</time>
      </trkpt>
      <trkpt lat="46.1524" lon="3.46496">
        <ele>305.55</ele>
        <time>2014-10-18T09:04:35Z</time>
      </trkpt>
      <trkpt lat="46.15228" lon="3.46471">
        <ele>305.55</ele>
        <time>2014-10-18T09:04:41Z</time>
      </trkpt>
      <trkpt lat="46.15213" lon="3.46449">
        <ele>305.55</ele>
        <time>2014-10-18T09:04:47Z</time>
      </trkpt>
      <trkpt lat="46.15194" lon="3.46436">
        <ele>305.55</ele>
        <time>2014-10-18T09:04:53Z</time>
      </trkpt>
      <trkpt lat="46.15175" lon="3.46423">
        <ele>306.05</ele>
        <time>2014-10-18T09:04:59Z</time>
      </trkpt>
      <trkpt lat="46.15158" lon="3.46411">
        <ele>306.55</ele>
        <time>2014-10-18T09:05:05Z</time>
      </trkpt>
      <trkpt lat="46.1514" lon="3.46395">
        <ele>306.55</ele>
        <time>2014-10-18T09:05:11Z</time>
      </trkpt>
      <trkpt lat="46.15124" lon="3.4638">
        <ele>307.52</ele>
        <time>2014-10-18T09:05:16Z</time>
      </trkpt>
      <trkpt lat="46.15109" lon="3.46359">
        <ele>308.05</ele>
        <time>2014-10-18T09:05:22Z</time>
      </trkpt>
      <trkpt lat="46.15096" lon="3.46338">
        <ele>308.55</ele>
        <time>2014-10-18T09:05:28Z</time>
      </trkpt>
      <trkpt lat="46.15081" lon="3.4632">
        <ele>308.55</ele>
        <time>2014-10-18T09:05:33Z</time>
      </trkpt>
      <trkpt lat="46.15061" lon="3.46312">
        <ele>309.52</ele>
        <time>2014-10-18T09:05:39Z</time>
      </trkpt>
      <trkpt lat="46.15042" lon="3.46312">
        <ele>309.55</ele>
        <time>2014-10-18T09:05:47Z</time>
      </trkpt>
      <trkpt lat="46.15025" lon="3.46329">
        <ele>310.52</ele>
        <time>2014-10-18T09:05:55Z</time>
      </trkpt>
      <trkpt lat="46.1501" lon="3.46344">
        <ele>311.3</ele>
        <time>2014-10-18T09:06:02Z</time>
      </trkpt>
      <trkpt lat="46.14993" lon="3.46359">
        <ele>312.3</ele>
        <time>2014-10-18T09:06:09Z</time>
      </trkpt>
      <trkpt lat="46.14976" lon="3.46378">
        <ele>313.54</ele>
        <time>2014-10-18T09:06:19Z</time>
      </trkpt>
      <trkpt lat="46.14957" lon="3.46391">
        <ele>314.52</ele>
        <time>2014-10-18T09:06:26Z</time>
      </trkpt>
      <trkpt lat="46.14939" lon="3.46402">
        <ele>316.77</ele>
        <time>2014-10-18T09:06:31Z</time>
      </trkpt>
      <trkpt lat="46.1492" lon="3.46408">
        <ele>319.22</ele>
        <time>2014-10-18T09:06:36Z</time>
      </trkpt>
      <trkpt lat="46.149" lon="3.46413">
        <ele>321.89</ele>
        <time>2014-10-18T09:06:41Z</time>
      </trkpt>
      <trkpt lat="46.14881" lon="3.46413">
        <ele>323.41</ele>
        <time>2014-10-18T09:06:46Z</time>
      </trkpt>
      <trkpt lat="46.14863" lon="3.46413">
        <ele>325.02</ele>
        <time>2014-10-18T09:06:51Z</time>
      </trkpt>
      <trkpt lat="46.14841" lon="3.46411">
        <ele>326.42</ele>
        <time>2014-10-18T09:06:57Z</time>
      </trkpt>
      <trkpt lat="46.14823" lon="3.46408">
        <ele>327.52</ele>
        <time>2014-10-18T09:07:03Z</time>
      </trkpt>
      <trkpt lat="46.14805" lon="3.46404">
        <ele>329.04</ele>
        <time>2014-10-18T09:07:09Z</time>
      </trkpt>
      <trkpt lat="46.14786" lon="3.464">
        <ele>330.29</ele>
        <time>2014-10-18T09:07:15Z</time>
      </trkpt>
      <trkpt lat="46.14766" lon="3.46395">
        <ele>331.3</ele>
        <time>2014-10-18T09:07:21Z</time>
      </trkpt>
      <trkpt lat="46.14746" lon="3.46391">
        <ele>332.3</ele>
        <time>2014-10-18T09:07:27Z</time>
      </trkpt>
      <trkpt lat="46.14727" lon="3.46389">
        <ele>333.3</ele>
        <time>2014-10-18T09:07:33Z</time>
      </trkpt>
      <trkpt lat="46.14708" lon="3.46391">
        <ele>334.3</ele>
        <time>2014-10-18T09:07:39Z</time>
      </trkpt>
      <trkpt lat="46.14688" lon="3.46393">
        <ele>335.3</ele>
        <time>2014-10-18T09:07:46Z</time>
      </trkpt>
      <trkpt lat="46.1467" lon="3.46395">
        <ele>335.55</ele>
        <time>2014-10-18T09:07:52Z</time>
      </trkpt>
      <trkpt lat="46.14652" lon="3.46398">
        <ele>336.54</ele>
        <time>2014-10-18T09:07:58Z</time>
      </trkpt>
      <trkpt lat="46.14632" lon="3.464">
        <ele>336.55</ele>
        <time>2014-10-18T09:08:04Z</time>
      </trkpt>
      <trkpt lat="46.14614" lon="3.46406">
        <ele>337.54</ele>
        <time>2014-10-18T09:08:10Z</time>
      </trkpt>
      <trkpt lat="46.14605" lon="3.46432">
        <ele>338.43</ele>
        <time>2014-10-18T09:08:16Z</time>
      </trkpt>
      <trkpt lat="46.146" lon="3.4646">
        <ele>338.55</ele>
        <time>2014-10-18T09:08:23Z</time>
      </trkpt>
      <trkpt lat="46.14589" lon="3.46483">
        <ele>339.52</ele>
        <time>2014-10-18T09:08:28Z</time>
      </trkpt>
      <trkpt lat="46.14573" lon="3.46503">
        <ele>344.43</ele>
        <time>2014-10-18T09:08:32Z</time>
      </trkpt>
      <trkpt lat="46.14558" lon="3.4652">
        <ele>346.29</ele>
        <time>2014-10-18T09:08:35Z</time>
      </trkpt>
      <trkpt lat="46.14539" lon="3.46539">
        <ele>345.77</ele>
        <time>2014-10-18T09:08:38Z</time>
      </trkpt>
      <trkpt lat="46.14519" lon="3.46559">
        <ele>346.08</ele>
        <time>2014-10-18T09:08:41Z</time>
      </trkpt>
      <trkpt lat="46.1451" lon="3.46586">
        <ele>346.52</ele>
        <time>2014-10-18T09:08:45Z</time>
      </trkpt>
      <trkpt lat="46.14517" lon="3.46614">
        <ele>345.11</ele>
        <time>2014-10-18T09:08:49Z</time>
      </trkpt>
      <trkpt lat="46.14526" lon="3.4664">
        <ele>344.59</ele>
        <time>2014-10-18T09:08:53Z</time>
      </trkpt>
      <trkpt lat="46.1453" lon="3.46668">
        <ele>344.56</ele>
        <time>2014-10-18T09:08:57Z</time>
      </trkpt>
      <trkpt lat="46.14536" lon="3.46696">
        <ele>344.55</ele>
        <time>2014-10-18T09:09:01Z</time>
      </trkpt>
      <trkpt lat="46.14544" lon="3.46726">
        <ele>344.55</ele>
        <time>2014-10-18T09:09:05Z</time>
      </trkpt>
      <trkpt lat="46.14557" lon="3.46754">
        <ele>344.55</ele>
        <time>2014-10-18T09:09:09Z</time>
      </trkpt>
      <trkpt lat="46.1457" lon="3.4678">
        <ele>343.62</ele>
        <time>2014-10-18T09:09:13Z</time>
      </trkpt>
      <trkpt lat="46.14583" lon="3.46803">
        <ele>343.56</ele>
        <time>2014-10-18T09:09:17Z</time>
      </trkpt>
      <trkpt lat="46.14591" lon="3.46829">
        <ele>343.55</ele>
        <time>2014-10-18T09:09:21Z</time>
      </trkpt>
      <trkpt lat="46.14586" lon="3.46861">
        <ele>343.55</ele>
        <time>2014-10-18T09:09:26Z</time>
      </trkpt>
      <trkpt lat="46.14575" lon="3.46889">
        <ele>343.55</ele>
        <time>2014-10-18T09:09:30Z</time>
      </trkpt>
      <trkpt lat="46.14586" lon="3.46913">
        <ele>343.55</ele>
        <time>2014-10-18T09:09:37Z</time>
      </trkpt>
      <trkpt lat="46.1459" lon="3.46945">
        <ele>342.57</ele>
        <time>2014-10-18T09:09:43Z</time>
      </trkpt>
      <trkpt lat="46.1458" lon="3.46973">
        <ele>342.55</ele>
        <time>2014-10-18T09:09:47Z</time>
      </trkpt>
      <trkpt lat="46.14572" lon="3.46996">
        <ele>342.05</ele>
        <time>2014-10-18T09:09:50Z</time>
      </trkpt>
      <trkpt lat="46.14565" lon="3.47026">
        <ele>340.83</ele>
        <time>2014-10-18T09:09:54Z</time>
      </trkpt>
      <trkpt lat="46.14561" lon="3.47054">
        <ele>339.63</ele>
        <time>2014-10-18T09:09:58Z</time>
      </trkpt>
      <trkpt lat="46.14556" lon="3.4708">
        <ele>338.62</ele>
        <time>2014-10-18T09:10:02Z</time>
      </trkpt>
      <trkpt lat="46.14544" lon="3.47104">
        <ele>337.68</ele>
        <time>2014-10-18T09:10:07Z</time>
      </trkpt>
      <trkpt lat="46.14532" lon="3.47131">
        <ele>337.56</ele>
        <time>2014-10-18T09:10:12Z</time>
      </trkpt>
      <trkpt lat="46.14521" lon="3.47155">
        <ele>338.05</ele>
        <time>2014-10-18T09:10:17Z</time>
      </trkpt>
      <trkpt lat="46.14508" lon="3.47179">
        <ele>338.54</ele>
        <time>2014-10-18T09:10:22Z</time>
      </trkpt>
      <trkpt lat="46.14493" lon="3.47202">
        <ele>339.43</ele>
        <time>2014-10-18T09:10:27Z</time>
      </trkpt>
      <trkpt lat="46.14473" lon="3.47217">
        <ele>340.52</ele>
        <time>2014-10-18T09:10:32Z</time>
      </trkpt>
      <trkpt lat="46.14468" lon="3.47245">
        <ele>339.68</ele>
        <time>2014-10-18T09:10:37Z</time>
      </trkpt>
      <trkpt lat="46.14483" lon="3.47262">
        <ele>339.56</ele>
        <time>2014-10-18T09:10:42Z</time>
      </trkpt>
      <trkpt lat="46.14502" lon="3.4728">
        <ele>340.49</ele>
        <time>2014-10-18T09:10:46Z</time>
      </trkpt>
      <trkpt lat="46.14521" lon="3.47299">
        <ele>340.55</ele>
        <time>2014-10-18T09:10:50Z</time>
      </trkpt>
      <trkpt lat="46.14535" lon="3.47322">
        <ele>341.43</ele>
        <time>2014-10-18T09:10:54Z</time>
      </trkpt>
      <trkpt lat="46.14549" lon="3.47344">
        <ele>342.42</ele>
        <time>2014-10-18T09:10:58Z</time>
      </trkpt>
      <trkpt lat="46.14567" lon="3.47361">
        <ele>342.54</ele>
        <time>2014-10-18T09:11:02Z</time>
      </trkpt>
      <trkpt lat="46.14585" lon="3.47378">
        <ele>343.93</ele>
        <time>2014-10-18T09:11:06Z</time>
      </trkpt>
      <trkpt lat="46.14596" lon="3.47402">
        <ele>345.01</ele>
        <time>2014-10-18T09:11:10Z</time>
      </trkpt>
      <trkpt lat="46.1459" lon="3.47432">
        <ele>346.39</ele>
        <time>2014-10-18T09:11:14Z</time>
      </trkpt>
      <trkpt lat="46.1458" lon="3.47456">
        <ele>347.04</ele>
        <time>2014-10-18T09:11:18Z</time>
      </trkpt>
      <trkpt lat="46.1456" lon="3.47471">
        <ele>347.52</ele>
        <time>2014-10-18T09:11:22Z</time>
      </trkpt>
      <trkpt lat="46.1454" lon="3.47479">
        <ele>347.05</ele>
        <time>2014-10-18T09:11:26Z</time>
      </trkpt>
      <trkpt lat="46.14522" lon="3.47477">
        <ele>346.57</ele>
        <time>2014-10-18T09:11:31Z</time>
      </trkpt>
      <trkpt lat="46.14501" lon="3.47471">
        <ele>345.58</ele>
        <time>2014-10-18T09:11:36Z</time>
      </trkpt>
      <trkpt lat="46.14484" lon="3.47462">
        <ele>344.59</ele>
        <time>2014-10-18T09:11:41Z</time>
      </trkpt>
      <trkpt lat="46.14469" lon="3.47443">
        <ele>343.18</ele>
        <time>2014-10-18T09:11:46Z</time>
      </trkpt>
      <trkpt lat="46.1445" lon="3.47428">
        <ele>341.81</ele>
        <time>2014-10-18T09:11:52Z</time>
      </trkpt>
      <trkpt lat="46.14428" lon="3.47421">
        <ele>340.13</ele>
        <time>2014-10-18T09:11:56Z</time>
      </trkpt>
      <trkpt lat="46.14407" lon="3.47415">
        <ele>339.59</ele>
        <time>2014-10-18T09:12:00Z</time>
      </trkpt>
      <trkpt lat="46.1439" lon="3.47406">
        <ele>338.81</ele>
        <time>2014-10-18T09:12:04Z</time>
      </trkpt>
      <trkpt lat="46.14373" lon="3.47398">
        <ele>337.31</ele>
        <time>2014-10-18T09:12:09Z</time>
      </trkpt>
      <trkpt lat="46.14354" lon="3.47389">
        <ele>335.7</ele>
        <time>2014-10-18T09:12:14Z</time>
      </trkpt>
      <trkpt lat="46.14337" lon="3.47376">
        <ele>334.18</ele>
        <time>2014-10-18T09:12:19Z</time>
      </trkpt>
      <trkpt lat="46.1432" lon="3.47361">
        <ele>332.72</ele>
        <time>2014-10-18T09:12:23Z</time>
      </trkpt>
      <trkpt lat="46.14295" lon="3.47355">
        <ele>332.56</ele>
        <time>2014-10-18T09:12:27Z</time>
      </trkpt>
      <trkpt lat="46.14275" lon="3.47348">
        <ele>332.55</ele>
        <time>2014-10-18T09:12:30Z</time>
      </trkpt>
      <trkpt lat="46.1425" lon="3.4734">
        <ele>332.43</ele>
        <time>2014-10-18T09:12:33Z</time>
      </trkpt>
      <trkpt lat="46.14225" lon="3.47331">
        <ele>333.41</ele>
        <time>2014-10-18T09:12:36Z</time>
      </trkpt>
      <trkpt lat="46.14207" lon="3.47322">
        <ele>333.52</ele>
        <time>2014-10-18T09:12:38Z</time>
      </trkpt>
      <trkpt lat="46.14182" lon="3.47312">
        <ele>333.05</ele>
        <time>2014-10-18T09:12:41Z</time>
      </trkpt>
      <trkpt lat="46.14157" lon="3.47307">
        <ele>330.86</ele>
        <time>2014-10-18T09:12:44Z</time>
      </trkpt>
      <trkpt lat="46.1413" lon="3.47314">
        <ele>326.84</ele>
        <time>2014-10-18T09:12:47Z</time>
      </trkpt>
      <trkpt lat="46.14113" lon="3.47325">
        <ele>323.88</ele>
        <time>2014-10-18T09:12:49Z</time>
      </trkpt>
      <trkpt lat="46.14088" lon="3.47337">
        <ele>320.59</ele>
        <time>2014-10-18T09:12:52Z</time>
      </trkpt>
      <trkpt lat="46.14064" lon="3.47346">
        <ele>318.06</ele>
        <time>2014-10-18T09:12:55Z</time>
      </trkpt>
      <trkpt lat="46.14044" lon="3.47365">
        <ele>314.99</ele>
        <time>2014-10-18T09:12:58Z</time>
      </trkpt>
      <trkpt lat="46.14034" lon="3.47391">
        <ele>313.41</ele>
        <time>2014-10-18T09:13:00Z</time>
      </trkpt>
      <trkpt lat="46.14023" lon="3.47413">
        <ele>312.02</ele>
        <time>2014-10-18T09:13:02Z</time>
      </trkpt>
      <trkpt lat="46.1401" lon="3.47443">
        <ele>309.49</ele>
        <time>2014-10-18T09:13:05Z</time>
      </trkpt>
      <trkpt lat="46.14001" lon="3.47466">
        <ele>307.92</ele>
        <time>2014-10-18T09:13:08Z</time>
      </trkpt>
      <trkpt lat="46.13994" lon="3.4749">
        <ele>305.26</ele>
        <time>2014-10-18T09:13:12Z</time>
      </trkpt>
      <trkpt lat="46.13979" lon="3.47507">
        <ele>303.57</ele>
        <time>2014-10-18T09:13:19Z</time>
      </trkpt>
      <trkpt lat="46.13961" lon="3.47503">
        <ele>303.55</ele>
        <time>2014-10-18T09:13:25Z</time>
      </trkpt>
      <trkpt lat="46.13941" lon="3.47494">
        <ele>303.55</ele>
        <time>2014-10-18T09:13:30Z</time>
      </trkpt>
      <trkpt lat="46.13923" lon="3.47494">
        <ele>303.05</ele>
        <time>2014-10-18T09:13:35Z</time>
      </trkpt>
      <trkpt lat="46.13904" lon="3.47505">
        <ele>302.57</ele>
        <time>2014-10-18T09:13:40Z</time>
      </trkpt>
      <trkpt lat="46.13881" lon="3.47509">
        <ele>302.55</ele>
        <time>2014-10-18T09:13:44Z</time>
      </trkpt>
      <trkpt lat="46.13861" lon="3.47492">
        <ele>302.55</ele>
        <time>2014-10-18T09:13:48Z</time>
      </trkpt>
      <trkpt lat="46.13845" lon="3.47475">
        <ele>302.55</ele>
        <time>2014-10-18T09:13:51Z</time>
      </trkpt>
      <trkpt lat="46.13825" lon="3.47462">
        <ele>301.68</ele>
        <time>2014-10-18T09:13:55Z</time>
      </trkpt>
      <trkpt lat="46.1381" lon="3.47443">
        <ele>299.75</ele>
        <time>2014-10-18T09:13:59Z</time>
      </trkpt>
      <trkpt lat="46.138" lon="3.47421">
        <ele>299.08</ele>
        <time>2014-10-18T09:14:02Z</time>
      </trkpt>
      <trkpt lat="46.13788" lon="3.47398">
        <ele>297.87</ele>
        <time>2014-10-18T09:14:05Z</time>
      </trkpt>
      <trkpt lat="46.13775" lon="3.4737">
        <ele>296.14</ele>
        <time>2014-10-18T09:14:09Z</time>
      </trkpt>
      <trkpt lat="46.13762" lon="3.47342">
        <ele>294.84</ele>
        <time>2014-10-18T09:14:13Z</time>
      </trkpt>
      <trkpt lat="46.13744" lon="3.47331">
        <ele>292.26</ele>
        <time>2014-10-18T09:14:17Z</time>
      </trkpt>
      <trkpt lat="46.13726" lon="3.47348">
        <ele>289.97</ele>
        <time>2014-10-18T09:14:21Z</time>
      </trkpt>
      <trkpt lat="46.13713" lon="3.4737">
        <ele>288.73</ele>
        <time>2014-10-18T09:14:24Z</time>
      </trkpt>
      <trkpt lat="46.13698" lon="3.47395">
        <ele>287.63</ele>
        <time>2014-10-18T09:14:28Z</time>
      </trkpt>
      <trkpt lat="46.13685" lon="3.47421">
        <ele>286.68</ele>
        <time>2014-10-18T09:14:32Z</time>
      </trkpt>
      <trkpt lat="46.13671" lon="3.47443">
        <ele>286.56</ele>
        <time>2014-10-18T09:14:36Z</time>
      </trkpt>
      <trkpt lat="46.13655" lon="3.47462">
        <ele>286.55</ele>
        <time>2014-10-18T09:14:40Z</time>
      </trkpt>
      <trkpt lat="46.13639" lon="3.47479">
        <ele>285.62</ele>
        <time>2014-10-18T09:14:44Z</time>
      </trkpt>
      <trkpt lat="46.13626" lon="3.47507">
        <ele>284.81</ele>
        <time>2014-10-18T09:14:48Z</time>
      </trkpt>
      <trkpt lat="46.13633" lon="3.47535">
        <ele>283.19</ele>
        <time>2014-10-18T09:14:52Z</time>
      </trkpt>
      <trkpt lat="46.13642" lon="3.47558">
        <ele>282.59</ele>
        <time>2014-10-18T09:14:56Z</time>
      </trkpt>
      <trkpt lat="46.13649" lon="3.47586">
        <ele>283.31</ele>
        <time>2014-10-18T09:15:00Z</time>
      </trkpt>
      <trkpt lat="46.13658" lon="3.47614">
        <ele>284.29</ele>
        <time>2014-10-18T09:15:04Z</time>
      </trkpt>
      <trkpt lat="46.13666" lon="3.47642">
        <ele>284.54</ele>
        <time>2014-10-18T09:15:08Z</time>
      </trkpt>
      <trkpt lat="46.13672" lon="3.4767">
        <ele>285.05</ele>
        <time>2014-10-18T09:15:12Z</time>
      </trkpt>
      <trkpt lat="46.1366" lon="3.47692">
        <ele>285.52</ele>
        <time>2014-10-18T09:15:16Z</time>
      </trkpt>
      <trkpt lat="46.13643" lon="3.47707">
        <ele>284.8</ele>
        <time>2014-10-18T09:15:21Z</time>
      </trkpt>
      <trkpt lat="46.13626" lon="3.47715">
        <ele>284.55</ele>
        <time>2014-10-18T09:15:28Z</time>
      </trkpt>
      <trkpt lat="46.13608" lon="3.47724">
        <ele>284.05</ele>
        <time>2014-10-18T09:15:37Z</time>
      </trkpt>
      <trkpt lat="46.13587" lon="3.47732">
        <ele>283.56</ele>
        <time>2014-10-18T09:15:44Z</time>
      </trkpt>
      <trkpt lat="46.13568" lon="3.47739">
        <ele>283.55</ele>
        <time>2014-10-18T09:15:51Z</time>
      </trkpt>
      <trkpt lat="46.13545" lon="3.47752">
        <ele>283.55</ele>
        <time>2014-10-18T09:16:00Z</time>
      </trkpt>
      <trkpt lat="46.13529" lon="3.47771">
        <ele>285.04</ele>
        <time>2014-10-18T09:16:09Z</time>
      </trkpt>
      <trkpt lat="46.13514" lon="3.4779">
        <ele>287.04</ele>
        <time>2014-10-18T09:16:19Z</time>
      </trkpt>
      <trkpt lat="46.13495" lon="3.47797">
        <ele>290.36</ele>
        <time>2014-10-18T09:16:28Z</time>
      </trkpt>
      <trkpt lat="46.13474" lon="3.47805">
        <ele>293.01</ele>
        <time>2014-10-18T09:16:38Z</time>
      </trkpt>
      <trkpt lat="46.13448" lon="3.47822">
        <ele>296.54</ele>
        <time>2014-10-18T09:16:51Z</time>
      </trkpt>
      <trkpt lat="46.1343" lon="3.47829">
        <ele>299.02</ele>
        <time>2014-10-18T09:17:00Z</time>
      </trkpt>
      <trkpt lat="46.1341" lon="3.47848">
        <ele>302.54</ele>
        <time>2014-10-18T09:17:13Z</time>
      </trkpt>
      <trkpt lat="46.13395" lon="3.47865">
        <ele>306.04</ele>
        <time>2014-10-18T09:17:25Z</time>
      </trkpt>
      <trkpt lat="46.13379" lon="3.4788">
        <ele>309.04</ele>
        <time>2014-10-18T09:17:37Z</time>
      </trkpt>
      <trkpt lat="46.13365" lon="3.47904">
        <ele>312.04</ele>
        <time>2014-10-18T09:17:49Z</time>
      </trkpt>
      <trkpt lat="46.13349" lon="3.47921">
        <ele>314.55</ele>
        <time>2014-10-18T09:18:01Z</time>
      </trkpt>
      <trkpt lat="46.13331" lon="3.47934">
        <ele>317.04</ele>
        <time>2014-10-18T09:18:11Z</time>
      </trkpt>
      <trkpt lat="46.13317" lon="3.47953">
        <ele>319.49</ele>
        <time>2014-10-18T09:18:23Z</time>
      </trkpt>
      <trkpt lat="46.13301" lon="3.47966">
        <ele>321.49</ele>
        <time>2014-10-18T09:18:35Z</time>
      </trkpt>
      <trkpt lat="46.13283" lon="3.47975">
        <ele>322.52</ele>
        <time>2014-10-18T09:18:45Z</time>
      </trkpt>
      <trkpt lat="46.13264" lon="3.47979">
        <ele>324.3</ele>
        <time>2014-10-18T09:18:55Z</time>
      </trkpt>
      <trkpt lat="46.13246" lon="3.47986">
        <ele>324.55</ele>
        <time>2014-10-18T09:19:03Z</time>
      </trkpt>
      <trkpt lat="46.13227" lon="3.47992">
        <ele>325.55</ele>
        <time>2014-10-18T09:19:12Z</time>
      </trkpt>
      <trkpt lat="46.13209" lon="3.48001">
        <ele>327.05</ele>
        <time>2014-10-18T09:19:22Z</time>
      </trkpt>
      <trkpt lat="46.13191" lon="3.48009">
        <ele>328.43</ele>
        <time>2014-10-18T09:19:31Z</time>
      </trkpt>
      <trkpt lat="46.13173" lon="3.48016">
        <ele>330.48</ele>
        <time>2014-10-18T09:19:40Z</time>
      </trkpt>
      <trkpt lat="46.13155" lon="3.48022">
        <ele>332.49</ele>
        <time>2014-10-18T09:19:49Z</time>
      </trkpt>
      <trkpt lat="46.13136" lon="3.48028">
        <ele>334.49</ele>
        <time>2014-10-18T09:19:59Z</time>
      </trkpt>
      <trkpt lat="46.13116" lon="3.48033">
        <ele>336.42</ele>
        <time>2014-10-18T09:20:08Z</time>
      </trkpt>
      <trkpt lat="46.13098" lon="3.48039">
        <ele>338.49</ele>
        <time>2014-10-18T09:20:18Z</time>
      </trkpt>
      <trkpt lat="46.13078" lon="3.48043">
        <ele>341.29</ele>
        <time>2014-10-18T09:20:28Z</time>
      </trkpt>
      <trkpt lat="46.1306" lon="3.48031">
        <ele>344.23</ele>
        <time>2014-10-18T09:20:36Z</time>
      </trkpt>
      <trkpt lat="46.13052" lon="3.48007">
        <ele>346.48</ele>
        <time>2014-10-18T09:20:44Z</time>
      </trkpt>
      <trkpt lat="46.13047" lon="3.47981">
        <ele>349.29</ele>
        <time>2014-10-18T09:20:53Z</time>
      </trkpt>
      <trkpt lat="46.13043" lon="3.47953">
        <ele>351.02</ele>
        <time>2014-10-18T09:20:59Z</time>
      </trkpt>
      <trkpt lat="46.13042" lon="3.47921">
        <ele>357.64</ele>
        <time>2014-10-18T09:21:03Z</time>
      </trkpt>
      <trkpt lat="46.13038" lon="3.47893">
        <ele>361.44</ele>
        <time>2014-10-18T09:21:06Z</time>
      </trkpt>
      <trkpt lat="46.13032" lon="3.47867">
        <ele>363.79</ele>
        <time>2014-10-18T09:21:09Z</time>
      </trkpt>
      <trkpt lat="46.13025" lon="3.47842">
        <ele>365.71</ele>
        <time>2014-10-18T09:21:12Z</time>
      </trkpt>
      <trkpt lat="46.13015" lon="3.47816">
        <ele>367.38</ele>
        <time>2014-10-18T09:21:16Z</time>
      </trkpt>
      <trkpt lat="46.12992" lon="3.47816">
        <ele>367.05</ele>
        <time>2014-10-18T09:21:27Z</time>
      </trkpt>
      <trkpt lat="46.12972" lon="3.47833">
        <ele>366.55</ele>
        <time>2014-10-18T09:21:41Z</time>
      </trkpt>
      <trkpt lat="46.12956" lon="3.47846">
        <ele>365.56</ele>
        <time>2014-10-18T09:21:50Z</time>
      </trkpt>
      <trkpt lat="46.12938" lon="3.47846">
        <ele>365.55</ele>
        <time>2014-10-18T09:21:57Z</time>
      </trkpt>
      <trkpt lat="46.12919" lon="3.47842">
        <ele>364.58</ele>
        <time>2014-10-18T09:22:03Z</time>
      </trkpt>
      <trkpt lat="46.12901" lon="3.4784">
        <ele>364.55</ele>
        <time>2014-10-18T09:22:09Z</time>
      </trkpt>
      <trkpt lat="46.12882" lon="3.47842">
        <ele>364.55</ele>
        <time>2014-10-18T09:22:15Z</time>
      </trkpt>
      <trkpt lat="46.12858" lon="3.47857">
        <ele>363.56</ele>
        <time>2014-10-18T09:22:30Z</time>
      </trkpt>
      <trkpt lat="46.12839" lon="3.47863">
        <ele>364.05</ele>
        <time>2014-10-18T09:22:39Z</time>
      </trkpt>
      <trkpt lat="46.1282" lon="3.4787">
        <ele>364.55</ele>
        <time>2014-10-18T09:22:47Z</time>
      </trkpt>
      <trkpt lat="46.12801" lon="3.47876">
        <ele>364.55</ele>
        <time>2014-10-18T09:22:55Z</time>
      </trkpt>
      <trkpt lat="46.12782" lon="3.47878">
        <ele>364.55</ele>
        <time>2014-10-18T09:23:05Z</time>
      </trkpt>
      <trkpt lat="46.12761" lon="3.4788">
        <ele>364.55</ele>
        <time>2014-10-18T09:23:15Z</time>
      </trkpt>
      <trkpt lat="46.12736" lon="3.47887">
        <ele>364.55</ele>
        <time>2014-10-18T09:23:29Z</time>
      </trkpt>
      <trkpt lat="46.12716" lon="3.47889">
        <ele>366.05</ele>
        <time>2014-10-18T09:23:42Z</time>
      </trkpt>
      <trkpt lat="46.12691" lon="3.47889">
        <ele>369.55</ele>
        <time>2014-10-18T09:23:58Z</time>
      </trkpt>
      <trkpt lat="46.12667" lon="3.47889">
        <ele>374.04</ele>
        <time>2014-10-18T09:24:13Z</time>
      </trkpt>
      <trkpt lat="46.12648" lon="3.47887">
        <ele>376.27</ele>
        <time>2014-10-18T09:24:21Z</time>
      </trkpt>
      <trkpt lat="46.12629" lon="3.4788">
        <ele>378.04</ele>
        <time>2014-10-18T09:24:29Z</time>
      </trkpt>
      <trkpt lat="46.12611" lon="3.47883">
        <ele>380.05</ele>
        <time>2014-10-18T09:24:41Z</time>
      </trkpt>
      <trkpt lat="46.12598" lon="3.47902">
        <ele>382.3</ele>
        <time>2014-10-18T09:24:55Z</time>
      </trkpt>
      <trkpt lat="46.12596" lon="3.4793">
        <ele>384.49</ele>
        <time>2014-10-18T09:25:10Z</time>
      </trkpt>
      <trkpt lat="46.12592" lon="3.47955">
        <ele>387.04</ele>
        <time>2014-10-18T09:25:25Z</time>
      </trkpt>
      <trkpt lat="46.12589" lon="3.47983">
        <ele>390.02</ele>
        <time>2014-10-18T09:25:39Z</time>
      </trkpt>
      <trkpt lat="46.12589" lon="3.48011">
        <ele>392.52</ele>
        <time>2014-10-18T09:25:52Z</time>
      </trkpt>
      <trkpt lat="46.12585" lon="3.48037">
        <ele>396.29</ele>
        <time>2014-10-18T09:26:06Z</time>
      </trkpt>
      <trkpt lat="46.12581" lon="3.48063">
        <ele>400.04</ele>
        <time>2014-10-18T09:26:24Z</time>
      </trkpt>
      <trkpt lat="46.12567" lon="3.48082">
        <ele>402.05</ele>
        <time>2014-10-18T09:26:38Z</time>
      </trkpt>
      <trkpt lat="46.12559" lon="3.48106">
        <ele>403.49</ele>
        <time>2014-10-18T09:26:50Z</time>
      </trkpt>
      <trkpt lat="46.12558" lon="3.48134">
        <ele>404.55</ele>
        <time>2014-10-18T09:27:02Z</time>
      </trkpt>
      <trkpt lat="46.12559" lon="3.48161">
        <ele>406.05</ele>
        <time>2014-10-18T09:27:14Z</time>
      </trkpt>
      <trkpt lat="46.12561" lon="3.48191">
        <ele>408.05</ele>
        <time>2014-10-18T09:27:26Z</time>
      </trkpt>
      <trkpt lat="46.12561" lon="3.48219">
        <ele>410.3</ele>
        <time>2014-10-18T09:27:38Z</time>
      </trkpt>
      <trkpt lat="46.12555" lon="3.48245">
        <ele>412.49</ele>
        <time>2014-10-18T09:27:49Z</time>
      </trkpt>
      <trkpt lat="46.12547" lon="3.48269">
        <ele>415.42</ele>
        <time>2014-10-18T09:28:01Z</time>
      </trkpt>
      <trkpt lat="46.12541" lon="3.48297">
        <ele>418.42</ele>
        <time>2014-10-18T09:28:12Z</time>
      </trkpt>
      <trkpt lat="46.1253" lon="3.48318">
        <ele>421.42</ele>
        <time>2014-10-18T09:28:23Z</time>
      </trkpt>
      <trkpt lat="46.12523" lon="3.48342">
        <ele>424.29</ele>
        <time>2014-10-18T09:28:34Z</time>
      </trkpt>
      <trkpt lat="46.12519" lon="3.48367">
        <ele>426.49</ele>
        <time>2014-10-18T09:28:47Z</time>
      </trkpt>
      <trkpt lat="46.1251" lon="3.48391">
        <ele>428.49</ele>
        <time>2014-10-18T09:28:58Z</time>
      </trkpt>
      <trkpt lat="46.12505" lon="3.48417">
        <ele>429.55</ele>
        <time>2014-10-18T09:29:08Z</time>
      </trkpt>
      <trkpt lat="46.12497" lon="3.48443">
        <ele>431.43</ele>
        <time>2014-10-18T09:29:20Z</time>
      </trkpt>
      <trkpt lat="46.12491" lon="3.48468">
        <ele>433.43</ele>
        <time>2014-10-18T09:29:32Z</time>
      </trkpt>
      <trkpt lat="46.1248" lon="3.4849">
        <ele>435.3</ele>
        <time>2014-10-18T09:29:42Z</time>
      </trkpt>
      <trkpt lat="46.12473" lon="3.48513">
        <ele>437.42</ele>
        <time>2014-10-18T09:29:54Z</time>
      </trkpt>
      <trkpt lat="46.12465" lon="3.48537">
        <ele>439.3</ele>
        <time>2014-10-18T09:30:04Z</time>
      </trkpt>
      <trkpt lat="46.12458" lon="3.48561">
        <ele>441.05</ele>
        <time>2014-10-18T09:30:16Z</time>
      </trkpt>
      <trkpt lat="46.12449" lon="3.48584">
        <ele>442.52</ele>
        <time>2014-10-18T09:30:27Z</time>
      </trkpt>
      <trkpt lat="46.12437" lon="3.48606">
        <ele>444.43</ele>
        <time>2014-10-18T09:30:38Z</time>
      </trkpt>
      <trkpt lat="46.12423" lon="3.48625">
        <ele>446.49</ele>
        <time>2014-10-18T09:30:50Z</time>
      </trkpt>
      <trkpt lat="46.12406" lon="3.48636">
        <ele>448.3</ele>
        <time>2014-10-18T09:31:01Z</time>
      </trkpt>
      <trkpt lat="46.12389" lon="3.48646">
        <ele>449.54</ele>
        <time>2014-10-18T09:31:12Z</time>
      </trkpt>
      <trkpt lat="46.12372" lon="3.48657">
        <ele>450.55</ele>
        <time>2014-10-18T09:31:23Z</time>
      </trkpt>
      <trkpt lat="46.12357" lon="3.48672">
        <ele>451.55</ele>
        <time>2014-10-18T09:31:33Z</time>
      </trkpt>
      <trkpt lat="46.12343" lon="3.48689">
        <ele>452.55</ele>
        <time>2014-10-18T09:31:42Z</time>
      </trkpt>
      <trkpt lat="46.12329" lon="3.48709">
        <ele>453.55</ele>
        <time>2014-10-18T09:31:51Z</time>
      </trkpt>
      <trkpt lat="46.12316" lon="3.48728">
        <ele>454.55</ele>
        <time>2014-10-18T09:31:58Z</time>
      </trkpt>
      <trkpt lat="46.123" lon="3.48745">
        <ele>455.49</ele>
        <time>2014-10-18T09:32:05Z</time>
      </trkpt>
      <trkpt lat="46.12285" lon="3.4876">
        <ele>455.55</ele>
        <time>2014-10-18T09:32:12Z</time>
      </trkpt>
      <trkpt lat="46.12272" lon="3.48779">
        <ele>457.05</ele>
        <time>2014-10-18T09:32:20Z</time>
      </trkpt>
      <trkpt lat="46.12258" lon="3.48801">
        <ele>458.49</ele>
        <time>2014-10-18T09:32:28Z</time>
      </trkpt>
      <trkpt lat="46.12244" lon="3.4882">
        <ele>459.54</ele>
        <time>2014-10-18T09:32:36Z</time>
      </trkpt>
      <trkpt lat="46.12233" lon="3.48844">
        <ele>460.55</ele>
        <time>2014-10-18T09:32:44Z</time>
      </trkpt>
      <trkpt lat="46.12224" lon="3.4887">
        <ele>461.43</ele>
        <time>2014-10-18T09:32:52Z</time>
      </trkpt>
      <trkpt lat="46.12214" lon="3.48893">
        <ele>462.05</ele>
        <time>2014-10-18T09:33:00Z</time>
      </trkpt>
      <trkpt lat="46.12202" lon="3.48917">
        <ele>463.05</ele>
        <time>2014-10-18T09:33:06Z</time>
      </trkpt>
      <trkpt lat="46.12194" lon="3.48947">
        <ele>467.54</ele>
        <time>2014-10-18T09:33:11Z</time>
      </trkpt>
      <trkpt lat="46.12185" lon="3.48979">
        <ele>470.3</ele>
        <time>2014-10-18T09:33:15Z</time>
      </trkpt>
      <trkpt lat="46.12176" lon="3.49007">
        <ele>469.79</ele>
        <time>2014-10-18T09:33:19Z</time>
      </trkpt>
      <trkpt lat="46.12175" lon="3.49035">
        <ele>469.56</ele>
        <time>2014-10-18T09:33:24Z</time>
      </trkpt>
      <trkpt lat="46.12177" lon="3.49065">
        <ele>466.9</ele>
        <time>2014-10-18T09:33:29Z</time>
      </trkpt>
      <trkpt lat="46.12173" lon="3.49093">
        <ele>465.7</ele>
        <time>2014-10-18T09:33:33Z</time>
      </trkpt>
      <trkpt lat="46.12165" lon="3.49116">
        <ele>463.87</ele>
        <time>2014-10-18T09:33:37Z</time>
      </trkpt>
      <trkpt lat="46.12154" lon="3.49138">
        <ele>462.59</ele>
        <time>2014-10-18T09:33:42Z</time>
      </trkpt>
      <trkpt lat="46.12142" lon="3.49161">
        <ele>462.05</ele>
        <time>2014-10-18T09:33:47Z</time>
      </trkpt>
      <trkpt lat="46.12128" lon="3.49183">
        <ele>461.57</ele>
        <time>2014-10-18T09:33:52Z</time>
      </trkpt>
      <trkpt lat="46.12114" lon="3.49206">
        <ele>459.83</ele>
        <time>2014-10-18T09:33:57Z</time>
      </trkpt>
      <trkpt lat="46.12102" lon="3.49228">
        <ele>460.32</ele>
        <time>2014-10-18T09:34:01Z</time>
      </trkpt>
      <trkpt lat="46.12087" lon="3.49245">
        <ele>463.6</ele>
        <time>2014-10-18T09:34:05Z</time>
      </trkpt>
      <trkpt lat="46.12071" lon="3.4926">
        <ele>465.87</ele>
        <time>2014-10-18T09:34:09Z</time>
      </trkpt>
      <trkpt lat="46.12054" lon="3.49275">
        <ele>467.39</ele>
        <time>2014-10-18T09:34:13Z</time>
      </trkpt>
      <trkpt lat="46.12037" lon="3.4929">
        <ele>467.54</ele>
        <time>2014-10-18T09:34:17Z</time>
      </trkpt>
      <trkpt lat="46.12018" lon="3.49305">
        <ele>468.43</ele>
        <time>2014-10-18T09:34:22Z</time>
      </trkpt>
      <trkpt lat="46.12002" lon="3.4932">
        <ele>468.55</ele>
        <time>2014-10-18T09:34:26Z</time>
      </trkpt>
      <trkpt lat="46.11981" lon="3.49331">
        <ele>468.55</ele>
        <time>2014-10-18T09:34:31Z</time>
      </trkpt>
      <trkpt lat="46.11963" lon="3.49342">
        <ele>468.55</ele>
        <time>2014-10-18T09:34:36Z</time>
      </trkpt>
      <trkpt lat="46.11946" lon="3.49352">
        <ele>467.12</ele>
        <time>2014-10-18T09:34:41Z</time>
      </trkpt>
      <trkpt lat="46.11928" lon="3.49361">
        <ele>466.57</ele>
        <time>2014-10-18T09:34:46Z</time>
      </trkpt>
      <trkpt lat="46.11909" lon="3.49374">
        <ele>466.55</ele>
        <time>2014-10-18T09:34:52Z</time>
      </trkpt>
      <trkpt lat="46.11891" lon="3.49382">
        <ele>467.43</ele>
        <time>2014-10-18T09:34:57Z</time>
      </trkpt>
      <trkpt lat="46.11872" lon="3.49393">
        <ele>467.55</ele>
        <time>2014-10-18T09:35:03Z</time>
      </trkpt>
      <trkpt lat="46.11852" lon="3.49404">
        <ele>468.05</ele>
        <time>2014-10-18T09:35:09Z</time>
      </trkpt>
      <trkpt lat="46.11835" lon="3.49412">
        <ele>468.55</ele>
        <time>2014-10-18T09:35:15Z</time>
      </trkpt>
      <trkpt lat="46.11815" lon="3.49415">
        <ele>468.55</ele>
        <time>2014-10-18T09:35:21Z</time>
      </trkpt>
      <trkpt lat="46.11797" lon="3.49412">
        <ele>469.52</ele>
        <time>2014-10-18T09:35:26Z</time>
      </trkpt>
      <trkpt lat="46.11776" lon="3.49408">
        <ele>470.3</ele>
        <time>2014-10-18T09:35:32Z</time>
      </trkpt>
      <trkpt lat="46.11758" lon="3.49402">
        <ele>470.55</ele>
        <time>2014-10-18T09:35:37Z</time>
      </trkpt>
      <trkpt lat="46.11739" lon="3.49397">
        <ele>471.05</ele>
        <time>2014-10-18T09:35:42Z</time>
      </trkpt>
      <trkpt lat="46.1172" lon="3.49393">
        <ele>471.54</ele>
        <time>2014-10-18T09:35:47Z</time>
      </trkpt>
      <trkpt lat="46.11701" lon="3.49387">
        <ele>473.24</ele>
        <time>2014-10-18T09:35:52Z</time>
      </trkpt>
      <trkpt lat="46.11683" lon="3.49378">
        <ele>474.04</ele>
        <time>2014-10-18T09:35:57Z</time>
      </trkpt>
      <trkpt lat="46.11664" lon="3.49372">
        <ele>474.54</ele>
        <time>2014-10-18T09:36:02Z</time>
      </trkpt>
      <trkpt lat="46.11645" lon="3.49367">
        <ele>475.52</ele>
        <time>2014-10-18T09:36:07Z</time>
      </trkpt>
      <trkpt lat="46.11626" lon="3.49365">
        <ele>476.93</ele>
        <time>2014-10-18T09:36:12Z</time>
      </trkpt>
      <trkpt lat="46.11606" lon="3.49361">
        <ele>478.41</ele>
        <time>2014-10-18T09:36:17Z</time>
      </trkpt>
      <trkpt lat="46.11585" lon="3.49361">
        <ele>479.05</ele>
        <time>2014-10-18T09:36:22Z</time>
      </trkpt>
      <trkpt lat="46.11565" lon="3.49355">
        <ele>478.66</ele>
        <time>2014-10-18T09:36:27Z</time>
      </trkpt>
      <trkpt lat="46.11546" lon="3.49352">
        <ele>477.3</ele>
        <time>2014-10-18T09:36:33Z</time>
      </trkpt>
      <trkpt lat="46.11528" lon="3.49363">
        <ele>475.9</ele>
        <time>2014-10-18T09:36:36Z</time>
      </trkpt>
      <trkpt lat="46.11519" lon="3.49389">
        <ele>475.56</ele>
        <time>2014-10-18T09:36:41Z</time>
      </trkpt>
      <trkpt lat="46.11497" lon="3.49389">
        <ele>475.55</ele>
        <time>2014-10-18T09:36:50Z</time>
      </trkpt>
      <trkpt lat="46.11472" lon="3.4938">
        <ele>474.55</ele>
        <time>2014-10-18T09:37:31Z</time>
      </trkpt>
      <trkpt lat="46.11448" lon="3.49387">
        <ele>473.56</ele>
        <time>2014-10-18T09:37:41Z</time>
      </trkpt>
      <trkpt lat="46.1143" lon="3.49387">
        <ele>472.58</ele>
        <time>2014-10-18T09:37:47Z</time>
      </trkpt>
      <trkpt lat="46.11411" lon="3.4938">
        <ele>472.55</ele>
        <time>2014-10-18T09:37:52Z</time>
      </trkpt>
      <trkpt lat="46.11394" lon="3.49367">
        <ele>471.57</ele>
        <time>2014-10-18T09:37:58Z</time>
      </trkpt>
      <trkpt lat="46.11376" lon="3.49352">
        <ele>468.55</ele>
        <time>2014-10-18T09:38:03Z</time>
      </trkpt>
      <trkpt lat="46.11362" lon="3.49335">
        <ele>465.93</ele>
        <time>2014-10-18T09:38:07Z</time>
      </trkpt>
      <trkpt lat="46.1135" lon="3.49312">
        <ele>465.56</ele>
        <time>2014-10-18T09:38:13Z</time>
      </trkpt>
      <trkpt lat="46.11342" lon="3.49288">
        <ele>464.18</ele>
        <time>2014-10-18T09:38:17Z</time>
      </trkpt>
      <trkpt lat="46.11333" lon="3.49262">
        <ele>461.9</ele>
        <time>2014-10-18T09:38:21Z</time>
      </trkpt>
      <trkpt lat="46.11322" lon="3.49241">
        <ele>460.14</ele>
        <time>2014-10-18T09:38:25Z</time>
      </trkpt>
      <trkpt lat="46.11315" lon="3.49213">
        <ele>458.15</ele>
        <time>2014-10-18T09:38:29Z</time>
      </trkpt>
      <trkpt lat="46.11312" lon="3.49187">
        <ele>456.88</ele>
        <time>2014-10-18T09:38:32Z</time>
      </trkpt>
      <trkpt lat="46.11303" lon="3.49155">
        <ele>455.14</ele>
        <time>2014-10-18T09:38:36Z</time>
      </trkpt>
      <trkpt lat="46.11292" lon="3.49129">
        <ele>453.71</ele>
        <time>2014-10-18T09:38:40Z</time>
      </trkpt>
      <trkpt lat="46.11282" lon="3.49106">
        <ele>452.62</ele>
        <time>2014-10-18T09:38:47Z</time>
      </trkpt>
      <trkpt lat="46.11275" lon="3.49076">
        <ele>449.68</ele>
        <time>2014-10-18T09:39:23Z</time>
      </trkpt>
      <trkpt lat="46.11268" lon="3.49043">
        <ele>445.19</ele>
        <time>2014-10-18T09:39:27Z</time>
      </trkpt>
      <trkpt lat="46.11258" lon="3.49015">
        <ele>442.03</ele>
        <time>2014-10-18T09:39:31Z</time>
      </trkpt>
      <trkpt lat="46.11248" lon="3.48988">
        <ele>439.9</ele>
        <time>2014-10-18T09:39:35Z</time>
      </trkpt>
      <trkpt lat="46.11243" lon="3.4896">
        <ele>438.7</ele>
        <time>2014-10-18T09:39:39Z</time>
      </trkpt>
      <trkpt lat="46.11237" lon="3.48934">
        <ele>439.07</ele>
        <time>2014-10-18T09:39:42Z</time>
      </trkpt>
      <trkpt lat="46.1123" lon="3.48906">
        <ele>439.49</ele>
        <time>2014-10-18T09:39:45Z</time>
      </trkpt>
      <trkpt lat="46.11226" lon="3.48876">
        <ele>438.17</ele>
        <time>2014-10-18T09:39:48Z</time>
      </trkpt>
      <trkpt lat="46.11223" lon="3.48844">
        <ele>436.38</ele>
        <time>2014-10-18T09:39:51Z</time>
      </trkpt>
      <trkpt lat="46.11219" lon="3.48814">
        <ele>434.28</ele>
        <time>2014-10-18T09:39:54Z</time>
      </trkpt>
      <trkpt lat="46.11215" lon="3.48788">
        <ele>434.52</ele>
        <time>2014-10-18T09:39:57Z</time>
      </trkpt>
      <trkpt lat="46.11212" lon="3.48762">
        <ele>433.17</ele>
        <time>2014-10-18T09:40:00Z</time>
      </trkpt>
      <trkpt lat="46.11207" lon="3.4873">
        <ele>430.47</ele>
        <time>2014-10-18T09:40:04Z</time>
      </trkpt>
      <trkpt lat="46.112" lon="3.48702">
        <ele>427.05</ele>
        <time>2014-10-18T09:40:08Z</time>
      </trkpt>
      <trkpt lat="46.11187" lon="3.48679">
        <ele>426.58</ele>
        <time>2014-10-18T09:40:12Z</time>
      </trkpt>
      <trkpt lat="46.11174" lon="3.48659">
        <ele>424.43</ele>
        <time>2014-10-18T09:40:15Z</time>
      </trkpt>
      <trkpt lat="46.1116" lon="3.48638">
        <ele>421.54</ele>
        <time>2014-10-18T09:40:18Z</time>
      </trkpt>
      <trkpt lat="46.11149" lon="3.4861">
        <ele>417.93</ele>
        <time>2014-10-18T09:40:22Z</time>
      </trkpt>
      <trkpt lat="46.11137" lon="3.48582">
        <ele>413.58</ele>
        <time>2014-10-18T09:40:26Z</time>
      </trkpt>
      <trkpt lat="46.11129" lon="3.48558">
        <ele>411.93</ele>
        <time>2014-10-18T09:40:29Z</time>
      </trkpt>
      <trkpt lat="46.11123" lon="3.48533">
        <ele>409.48</ele>
        <time>2014-10-18T09:40:32Z</time>
      </trkpt>
      <trkpt lat="46.11107" lon="3.4852">
        <ele>404.99</ele>
        <time>2014-10-18T09:40:37Z</time>
      </trkpt>
      <trkpt lat="46.11099" lon="3.48543">
        <ele>402.27</ele>
        <time>2014-10-18T09:40:41Z</time>
      </trkpt>
      <trkpt lat="46.11093" lon="3.48571">
        <ele>400.16</ele>
        <time>2014-10-18T09:40:45Z</time>
      </trkpt>
      <trkpt lat="46.11089" lon="3.48601">
        <ele>399.59</ele>
        <time>2014-10-18T09:40:49Z</time>
      </trkpt>
      <trkpt lat="46.11083" lon="3.48629">
        <ele>398.18</ele>
        <time>2014-10-18T09:40:52Z</time>
      </trkpt>
      <trkpt lat="46.11075" lon="3.48653">
        <ele>397.63</ele>
        <time>2014-10-18T09:40:55Z</time>
      </trkpt>
      <trkpt lat="46.11066" lon="3.48676">
        <ele>396.69</ele>
        <time>2014-10-18T09:40:58Z</time>
      </trkpt>
      <trkpt lat="46.11056" lon="3.48702">
        <ele>395.69</ele>
        <time>2014-10-18T09:41:02Z</time>
      </trkpt>
      <trkpt lat="46.11049" lon="3.4873">
        <ele>393</ele>
        <time>2014-10-18T09:41:06Z</time>
      </trkpt>
      <trkpt lat="46.11047" lon="3.48764">
        <ele>391.14</ele>
        <time>2014-10-18T09:41:10Z</time>
      </trkpt>
      <trkpt lat="46.11043" lon="3.48792">
        <ele>389.38</ele>
        <time>2014-10-18T09:41:13Z</time>
      </trkpt>
      <trkpt lat="46.1104" lon="3.4882">
        <ele>385.16</ele>
        <time>2014-10-18T09:41:16Z</time>
      </trkpt>
      <trkpt lat="46.11037" lon="3.48846">
        <ele>382.38</ele>
        <time>2014-10-18T09:41:19Z</time>
      </trkpt>
      <trkpt lat="46.11033" lon="3.48876">
        <ele>381.6</ele>
        <time>2014-10-18T09:41:23Z</time>
      </trkpt>
      <trkpt lat="46.11016" lon="3.48897">
        <ele>378.84</ele>
        <time>2014-10-18T09:41:28Z</time>
      </trkpt>
      <trkpt lat="46.10996" lon="3.48906">
        <ele>374.71</ele>
        <time>2014-10-18T09:41:31Z</time>
      </trkpt>
      <trkpt lat="46.10973" lon="3.48917">
        <ele>369.2</ele>
        <time>2014-10-18T09:41:34Z</time>
      </trkpt>
      <trkpt lat="46.10953" lon="3.48917">
        <ele>365.96</ele>
        <time>2014-10-18T09:41:36Z</time>
      </trkpt>
      <trkpt lat="46.10929" lon="3.48927">
        <ele>362.98</ele>
        <time>2014-10-18T09:41:39Z</time>
      </trkpt>
      <trkpt lat="46.10915" lon="3.48945">
        <ele>360.66</ele>
        <time>2014-10-18T09:41:41Z</time>
      </trkpt>
      <trkpt lat="46.10901" lon="3.48966">
        <ele>357.44</ele>
        <time>2014-10-18T09:41:44Z</time>
      </trkpt>
      <trkpt lat="46.10892" lon="3.48992">
        <ele>355.86</ele>
        <time>2014-10-18T09:41:48Z</time>
      </trkpt>
      <trkpt lat="46.10885" lon="3.49015">
        <ele>355.06</ele>
        <time>2014-10-18T09:41:53Z</time>
      </trkpt>
      <trkpt lat="46.10876" lon="3.49041">
        <ele>353.69</ele>
        <time>2014-10-18T09:41:59Z</time>
      </trkpt>
      <trkpt lat="46.10857" lon="3.49063">
        <ele>351.62</ele>
        <time>2014-10-18T09:42:07Z</time>
      </trkpt>
      <trkpt lat="46.10837" lon="3.49082">
        <ele>350.08</ele>
        <time>2014-10-18T09:42:15Z</time>
      </trkpt>
      <trkpt lat="46.10824" lon="3.49103">
        <ele>348.1</ele>
        <time>2014-10-18T09:42:20Z</time>
      </trkpt>
      <trkpt lat="46.10811" lon="3.49123">
        <ele>346.69</ele>
        <time>2014-10-18T09:42:26Z</time>
      </trkpt>
      <trkpt lat="46.10795" lon="3.49144">
        <ele>345.12</ele>
        <time>2014-10-18T09:42:31Z</time>
      </trkpt>
      <trkpt lat="46.10778" lon="3.49166">
        <ele>343.84</ele>
        <time>2014-10-18T09:42:35Z</time>
      </trkpt>
      <trkpt lat="46.10765" lon="3.49183">
        <ele>342.7</ele>
        <time>2014-10-18T09:42:39Z</time>
      </trkpt>
      <trkpt lat="46.10748" lon="3.49206">
        <ele>341.69</ele>
        <time>2014-10-18T09:42:43Z</time>
      </trkpt>
      <trkpt lat="46.10733" lon="3.4923">
        <ele>336.44</ele>
        <time>2014-10-18T09:42:47Z</time>
      </trkpt>
      <trkpt lat="46.10718" lon="3.49254">
        <ele>331.61</ele>
        <time>2014-10-18T09:42:51Z</time>
      </trkpt>
      <trkpt lat="46.10703" lon="3.49277">
        <ele>329.24</ele>
        <time>2014-10-18T09:42:55Z</time>
      </trkpt>
      <trkpt lat="46.10689" lon="3.49303">
        <ele>325.6</ele>
        <time>2014-10-18T09:42:59Z</time>
      </trkpt>
      <trkpt lat="46.10677" lon="3.49324">
        <ele>322.43</ele>
        <time>2014-10-18T09:43:03Z</time>
      </trkpt>
      <trkpt lat="46.10665" lon="3.49346">
        <ele>320.73</ele>
        <time>2014-10-18T09:43:07Z</time>
      </trkpt>
      <trkpt lat="46.10651" lon="3.49367">
        <ele>320.56</ele>
        <time>2014-10-18T09:43:12Z</time>
      </trkpt>
      <trkpt lat="46.1064" lon="3.49391">
        <ele>319.68</ele>
        <time>2014-10-18T09:43:16Z</time>
      </trkpt>
      <trkpt lat="46.10629" lon="3.49412">
        <ele>317.25</ele>
        <time>2014-10-18T09:43:20Z</time>
      </trkpt>
      <trkpt lat="46.10616" lon="3.49438">
        <ele>313.29</ele>
        <time>2014-10-18T09:43:25Z</time>
      </trkpt>
      <trkpt lat="46.10604" lon="3.49462">
        <ele>310.29</ele>
        <time>2014-10-18T09:43:29Z</time>
      </trkpt>
      <trkpt lat="46.10591" lon="3.49488">
        <ele>306.54</ele>
        <time>2014-10-18T09:43:33Z</time>
      </trkpt>
      <trkpt lat="46.10579" lon="3.49509">
        <ele>303.55</ele>
        <time>2014-10-18T09:43:36Z</time>
      </trkpt>
      <trkpt lat="46.10568" lon="3.4953">
        <ele>301.93</ele>
        <time>2014-10-18T09:43:39Z</time>
      </trkpt>
      <trkpt lat="46.10554" lon="3.49554">
        <ele>301.58</ele>
        <time>2014-10-18T09:43:43Z</time>
      </trkpt>
      <trkpt lat="46.10541" lon="3.4958">
        <ele>301.55</ele>
        <time>2014-10-18T09:43:47Z</time>
      </trkpt>
      <trkpt lat="46.10528" lon="3.49603">
        <ele>302.93</ele>
        <time>2014-10-18T09:43:51Z</time>
      </trkpt>
      <trkpt lat="46.10516" lon="3.49625">
        <ele>304.01</ele>
        <time>2014-10-18T09:43:55Z</time>
      </trkpt>
      <trkpt lat="46.10504" lon="3.49646">
        <ele>304.52</ele>
        <time>2014-10-18T09:43:59Z</time>
      </trkpt>
      <trkpt lat="46.1049" lon="3.49668">
        <ele>305.49</ele>
        <time>2014-10-18T09:44:03Z</time>
      </trkpt>
      <trkpt lat="46.10475" lon="3.49691">
        <ele>305.55</ele>
        <time>2014-10-18T09:44:07Z</time>
      </trkpt>
      <trkpt lat="46.10458" lon="3.49715">
        <ele>303.87</ele>
        <time>2014-10-18T09:44:11Z</time>
      </trkpt>
      <trkpt lat="46.10443" lon="3.49739">
        <ele>302.14</ele>
        <time>2014-10-18T09:44:15Z</time>
      </trkpt>
      <trkpt lat="46.1043" lon="3.49762">
        <ele>301.59</ele>
        <time>2014-10-18T09:44:19Z</time>
      </trkpt>
      <trkpt lat="46.10417" lon="3.49786">
        <ele>300.81</ele>
        <time>2014-10-18T09:44:23Z</time>
      </trkpt>
      <trkpt lat="46.10406" lon="3.49812">
        <ele>300.57</ele>
        <time>2014-10-18T09:44:27Z</time>
      </trkpt>
      <trkpt lat="46.10394" lon="3.49837">
        <ele>300.05</ele>
        <time>2014-10-18T09:44:31Z</time>
      </trkpt>
      <trkpt lat="46.10385" lon="3.49863">
        <ele>299.58</ele>
        <time>2014-10-18T09:44:35Z</time>
      </trkpt>
      <trkpt lat="46.10374" lon="3.49889">
        <ele>298.68</ele>
        <time>2014-10-18T09:44:39Z</time>
      </trkpt>
      <trkpt lat="46.10364" lon="3.49912">
        <ele>298.56</ele>
        <time>2014-10-18T09:44:43Z</time>
      </trkpt>
      <trkpt lat="46.10351" lon="3.49934">
        <ele>299.3</ele>
        <time>2014-10-18T09:44:47Z</time>
      </trkpt>
      <trkpt lat="46.1034" lon="3.49955">
        <ele>299.04</ele>
        <time>2014-10-18T09:44:51Z</time>
      </trkpt>
      <trkpt lat="46.10329" lon="3.49979">
        <ele>297.33</ele>
        <time>2014-10-18T09:44:55Z</time>
      </trkpt>
      <trkpt lat="46.10318" lon="3.50005">
        <ele>294.79</ele>
        <time>2014-10-18T09:44:59Z</time>
      </trkpt>
      <trkpt lat="46.10306" lon="3.50026">
        <ele>294.57</ele>
        <time>2014-10-18T09:45:03Z</time>
      </trkpt>
      <trkpt lat="46.10295" lon="3.50054">
        <ele>294.05</ele>
        <time>2014-10-18T09:45:08Z</time>
      </trkpt>
      <trkpt lat="46.10285" lon="3.5008">
        <ele>292.82</ele>
        <time>2014-10-18T09:45:13Z</time>
      </trkpt>
      <trkpt lat="46.10276" lon="3.50103">
        <ele>293.51</ele>
        <time>2014-10-18T09:45:17Z</time>
      </trkpt>
      <trkpt lat="46.10268" lon="3.50131">
        <ele>291.74</ele>
        <time>2014-10-18T09:45:21Z</time>
      </trkpt>
      <trkpt lat="46.10263" lon="3.50166">
        <ele>288.5</ele>
        <time>2014-10-18T09:45:25Z</time>
      </trkpt>
      <trkpt lat="46.1026" lon="3.50198">
        <ele>286.74</ele>
        <time>2014-10-18T09:45:29Z</time>
      </trkpt>
      <trkpt lat="46.10258" lon="3.50226">
        <ele>285.7</ele>
        <time>2014-10-18T09:45:32Z</time>
      </trkpt>
      <trkpt lat="46.10255" lon="3.50251">
        <ele>285.7</ele>
        <time>2014-10-18T09:45:35Z</time>
      </trkpt>
      <trkpt lat="46.10253" lon="3.50286">
        <ele>292.12</ele>
        <time>2014-10-18T09:45:39Z</time>
      </trkpt>
      <trkpt lat="46.1025" lon="3.50316">
        <ele>297.46</ele>
        <time>2014-10-18T09:45:43Z</time>
      </trkpt>
      <trkpt lat="46.10247" lon="3.50344">
        <ele>300.17</ele>
        <time>2014-10-18T09:45:47Z</time>
      </trkpt>
      <trkpt lat="46.10243" lon="3.50372">
        <ele>299.59</ele>
        <time>2014-10-18T09:45:51Z</time>
      </trkpt>
      <trkpt lat="46.10238" lon="3.50399">
        <ele>300.43</ele>
        <time>2014-10-18T09:45:55Z</time>
      </trkpt>
      <trkpt lat="46.1023" lon="3.50427">
        <ele>301.3</ele>
        <time>2014-10-18T09:45:59Z</time>
      </trkpt>
      <trkpt lat="46.10223" lon="3.50453">
        <ele>301.04</ele>
        <time>2014-10-18T09:46:03Z</time>
      </trkpt>
      <trkpt lat="46.10217" lon="3.50481">
        <ele>299.71</ele>
        <time>2014-10-18T09:46:07Z</time>
      </trkpt>
      <trkpt lat="46.10212" lon="3.50513">
        <ele>298.69</ele>
        <time>2014-10-18T09:46:11Z</time>
      </trkpt>
      <trkpt lat="46.10209" lon="3.50545">
        <ele>298.56</ele>
        <time>2014-10-18T09:46:15Z</time>
      </trkpt>
      <trkpt lat="46.10206" lon="3.50578">
        <ele>300.18</ele>
        <time>2014-10-18T09:46:19Z</time>
      </trkpt>
      <trkpt lat="46.10203" lon="3.50612">
        <ele>304.53</ele>
        <time>2014-10-18T09:46:23Z</time>
      </trkpt>
      <trkpt lat="46.102" lon="3.50644">
        <ele>308.55</ele>
        <time>2014-10-18T09:46:27Z</time>
      </trkpt>
      <trkpt lat="46.10197" lon="3.50674">
        <ele>311.18</ele>
        <time>2014-10-18T09:46:31Z</time>
      </trkpt>
      <trkpt lat="46.10194" lon="3.50706">
        <ele>312.47</ele>
        <time>2014-10-18T09:46:35Z</time>
      </trkpt>
      <trkpt lat="46.10193" lon="3.50741">
        <ele>311.8</ele>
        <time>2014-10-18T09:46:39Z</time>
      </trkpt>
      <trkpt lat="46.10192" lon="3.50775">
        <ele>309.38</ele>
        <time>2014-10-18T09:46:43Z</time>
      </trkpt>
      <trkpt lat="46.10194" lon="3.50807">
        <ele>306.04</ele>
        <time>2014-10-18T09:46:47Z</time>
      </trkpt>
      <trkpt lat="46.102" lon="3.50837">
        <ele>304.15</ele>
        <time>2014-10-18T09:46:51Z</time>
      </trkpt>
      <trkpt lat="46.10204" lon="3.50867">
        <ele>302.72</ele>
        <time>2014-10-18T09:46:55Z</time>
      </trkpt>
      <trkpt lat="46.10207" lon="3.50895">
        <ele>302.56</ele>
        <time>2014-10-18T09:46:59Z</time>
      </trkpt>
      <trkpt lat="46.10224" lon="3.50917">
        <ele>303.3</ele>
        <time>2014-10-18T09:47:03Z</time>
      </trkpt>
      <trkpt lat="46.10239" lon="3.50936">
        <ele>307.1</ele>
        <time>2014-10-18T09:47:07Z</time>
      </trkpt>
      <trkpt lat="46.10254" lon="3.50957">
        <ele>313.04</ele>
        <time>2014-10-18T09:47:12Z</time>
      </trkpt>
      <trkpt lat="46.10268" lon="3.50979">
        <ele>317.6</ele>
        <time>2014-10-18T09:47:17Z</time>
      </trkpt>
      <trkpt lat="46.1028" lon="3.51">
        <ele>322.05</ele>
        <time>2014-10-18T09:47:22Z</time>
      </trkpt>
      <trkpt lat="46.1029" lon="3.51024">
        <ele>322.96</ele>
        <time>2014-10-18T09:47:26Z</time>
      </trkpt>
      <trkpt lat="46.10295" lon="3.51054">
        <ele>320.95</ele>
        <time>2014-10-18T09:47:30Z</time>
      </trkpt>
      <trkpt lat="46.10301" lon="3.5108">
        <ele>319.64</ele>
        <time>2014-10-18T09:47:34Z</time>
      </trkpt>
      <trkpt lat="46.10312" lon="3.51105">
        <ele>317.84</ele>
        <time>2014-10-18T09:47:39Z</time>
      </trkpt>
      <trkpt lat="46.10317" lon="3.51131">
        <ele>312.11</ele>
        <time>2014-10-18T09:47:48Z</time>
      </trkpt>
      <trkpt lat="46.10317" lon="3.51166">
        <ele>311.55</ele>
        <time>2014-10-18T09:47:58Z</time>
      </trkpt>
      <trkpt lat="46.10313" lon="3.51193">
        <ele>311.55</ele>
        <time>2014-10-18T09:48:03Z</time>
      </trkpt>
      <trkpt lat="46.10305" lon="3.51217">
        <ele>312.49</ele>
        <time>2014-10-18T09:48:09Z</time>
      </trkpt>
      <trkpt lat="46.10289" lon="3.51236">
        <ele>313.99</ele>
        <time>2014-10-18T09:48:15Z</time>
      </trkpt>
      <trkpt lat="46.10272" lon="3.51256">
        <ele>315.05</ele>
        <time>2014-10-18T09:48:22Z</time>
      </trkpt>
      <trkpt lat="46.10255" lon="3.51273">
        <ele>317.02</ele>
        <time>2014-10-18T09:48:30Z</time>
      </trkpt>
      <trkpt lat="46.10238" lon="3.51292">
        <ele>319.02</ele>
        <time>2014-10-18T09:48:38Z</time>
      </trkpt>
      <trkpt lat="46.10227" lon="3.51318">
        <ele>321.52</ele>
        <time>2014-10-18T09:48:46Z</time>
      </trkpt>
      <trkpt lat="46.10223" lon="3.51359">
        <ele>325.52</ele>
        <time>2014-10-18T09:48:58Z</time>
      </trkpt>
      <trkpt lat="46.10221" lon="3.51389">
        <ele>328.52</ele>
        <time>2014-10-18T09:49:06Z</time>
      </trkpt>
      <trkpt lat="46.10197" lon="3.51404">
        <ele>333.05</ele>
        <time>2014-10-18T09:49:25Z</time>
      </trkpt>
      <trkpt lat="46.10178" lon="3.51402">
        <ele>334.54</ele>
        <time>2014-10-18T09:49:36Z</time>
      </trkpt>
      <trkpt lat="46.10158" lon="3.51404">
        <ele>335.52</ele>
        <time>2014-10-18T09:49:46Z</time>
      </trkpt>
      <trkpt lat="46.1015" lon="3.51434">
        <ele>336.52</ele>
        <time>2014-10-18T09:49:57Z</time>
      </trkpt>
      <trkpt lat="46.10165" lon="3.51449">
        <ele>340.02</ele>
        <time>2014-10-18T09:50:13Z</time>
      </trkpt>
      <trkpt lat="46.10185" lon="3.5147">
        <ele>343.55</ele>
        <time>2014-10-18T09:50:36Z</time>
      </trkpt>
      <trkpt lat="46.10188" lon="3.51498">
        <ele>345.54</ele>
        <time>2014-10-18T09:50:50Z</time>
      </trkpt>
      <trkpt lat="46.10192" lon="3.51524">
        <ele>347.49</ele>
        <time>2014-10-18T09:51:00Z</time>
      </trkpt>
      <trkpt lat="46.10196" lon="3.5155">
        <ele>349.49</ele>
        <time>2014-10-18T09:51:12Z</time>
      </trkpt>
      <trkpt lat="46.10209" lon="3.51571">
        <ele>350.55</ele>
        <time>2014-10-18T09:51:23Z</time>
      </trkpt>
      <trkpt lat="46.10221" lon="3.51593">
        <ele>352.52</ele>
        <time>2014-10-18T09:51:35Z</time>
      </trkpt>
      <trkpt lat="46.10231" lon="3.51614">
        <ele>354.49</ele>
        <time>2014-10-18T09:51:48Z</time>
      </trkpt>
      <trkpt lat="46.10248" lon="3.51625">
        <ele>357.42</ele>
        <time>2014-10-18T09:51:59Z</time>
      </trkpt>
      <trkpt lat="46.10261" lon="3.51605">
        <ele>361.55</ele>
        <time>2014-10-18T09:52:30Z</time>
      </trkpt>
      <trkpt lat="46.10269" lon="3.5158">
        <ele>365.42</ele>
        <time>2014-10-18T09:52:46Z</time>
      </trkpt>
      <trkpt lat="46.10275" lon="3.51554">
        <ele>370.98</ele>
        <time>2014-10-18T09:53:01Z</time>
      </trkpt>
      <trkpt lat="46.10283" lon="3.5153">
        <ele>373.99</ele>
        <time>2014-10-18T09:53:12Z</time>
      </trkpt>
      <trkpt lat="46.10294" lon="3.51507">
        <ele>376.29</ele>
        <time>2014-10-18T09:53:23Z</time>
      </trkpt>
      <trkpt lat="46.10306" lon="3.51485">
        <ele>377.54</ele>
        <time>2014-10-18T09:53:31Z</time>
      </trkpt>
      <trkpt lat="46.1032" lon="3.51466">
        <ele>376.58</ele>
        <time>2014-10-18T09:53:42Z</time>
      </trkpt>
      <trkpt lat="46.10333" lon="3.51444">
        <ele>376.55</ele>
        <time>2014-10-18T09:53:55Z</time>
      </trkpt>
      <trkpt lat="46.10347" lon="3.51425">
        <ele>376.55</ele>
        <time>2014-10-18T09:54:06Z</time>
      </trkpt>
      <trkpt lat="46.10359" lon="3.51404">
        <ele>376.74</ele>
        <time>2014-10-18T09:54:16Z</time>
      </trkpt>
      <trkpt lat="46.10366" lon="3.51427">
        <ele>377.55</ele>
        <time>2014-10-18T09:54:32Z</time>
      </trkpt>
      <trkpt lat="46.10366" lon="3.51455">
        <ele>378.49</ele>
        <time>2014-10-18T09:54:46Z</time>
      </trkpt>
      <trkpt lat="46.1037" lon="3.51481">
        <ele>379.3</ele>
        <time>2014-10-18T09:54:59Z</time>
      </trkpt>
      <trkpt lat="46.10373" lon="3.51507">
        <ele>379.55</ele>
        <time>2014-10-18T09:55:12Z</time>
      </trkpt>
      <trkpt lat="46.1037" lon="3.51535">
        <ele>381.54</ele>
        <time>2014-10-18T09:55:25Z</time>
      </trkpt>
      <trkpt lat="46.10368" lon="3.51562">
        <ele>382.55</ele>
        <time>2014-10-18T09:55:36Z</time>
      </trkpt>
      <trkpt lat="46.10369" lon="3.5159">
        <ele>382.55</ele>
        <time>2014-10-18T09:55:50Z</time>
      </trkpt>
      <trkpt lat="46.10371" lon="3.51618">
        <ele>383.55</ele>
        <time>2014-10-18T09:56:06Z</time>
      </trkpt>
      <trkpt lat="46.10376" lon="3.51644">
        <ele>384.3</ele>
        <time>2014-10-18T09:56:17Z</time>
      </trkpt>
      <trkpt lat="46.10387" lon="3.51665">
        <ele>385.43</ele>
        <time>2014-10-18T09:56:28Z</time>
      </trkpt>
      <trkpt lat="46.10397" lon="3.51689">
        <ele>387.52</ele>
        <time>2014-10-18T09:56:41Z</time>
      </trkpt>
      <trkpt lat="46.10406" lon="3.51713">
        <ele>389.52</ele>
        <time>2014-10-18T09:56:53Z</time>
      </trkpt>
      <trkpt lat="46.10417" lon="3.51734">
        <ele>391.52</ele>
        <time>2014-10-18T09:57:05Z</time>
      </trkpt>
      <trkpt lat="46.10423" lon="3.5176">
        <ele>396.26</ele>
        <time>2014-10-18T09:57:16Z</time>
      </trkpt>
      <trkpt lat="46.10431" lon="3.51784">
        <ele>400.91</ele>
        <time>2014-10-18T09:57:27Z</time>
      </trkpt>
      <trkpt lat="46.1044" lon="3.51807">
        <ele>405.41</ele>
        <time>2014-10-18T09:57:40Z</time>
      </trkpt>
      <trkpt lat="46.10451" lon="3.51829">
        <ele>409.98</ele>
        <time>2014-10-18T09:57:52Z</time>
      </trkpt>
      <trkpt lat="46.10465" lon="3.51848">
        <ele>414.27</ele>
        <time>2014-10-18T09:58:04Z</time>
      </trkpt>
      <trkpt lat="46.10478" lon="3.51867">
        <ele>418.02</ele>
        <time>2014-10-18T09:58:15Z</time>
      </trkpt>
      <trkpt lat="46.10491" lon="3.51889">
        <ele>420.42</ele>
        <time>2014-10-18T09:58:24Z</time>
      </trkpt>
      <trkpt lat="46.10506" lon="3.51908">
        <ele>422.42</ele>
        <time>2014-10-18T09:58:33Z</time>
      </trkpt>
      <trkpt lat="46.1052" lon="3.51927">
        <ele>424.3</ele>
        <time>2014-10-18T09:58:43Z</time>
      </trkpt>
      <trkpt lat="46.10521" lon="3.51957">
        <ele>425.54</ele>
        <time>2014-10-18T09:58:53Z</time>
      </trkpt>
      <trkpt lat="46.10515" lon="3.51985">
        <ele>426.52</ele>
        <time>2014-10-18T09:58:59Z</time>
      </trkpt>
      <trkpt lat="46.10508" lon="3.52011">
        <ele>427.3</ele>
        <time>2014-10-18T09:59:04Z</time>
      </trkpt>
      <trkpt lat="46.10503" lon="3.52037">
        <ele>427.55</ele>
        <time>2014-10-18T09:59:09Z</time>
      </trkpt>
      <trkpt lat="46.10497" lon="3.52062">
        <ele>428.43</ele>
        <time>2014-10-18T09:59:14Z</time>
      </trkpt>
      <trkpt lat="46.10493" lon="3.52088">
        <ele>428.55</ele>
        <time>2014-10-18T09:59:19Z</time>
      </trkpt>
      <trkpt lat="46.10489" lon="3.52114">
        <ele>429.52</ele>
        <time>2014-10-18T09:59:24Z</time>
      </trkpt>
      <trkpt lat="46.10483" lon="3.5214">
        <ele>430.05</ele>
        <time>2014-10-18T09:59:29Z</time>
      </trkpt>
      <trkpt lat="46.10478" lon="3.52168">
        <ele>430.54</ele>
        <time>2014-10-18T09:59:34Z</time>
      </trkpt>
      <trkpt lat="46.10472" lon="3.52193">
        <ele>430.55</ele>
        <time>2014-10-18T09:59:39Z</time>
      </trkpt>
      <trkpt lat="46.10467" lon="3.52221">
        <ele>431.49</ele>
        <time>2014-10-18T09:59:44Z</time>
      </trkpt>
      <trkpt lat="46.10462" lon="3.52251">
        <ele>432.49</ele>
        <time>2014-10-18T09:59:50Z</time>
      </trkpt>
      <trkpt lat="46.10459" lon="3.52277">
        <ele>432.55</ele>
        <time>2014-10-18T09:59:56Z</time>
      </trkpt>
      <trkpt lat="46.10454" lon="3.52305">
        <ele>433.49</ele>
        <time>2014-10-18T10:00:02Z</time>
      </trkpt>
      <trkpt lat="46.10449" lon="3.52333">
        <ele>434.05</ele>
        <time>2014-10-18T10:00:08Z</time>
      </trkpt>
      <trkpt lat="46.10443" lon="3.52361">
        <ele>434.55</ele>
        <time>2014-10-18T10:00:14Z</time>
      </trkpt>
      <trkpt lat="46.10437" lon="3.52386">
        <ele>435.52</ele>
        <time>2014-10-18T10:00:19Z</time>
      </trkpt>
      <trkpt lat="46.10432" lon="3.52417">
        <ele>437.02</ele>
        <time>2014-10-18T10:00:25Z</time>
      </trkpt>
      <trkpt lat="46.10425" lon="3.52444">
        <ele>438.29</ele>
        <time>2014-10-18T10:00:31Z</time>
      </trkpt>
      <trkpt lat="46.10421" lon="3.52472">
        <ele>439.3</ele>
        <time>2014-10-18T10:00:37Z</time>
      </trkpt>
      <trkpt lat="46.10418" lon="3.52502">
        <ele>441.42</ele>
        <time>2014-10-18T10:00:43Z</time>
      </trkpt>
      <trkpt lat="46.10414" lon="3.52532">
        <ele>446.42</ele>
        <time>2014-10-18T10:00:47Z</time>
      </trkpt>
      <trkpt lat="46.1041" lon="3.52558">
        <ele>448.66</ele>
        <time>2014-10-18T10:00:50Z</time>
      </trkpt>
      <trkpt lat="46.10406" lon="3.52588">
        <ele>449.94</ele>
        <time>2014-10-18T10:00:53Z</time>
      </trkpt>
      <trkpt lat="46.10402" lon="3.5262">
        <ele>450.48</ele>
        <time>2014-10-18T10:00:56Z</time>
      </trkpt>
      <trkpt lat="46.10397" lon="3.52653">
        <ele>450.54</ele>
        <time>2014-10-18T10:00:59Z</time>
      </trkpt>
      <trkpt lat="46.10391" lon="3.52685">
        <ele>450.55</ele>
        <time>2014-10-18T10:01:02Z</time>
      </trkpt>
      <trkpt lat="46.10388" lon="3.52715">
        <ele>451.43</ele>
        <time>2014-10-18T10:01:05Z</time>
      </trkpt>
      <trkpt lat="46.10371" lon="3.52741">
        <ele>450.8</ele>
        <time>2014-10-18T10:01:09Z</time>
      </trkpt>
      <trkpt lat="46.10357" lon="3.52766">
        <ele>449.19</ele>
        <time>2014-10-18T10:01:13Z</time>
      </trkpt>
      <trkpt lat="46.10345" lon="3.52794">
        <ele>446.85</ele>
        <time>2014-10-18T10:01:18Z</time>
      </trkpt>
      <trkpt lat="46.10334" lon="3.52816">
        <ele>445.62</ele>
        <time>2014-10-18T10:01:23Z</time>
      </trkpt>
      <trkpt lat="46.10319" lon="3.52833">
        <ele>445.55</ele>
        <time>2014-10-18T10:01:29Z</time>
      </trkpt>
      <trkpt lat="46.1031" lon="3.52856">
        <ele>445.55</ele>
        <time>2014-10-18T10:01:35Z</time>
      </trkpt>
      <trkpt lat="46.10297" lon="3.52878">
        <ele>445.55</ele>
        <time>2014-10-18T10:01:42Z</time>
      </trkpt>
      <trkpt lat="46.10282" lon="3.52895">
        <ele>445.55</ele>
        <time>2014-10-18T10:01:48Z</time>
      </trkpt>
      <trkpt lat="46.10267" lon="3.5291">
        <ele>446.05</ele>
        <time>2014-10-18T10:01:54Z</time>
      </trkpt>
      <trkpt lat="46.10252" lon="3.52927">
        <ele>446.55</ele>
        <time>2014-10-18T10:02:00Z</time>
      </trkpt>
      <trkpt lat="46.10237" lon="3.52942">
        <ele>447.54</ele>
        <time>2014-10-18T10:02:06Z</time>
      </trkpt>
      <trkpt lat="46.10223" lon="3.52959">
        <ele>448.52</ele>
        <time>2014-10-18T10:02:12Z</time>
      </trkpt>
      <trkpt lat="46.10208" lon="3.52977">
        <ele>449.49</ele>
        <time>2014-10-18T10:02:19Z</time>
      </trkpt>
      <trkpt lat="46.10191" lon="3.52994">
        <ele>450.05</ele>
        <time>2014-10-18T10:02:28Z</time>
      </trkpt>
      <trkpt lat="46.10173" lon="3.53013">
        <ele>450.55</ele>
        <time>2014-10-18T10:02:38Z</time>
      </trkpt>
      <trkpt lat="46.10156" lon="3.5303">
        <ele>451.54</ele>
        <time>2014-10-18T10:02:47Z</time>
      </trkpt>
      <trkpt lat="46.10142" lon="3.53047">
        <ele>451.55</ele>
        <time>2014-10-18T10:02:55Z</time>
      </trkpt>
      <trkpt lat="46.10126" lon="3.5306">
        <ele>451.55</ele>
        <time>2014-10-18T10:03:02Z</time>
      </trkpt>
      <trkpt lat="46.10108" lon="3.53075">
        <ele>452.52</ele>
        <time>2014-10-18T10:03:09Z</time>
      </trkpt>
      <trkpt lat="46.1009" lon="3.53095">
        <ele>454.02</ele>
        <time>2014-10-18T10:03:17Z</time>
      </trkpt>
      <trkpt lat="46.10074" lon="3.53114">
        <ele>455.49</ele>
        <time>2014-10-18T10:03:25Z</time>
      </trkpt>
      <trkpt lat="46.10079" lon="3.53168">
        <ele>457.49</ele>
        <time>2014-10-18T10:03:34Z</time>
      </trkpt>
      <trkpt lat="46.10066" lon="3.53189">
        <ele>457.06</ele>
        <time>2014-10-18T10:03:45Z</time>
      </trkpt>
      <trkpt lat="46.10048" lon="3.53215">
        <ele>460.04</ele>
        <time>2014-10-18T10:03:58Z</time>
      </trkpt>
      <trkpt lat="46.10026" lon="3.53228">
        <ele>462.04</ele>
        <time>2014-10-18T10:04:09Z</time>
      </trkpt>
      <trkpt lat="46.10007" lon="3.53234">
        <ele>464.54</ele>
        <time>2014-10-18T10:04:19Z</time>
      </trkpt>
      <trkpt lat="46.0999" lon="3.53245">
        <ele>467.29</ele>
        <time>2014-10-18T10:04:30Z</time>
      </trkpt>
      <trkpt lat="46.09976" lon="3.53266">
        <ele>468.49</ele>
        <time>2014-10-18T10:04:40Z</time>
      </trkpt>
      <trkpt lat="46.09967" lon="3.5329">
        <ele>469.05</ele>
        <time>2014-10-18T10:04:47Z</time>
      </trkpt>
      <trkpt lat="46.09954" lon="3.53313">
        <ele>470.42</ele>
        <time>2014-10-18T10:04:53Z</time>
      </trkpt>
      <trkpt lat="46.09944" lon="3.53337">
        <ele>472.27</ele>
        <time>2014-10-18T10:04:58Z</time>
      </trkpt>
      <trkpt lat="46.09937" lon="3.53363">
        <ele>476.91</ele>
        <time>2014-10-18T10:05:02Z</time>
      </trkpt>
      <trkpt lat="46.0993" lon="3.53391">
        <ele>480.76</ele>
        <time>2014-10-18T10:05:06Z</time>
      </trkpt>
      <trkpt lat="46.09921" lon="3.53416">
        <ele>481.95</ele>
        <time>2014-10-18T10:05:09Z</time>
      </trkpt>
      <trkpt lat="46.09905" lon="3.53436">
        <ele>482.48</ele>
        <time>2014-10-18T10:05:12Z</time>
      </trkpt>
      <trkpt lat="46.09883" lon="3.53436">
        <ele>482.54</ele>
        <time>2014-10-18T10:05:15Z</time>
      </trkpt>
      <trkpt lat="46.0986" lon="3.53431">
        <ele>482.55</ele>
        <time>2014-10-18T10:05:18Z</time>
      </trkpt>
      <trkpt lat="46.09834" lon="3.53438">
        <ele>482.55</ele>
        <time>2014-10-18T10:05:21Z</time>
      </trkpt>
      <trkpt lat="46.09816" lon="3.53444">
        <ele>482.55</ele>
        <time>2014-10-18T10:05:23Z</time>
      </trkpt>
      <trkpt lat="46.0979" lon="3.53455">
        <ele>482.55</ele>
        <time>2014-10-18T10:05:26Z</time>
      </trkpt>
      <trkpt lat="46.09773" lon="3.53464">
        <ele>482.55</ele>
        <time>2014-10-18T10:05:28Z</time>
      </trkpt>
      <trkpt lat="46.09757" lon="3.53477">
        <ele>481.8</ele>
        <time>2014-10-18T10:05:30Z</time>
      </trkpt>
      <trkpt lat="46.09743" lon="3.53496">
        <ele>481.62</ele>
        <time>2014-10-18T10:05:32Z</time>
      </trkpt>
      <trkpt lat="46.09732" lon="3.53519">
        <ele>480.82</ele>
        <time>2014-10-18T10:05:34Z</time>
      </trkpt>
      <trkpt lat="46.09721" lon="3.53541">
        <ele>480.62</ele>
        <time>2014-10-18T10:05:36Z</time>
      </trkpt>
      <trkpt lat="46.09704" lon="3.53562">
        <ele>480.57</ele>
        <time>2014-10-18T10:05:38Z</time>
      </trkpt>
      <trkpt lat="46.09686" lon="3.53577">
        <ele>480.56</ele>
        <time>2014-10-18T10:05:40Z</time>
      </trkpt>
      <trkpt lat="46.09667" lon="3.5359">
        <ele>480.55</ele>
        <time>2014-10-18T10:05:42Z</time>
      </trkpt>
      <trkpt lat="46.09644" lon="3.53603">
        <ele>481.43</ele>
        <time>2014-10-18T10:05:45Z</time>
      </trkpt>
      <trkpt lat="46.09623" lon="3.53605">
        <ele>479.41</ele>
        <time>2014-10-18T10:05:48Z</time>
      </trkpt>
      <trkpt lat="46.09603" lon="3.53614">
        <ele>475.66</ele>
        <time>2014-10-18T10:05:51Z</time>
      </trkpt>
      <trkpt lat="46.0958" lon="3.53625">
        <ele>471.56</ele>
        <time>2014-10-18T10:05:55Z</time>
      </trkpt>
      <trkpt lat="46.09565" lon="3.53642">
        <ele>468.55</ele>
        <time>2014-10-18T10:05:58Z</time>
      </trkpt>
      <trkpt lat="46.09553" lon="3.53672">
        <ele>465.55</ele>
        <time>2014-10-18T10:06:01Z</time>
      </trkpt>
      <trkpt lat="46.09547" lon="3.53704">
        <ele>463.05</ele>
        <time>2014-10-18T10:06:04Z</time>
      </trkpt>
      <trkpt lat="46.09538" lon="3.53728">
        <ele>461.93</ele>
        <time>2014-10-18T10:06:06Z</time>
      </trkpt>
      <trkpt lat="46.09525" lon="3.53747">
        <ele>462.4</ele>
        <time>2014-10-18T10:06:08Z</time>
      </trkpt>
      <trkpt lat="46.09511" lon="3.53773">
        <ele>462.53</ele>
        <time>2014-10-18T10:06:11Z</time>
      </trkpt>
      <trkpt lat="46.09496" lon="3.53794">
        <ele>462.8</ele>
        <time>2014-10-18T10:06:14Z</time>
      </trkpt>
      <trkpt lat="46.09478" lon="3.53813">
        <ele>463.46</ele>
        <time>2014-10-18T10:06:17Z</time>
      </trkpt>
      <trkpt lat="46.09457" lon="3.53822">
        <ele>462.67</ele>
        <time>2014-10-18T10:06:20Z</time>
      </trkpt>
      <trkpt lat="46.09432" lon="3.5382">
        <ele>461.82</ele>
        <time>2014-10-18T10:06:23Z</time>
      </trkpt>
      <trkpt lat="46.09409" lon="3.53818">
        <ele>460.21</ele>
        <time>2014-10-18T10:06:26Z</time>
      </trkpt>
      <trkpt lat="46.09384" lon="3.53816">
        <ele>457.89</ele>
        <time>2014-10-18T10:06:29Z</time>
      </trkpt>
      <trkpt lat="46.09361" lon="3.53813">
        <ele>451.22</ele>
        <time>2014-10-18T10:06:32Z</time>
      </trkpt>
      <trkpt lat="46.09338" lon="3.53813">
        <ele>444.26</ele>
        <time>2014-10-18T10:06:35Z</time>
      </trkpt>
      <trkpt lat="46.09314" lon="3.53807">
        <ele>437.64</ele>
        <time>2014-10-18T10:06:38Z</time>
      </trkpt>
      <trkpt lat="46.09291" lon="3.53798">
        <ele>430.81</ele>
        <time>2014-10-18T10:06:41Z</time>
      </trkpt>
      <trkpt lat="46.0927" lon="3.53792">
        <ele>425.09</ele>
        <time>2014-10-18T10:06:44Z</time>
      </trkpt>
      <trkpt lat="46.09251" lon="3.5379">
        <ele>421.62</ele>
        <time>2014-10-18T10:06:47Z</time>
      </trkpt>
      <trkpt lat="46.09231" lon="3.53781">
        <ele>418.56</ele>
        <time>2014-10-18T10:06:50Z</time>
      </trkpt>
      <trkpt lat="46.09213" lon="3.53773">
        <ele>415.55</ele>
        <time>2014-10-18T10:06:53Z</time>
      </trkpt>
      <trkpt lat="46.09195" lon="3.53764">
        <ele>412.55</ele>
        <time>2014-10-18T10:06:56Z</time>
      </trkpt>
      <trkpt lat="46.09177" lon="3.53755">
        <ele>410.43</ele>
        <time>2014-10-18T10:06:59Z</time>
      </trkpt>
      <trkpt lat="46.09154" lon="3.53749">
        <ele>408.86</ele>
        <time>2014-10-18T10:07:03Z</time>
      </trkpt>
      <trkpt lat="46.09132" lon="3.53749">
        <ele>408.56</ele>
        <time>2014-10-18T10:07:08Z</time>
      </trkpt>
      <trkpt lat="46.09111" lon="3.53755">
        <ele>408.55</ele>
        <time>2014-10-18T10:07:13Z</time>
      </trkpt>
      <trkpt lat="46.09091" lon="3.5377">
        <ele>407.18</ele>
        <time>2014-10-18T10:07:18Z</time>
      </trkpt>
      <trkpt lat="46.09073" lon="3.53783">
        <ele>405.15</ele>
        <time>2014-10-18T10:07:22Z</time>
      </trkpt>
      <trkpt lat="46.09054" lon="3.53792">
        <ele>404.34</ele>
        <time>2014-10-18T10:07:26Z</time>
      </trkpt>
      <trkpt lat="46.09035" lon="3.53801">
        <ele>401.98</ele>
        <time>2014-10-18T10:07:30Z</time>
      </trkpt>
      <trkpt lat="46.09012" lon="3.53805">
        <ele>399.27</ele>
        <time>2014-10-18T10:07:34Z</time>
      </trkpt>
      <trkpt lat="46.0899" lon="3.53803">
        <ele>398.1</ele>
        <time>2014-10-18T10:07:38Z</time>
      </trkpt>
      <trkpt lat="46.08967" lon="3.53801">
        <ele>395.46</ele>
        <time>2014-10-18T10:07:42Z</time>
      </trkpt>
      <trkpt lat="46.08945" lon="3.53792">
        <ele>391.55</ele>
        <time>2014-10-18T10:07:46Z</time>
      </trkpt>
      <trkpt lat="46.08929" lon="3.53779">
        <ele>389.05</ele>
        <time>2014-10-18T10:07:49Z</time>
      </trkpt>
      <trkpt lat="46.08907" lon="3.53766">
        <ele>385.52</ele>
        <time>2014-10-18T10:07:53Z</time>
      </trkpt>
      <trkpt lat="46.0889" lon="3.53758">
        <ele>382.05</ele>
        <time>2014-10-18T10:07:57Z</time>
      </trkpt>
      <trkpt lat="46.0887" lon="3.53753">
        <ele>380.06</ele>
        <time>2014-10-18T10:08:04Z</time>
      </trkpt>
      <trkpt lat="46.0885" lon="3.53758">
        <ele>379.06</ele>
        <time>2014-10-18T10:08:11Z</time>
      </trkpt>
      <trkpt lat="46.08831" lon="3.53755">
        <ele>378.05</ele>
        <time>2014-10-18T10:08:20Z</time>
      </trkpt>
      <trkpt lat="46.08813" lon="3.53758">
        <ele>375.88</ele>
        <time>2014-10-18T10:08:25Z</time>
      </trkpt>
      <trkpt lat="46.08794" lon="3.53755">
        <ele>372.07</ele>
        <time>2014-10-18T10:08:35Z</time>
      </trkpt>
      <trkpt lat="46.08773" lon="3.53766">
        <ele>368.12</ele>
        <time>2014-10-18T10:08:43Z</time>
      </trkpt>
      <trkpt lat="46.08754" lon="3.53766">
        <ele>365.18</ele>
        <time>2014-10-18T10:08:50Z</time>
      </trkpt>
      <trkpt lat="46.08737" lon="3.53751">
        <ele>363.32</ele>
        <time>2014-10-18T10:08:55Z</time>
      </trkpt>
      <trkpt lat="46.08721" lon="3.53738">
        <ele>359.23</ele>
        <time>2014-10-18T10:08:59Z</time>
      </trkpt>
      <trkpt lat="46.08702" lon="3.5373">
        <ele>358.6</ele>
        <time>2014-10-18T10:09:03Z</time>
      </trkpt>
      <trkpt lat="46.08681" lon="3.5373">
        <ele>356.84</ele>
        <time>2014-10-18T10:09:08Z</time>
      </trkpt>
      <trkpt lat="46.08663" lon="3.53736">
        <ele>355.12</ele>
        <time>2014-10-18T10:09:13Z</time>
      </trkpt>
      <trkpt lat="46.08644" lon="3.53745">
        <ele>353.12</ele>
        <time>2014-10-18T10:09:19Z</time>
      </trkpt>
      <trkpt lat="46.08627" lon="3.53755">
        <ele>350.84</ele>
        <time>2014-10-18T10:09:26Z</time>
      </trkpt>
      <trkpt lat="46.08609" lon="3.53762">
        <ele>348.7</ele>
        <time>2014-10-18T10:09:33Z</time>
      </trkpt>
      <trkpt lat="46.08589" lon="3.53768">
        <ele>346.69</ele>
        <time>2014-10-18T10:09:40Z</time>
      </trkpt>
      <trkpt lat="46.08569" lon="3.53775">
        <ele>344.82</ele>
        <time>2014-10-18T10:09:46Z</time>
      </trkpt>
      <trkpt lat="46.08551" lon="3.53779">
        <ele>343.69</ele>
        <time>2014-10-18T10:09:51Z</time>
      </trkpt>
      <trkpt lat="46.08531" lon="3.53788">
        <ele>342.59</ele>
        <time>2014-10-18T10:09:57Z</time>
      </trkpt>
      <trkpt lat="46.0851" lon="3.53792">
        <ele>340.82</ele>
        <time>2014-10-18T10:10:03Z</time>
      </trkpt>
      <trkpt lat="46.08492" lon="3.53798">
        <ele>339.81</ele>
        <time>2014-10-18T10:10:08Z</time>
      </trkpt>
      <trkpt lat="46.08473" lon="3.53803">
        <ele>339.06</ele>
        <time>2014-10-18T10:10:13Z</time>
      </trkpt>
      <trkpt lat="46.08451" lon="3.53809">
        <ele>338.57</ele>
        <time>2014-10-18T10:10:18Z</time>
      </trkpt>
      <trkpt lat="46.08432" lon="3.53816">
        <ele>337.62</ele>
        <time>2014-10-18T10:10:23Z</time>
      </trkpt>
      <trkpt lat="46.08414" lon="3.5382">
        <ele>336.8</ele>
        <time>2014-10-18T10:10:28Z</time>
      </trkpt>
      <trkpt lat="46.08395" lon="3.53826">
        <ele>336.05</ele>
        <time>2014-10-18T10:10:35Z</time>
      </trkpt>
      <trkpt lat="46.08376" lon="3.53816">
        <ele>335.05</ele>
        <time>2014-10-18T10:10:53Z</time>
      </trkpt>
      <trkpt lat="46.08357" lon="3.53818">
        <ele>335.05</ele>
        <time>2014-10-18T10:11:07Z</time>
      </trkpt>
      <trkpt lat="46.08337" lon="3.53843">
        <ele>337.04</ele>
        <time>2014-10-18T10:11:31Z</time>
      </trkpt>
      <trkpt lat="46.0832" lon="3.53861">
        <ele>339.52</ele>
        <time>2014-10-18T10:11:44Z</time>
      </trkpt>
      <trkpt lat="46.08303" lon="3.53871">
        <ele>342.36</ele>
        <time>2014-10-18T10:11:59Z</time>
      </trkpt>
      <trkpt lat="46.08285" lon="3.53867">
        <ele>347.29</ele>
        <time>2014-10-18T10:12:20Z</time>
      </trkpt>
      <trkpt lat="46.08274" lon="3.53846">
        <ele>350.52</ele>
        <time>2014-10-18T10:12:38Z</time>
      </trkpt>
      <trkpt lat="46.08266" lon="3.53822">
        <ele>353.52</ele>
        <time>2014-10-18T10:12:53Z</time>
      </trkpt>
      <trkpt lat="46.08259" lon="3.53796">
        <ele>358.39</ele>
        <time>2014-10-18T10:13:07Z</time>
      </trkpt>
      <trkpt lat="46.08252" lon="3.5377">
        <ele>362.41</ele>
        <time>2014-10-18T10:13:20Z</time>
      </trkpt>
      <trkpt lat="46.08239" lon="3.53749">
        <ele>366.29</ele>
        <time>2014-10-18T10:13:34Z</time>
      </trkpt>
      <trkpt lat="46.0823" lon="3.53723">
        <ele>369.02</ele>
        <time>2014-10-18T10:13:47Z</time>
      </trkpt>
      <trkpt lat="46.08226" lon="3.53698">
        <ele>370.54</ele>
        <time>2014-10-18T10:13:58Z</time>
      </trkpt>
      <trkpt lat="46.08219" lon="3.53674">
        <ele>371.52</ele>
        <time>2014-10-18T10:14:12Z</time>
      </trkpt>
      <trkpt lat="46.08212" lon="3.53648">
        <ele>371.55</ele>
        <time>2014-10-18T10:14:27Z</time>
      </trkpt>
      <trkpt lat="46.08202" lon="3.53625">
        <ele>373.05</ele>
        <time>2014-10-18T10:14:43Z</time>
      </trkpt>
      <trkpt lat="46.0819" lon="3.53605">
        <ele>378.23</ele>
        <time>2014-10-18T10:14:56Z</time>
      </trkpt>
      <trkpt lat="46.08182" lon="3.53582">
        <ele>385.55</ele>
        <time>2014-10-18T10:15:54Z</time>
      </trkpt>
      <trkpt lat="46.08166" lon="3.53597">
        <ele>394.55</ele>
        <time>2014-10-18T10:17:55Z</time>
      </trkpt>
      <trkpt lat="46.08145" lon="3.53605">
        <ele>394.55</ele>
        <time>2014-10-18T10:18:02Z</time>
      </trkpt>
      <trkpt lat="46.08126" lon="3.53612">
        <ele>393.62</ele>
        <time>2014-10-18T10:18:07Z</time>
      </trkpt>
      <trkpt lat="46.08107" lon="3.53625">
        <ele>391.74</ele>
        <time>2014-10-18T10:18:12Z</time>
      </trkpt>
      <trkpt lat="46.08091" lon="3.53637">
        <ele>390.62</ele>
        <time>2014-10-18T10:18:17Z</time>
      </trkpt>
      <trkpt lat="46.08077" lon="3.53655">
        <ele>388.68</ele>
        <time>2014-10-18T10:18:25Z</time>
      </trkpt>
      <trkpt lat="46.08061" lon="3.5367">
        <ele>388.55</ele>
        <time>2014-10-18T10:18:34Z</time>
      </trkpt>
      <trkpt lat="46.08045" lon="3.53687">
        <ele>388.55</ele>
        <time>2014-10-18T10:18:41Z</time>
      </trkpt>
      <trkpt lat="46.08029" lon="3.537">
        <ele>388.55</ele>
        <time>2014-10-18T10:18:49Z</time>
      </trkpt>
      <trkpt lat="46.08013" lon="3.53713">
        <ele>388.55</ele>
        <time>2014-10-18T10:18:57Z</time>
      </trkpt>
      <trkpt lat="46.07998" lon="3.53732">
        <ele>389.55</ele>
        <time>2014-10-18T10:19:05Z</time>
      </trkpt>
      <trkpt lat="46.07981" lon="3.53745">
        <ele>388.62</ele>
        <time>2014-10-18T10:19:11Z</time>
      </trkpt>
      <trkpt lat="46.07963" lon="3.53758">
        <ele>388.55</ele>
        <time>2014-10-18T10:19:16Z</time>
      </trkpt>
      <trkpt lat="46.07944" lon="3.5377">
        <ele>389.3</ele>
        <time>2014-10-18T10:19:20Z</time>
      </trkpt>
      <trkpt lat="46.07919" lon="3.53775">
        <ele>388.79</ele>
        <time>2014-10-18T10:19:24Z</time>
      </trkpt>
      <trkpt lat="46.07898" lon="3.53768">
        <ele>387.36</ele>
        <time>2014-10-18T10:19:26Z</time>
      </trkpt>
      <trkpt lat="46.07881" lon="3.53758">
        <ele>384.53</ele>
        <time>2014-10-18T10:19:29Z</time>
      </trkpt>
      <trkpt lat="46.07866" lon="3.53743">
        <ele>382.68</ele>
        <time>2014-10-18T10:19:33Z</time>
      </trkpt>
      <trkpt lat="46.07849" lon="3.53725">
        <ele>381.62</ele>
        <time>2014-10-18T10:19:38Z</time>
      </trkpt>
      <trkpt lat="46.07833" lon="3.53708">
        <ele>381.05</ele>
        <time>2014-10-18T10:19:44Z</time>
      </trkpt>
      <trkpt lat="46.07817" lon="3.53691">
        <ele>380.56</ele>
        <time>2014-10-18T10:19:50Z</time>
      </trkpt>
      <trkpt lat="46.07799" lon="3.53678">
        <ele>380.05</ele>
        <time>2014-10-18T10:19:54Z</time>
      </trkpt>
      <trkpt lat="46.07781" lon="3.53676">
        <ele>378.87</ele>
        <time>2014-10-18T10:19:57Z</time>
      </trkpt>
      <trkpt lat="46.07763" lon="3.53685">
        <ele>377.64</ele>
        <time>2014-10-18T10:20:01Z</time>
      </trkpt>
      <trkpt lat="46.07755" lon="3.5371">
        <ele>377.55</ele>
        <time>2014-10-18T10:20:08Z</time>
      </trkpt>
      <trkpt lat="46.07733" lon="3.53719">
        <ele>378.93</ele>
        <time>2014-10-18T10:20:13Z</time>
      </trkpt>
      <trkpt lat="46.07715" lon="3.53738">
        <ele>381.83</ele>
        <time>2014-10-18T10:20:17Z</time>
      </trkpt>
      <trkpt lat="46.07714" lon="3.53766">
        <ele>383.97</ele>
        <time>2014-10-18T10:20:22Z</time>
      </trkpt>
      <trkpt lat="46.07723" lon="3.53794">
        <ele>384.54</ele>
        <time>2014-10-18T10:20:28Z</time>
      </trkpt>
      <trkpt lat="46.0773" lon="3.5382">
        <ele>385.43</ele>
        <time>2014-10-18T10:20:34Z</time>
      </trkpt>
      <trkpt lat="46.07736" lon="3.53846">
        <ele>386.52</ele>
        <time>2014-10-18T10:20:41Z</time>
      </trkpt>
      <trkpt lat="46.07727" lon="3.53873">
        <ele>389.02</ele>
        <time>2014-10-18T10:20:50Z</time>
      </trkpt>
      <trkpt lat="46.07706" lon="3.53869">
        <ele>391.23</ele>
        <time>2014-10-18T10:20:56Z</time>
      </trkpt>
      <trkpt lat="46.07689" lon="3.53854">
        <ele>392.48</ele>
        <time>2014-10-18T10:21:01Z</time>
      </trkpt>
      <trkpt lat="46.07668" lon="3.53865">
        <ele>396.55</ele>
        <time>2014-10-18T10:21:05Z</time>
      </trkpt>
      <trkpt lat="46.07652" lon="3.53882">
        <ele>398.18</ele>
        <time>2014-10-18T10:21:08Z</time>
      </trkpt>
      <trkpt lat="46.07637" lon="3.53899">
        <ele>399.38</ele>
        <time>2014-10-18T10:21:11Z</time>
      </trkpt>
      <trkpt lat="46.07624" lon="3.53921">
        <ele>399.53</ele>
        <time>2014-10-18T10:21:14Z</time>
      </trkpt>
      <trkpt lat="46.07612" lon="3.53944">
        <ele>399.55</ele>
        <time>2014-10-18T10:21:17Z</time>
      </trkpt>
      <trkpt lat="46.07598" lon="3.53961">
        <ele>398.18</ele>
        <time>2014-10-18T10:21:20Z</time>
      </trkpt>
      <trkpt lat="46.07578" lon="3.53953">
        <ele>397.59</ele>
        <time>2014-10-18T10:21:24Z</time>
      </trkpt>
      <trkpt lat="46.07558" lon="3.53938">
        <ele>395.43</ele>
        <time>2014-10-18T10:21:28Z</time>
      </trkpt>
      <trkpt lat="46.07539" lon="3.53942">
        <ele>391.66</ele>
        <time>2014-10-18T10:21:31Z</time>
      </trkpt>
      <trkpt lat="46.07544" lon="3.53968">
        <ele>383.56</ele>
        <time>2014-10-18T10:21:35Z</time>
      </trkpt>
      <trkpt lat="46.07557" lon="3.53994">
        <ele>378.08</ele>
        <time>2014-10-18T10:21:40Z</time>
      </trkpt>
      <trkpt lat="46.07561" lon="3.54019">
        <ele>376.24</ele>
        <time>2014-10-18T10:21:43Z</time>
      </trkpt>
      <trkpt lat="46.07573" lon="3.54043">
        <ele>372.92</ele>
        <time>2014-10-18T10:21:48Z</time>
      </trkpt>
      <trkpt lat="46.07569" lon="3.54069">
        <ele>373.06</ele>
        <time>2014-10-18T10:21:54Z</time>
      </trkpt>
      <trkpt lat="46.07549" lon="3.54064">
        <ele>371.4</ele>
        <time>2014-10-18T10:21:58Z</time>
      </trkpt>
      <trkpt lat="46.0753" lon="3.54064">
        <ele>367.55</ele>
        <time>2014-10-18T10:22:10Z</time>
      </trkpt>
      <trkpt lat="46.07512" lon="3.54064">
        <ele>364.55</ele>
        <time>2014-10-18T10:23:08Z</time>
      </trkpt>
      <trkpt lat="46.07491" lon="3.54054">
        <ele>365.55</ele>
        <time>2014-10-18T10:23:21Z</time>
      </trkpt>
      <trkpt lat="46.07475" lon="3.54039">
        <ele>368.05</ele>
        <time>2014-10-18T10:23:39Z</time>
      </trkpt>
      <trkpt lat="46.07453" lon="3.54024">
        <ele>371.04</ele>
        <time>2014-10-18T10:24:13Z</time>
      </trkpt>
      <trkpt lat="46.07437" lon="3.54004">
        <ele>374.96</ele>
        <time>2014-10-18T10:24:40Z</time>
      </trkpt>
      <trkpt lat="46.07425" lon="3.53985">
        <ele>377.54</ele>
        <time>2014-10-18T10:24:49Z</time>
      </trkpt>
      <trkpt lat="46.07421" lon="3.53959">
        <ele>379.55</ele>
        <time>2014-10-18T10:25:11Z</time>
      </trkpt>
      <trkpt lat="46.07406" lon="3.53944">
        <ele>381.52</ele>
        <time>2014-10-18T10:25:29Z</time>
      </trkpt>
      <trkpt lat="46.07388" lon="3.53938">
        <ele>381.55</ele>
        <time>2014-10-18T10:25:51Z</time>
      </trkpt>
      <trkpt lat="46.0737" lon="3.53936">
        <ele>382.55</ele>
        <time>2014-10-18T10:26:17Z</time>
      </trkpt>
      <trkpt lat="46.07352" lon="3.53938">
        <ele>388.41</ele>
        <time>2014-10-18T10:26:59Z</time>
      </trkpt>
      <trkpt lat="46.07333" lon="3.53938">
        <ele>393.55</ele>
        <time>2014-10-18T10:27:38Z</time>
      </trkpt>
      <trkpt lat="46.07315" lon="3.53936">
        <ele>394.05</ele>
        <time>2014-10-18T10:27:57Z</time>
      </trkpt>
      <trkpt lat="46.07298" lon="3.53927">
        <ele>397.43</ele>
        <time>2014-10-18T10:28:17Z</time>
      </trkpt>
      <trkpt lat="46.07281" lon="3.53919">
        <ele>401.43</ele>
        <time>2014-10-18T10:28:38Z</time>
      </trkpt>
      <trkpt lat="46.07263" lon="3.53916">
        <ele>404.49</ele>
        <time>2014-10-18T10:29:00Z</time>
      </trkpt>
      <trkpt lat="46.07244" lon="3.53914">
        <ele>407.49</ele>
        <time>2014-10-18T10:29:22Z</time>
      </trkpt>
      <trkpt lat="46.07226" lon="3.53916">
        <ele>411.04</ele>
        <time>2014-10-18T10:29:47Z</time>
      </trkpt>
      <trkpt lat="46.07207" lon="3.53925">
        <ele>414.29</ele>
        <time>2014-10-18T10:30:00Z</time>
      </trkpt>
      <trkpt lat="46.07192" lon="3.5394">
        <ele>418.29</ele>
        <time>2014-10-18T10:30:19Z</time>
      </trkpt>
      <trkpt lat="46.07211" lon="3.53951">
        <ele>424.27</ele>
        <time>2014-10-18T10:30:30Z</time>
      </trkpt>
      <trkpt lat="46.0723" lon="3.53959">
        <ele>428.17</ele>
        <time>2014-10-18T10:30:35Z</time>
      </trkpt>
      <trkpt lat="46.07244" lon="3.53976">
        <ele>428.55</ele>
        <time>2014-10-18T10:30:45Z</time>
      </trkpt>
      <trkpt lat="46.07266" lon="3.53981">
        <ele>430.55</ele>
        <time>2014-10-18T10:31:10Z</time>
      </trkpt>
      <trkpt lat="46.07272" lon="3.54007">
        <ele>427.55</ele>
        <time>2014-10-18T10:33:48Z</time>
      </trkpt>
      <trkpt lat="46.07255" lon="3.53994">
        <ele>428.55</ele>
        <time>2014-10-18T10:35:40Z</time>
      </trkpt>
      <trkpt lat="46.07236" lon="3.53987">
        <ele>429.43</ele>
        <time>2014-10-18T10:35:52Z</time>
      </trkpt>
      <trkpt lat="46.07219" lon="3.53976">
        <ele>429.55</ele>
        <time>2014-10-18T10:36:04Z</time>
      </trkpt>
      <trkpt lat="46.072" lon="3.53964">
        <ele>430.55</ele>
        <time>2014-10-18T10:36:16Z</time>
      </trkpt>
      <trkpt lat="46.07182" lon="3.53959">
        <ele>431.55</ele>
        <time>2014-10-18T10:36:31Z</time>
      </trkpt>
      <trkpt lat="46.07163" lon="3.53953">
        <ele>431.55</ele>
        <time>2014-10-18T10:36:42Z</time>
      </trkpt>
      <trkpt lat="46.07144" lon="3.53944">
        <ele>431.55</ele>
        <time>2014-10-18T10:36:50Z</time>
      </trkpt>
      <trkpt lat="46.07125" lon="3.53931">
        <ele>432.49</ele>
        <time>2014-10-18T10:36:58Z</time>
      </trkpt>
      <trkpt lat="46.07107" lon="3.53919">
        <ele>432.55</ele>
        <time>2014-10-18T10:37:06Z</time>
      </trkpt>
      <trkpt lat="46.07091" lon="3.53906">
        <ele>433.49</ele>
        <time>2014-10-18T10:37:13Z</time>
      </trkpt>
      <trkpt lat="46.07075" lon="3.53891">
        <ele>434.3</ele>
        <time>2014-10-18T10:37:18Z</time>
      </trkpt>
      <trkpt lat="46.07059" lon="3.53878">
        <ele>435.42</ele>
        <time>2014-10-18T10:37:23Z</time>
      </trkpt>
      <trkpt lat="46.07043" lon="3.53865">
        <ele>436.42</ele>
        <time>2014-10-18T10:37:28Z</time>
      </trkpt>
      <trkpt lat="46.07029" lon="3.53848">
        <ele>437.49</ele>
        <time>2014-10-18T10:37:34Z</time>
      </trkpt>
      <trkpt lat="46.07013" lon="3.53833">
        <ele>438.52</ele>
        <time>2014-10-18T10:37:41Z</time>
      </trkpt>
      <trkpt lat="46.06995" lon="3.53818">
        <ele>440.49</ele>
        <time>2014-10-18T10:37:49Z</time>
      </trkpt>
      <trkpt lat="46.06976" lon="3.53818">
        <ele>441.52</ele>
        <time>2014-10-18T10:37:55Z</time>
      </trkpt>
      <trkpt lat="46.06958" lon="3.53822">
        <ele>442.54</ele>
        <time>2014-10-18T10:38:01Z</time>
      </trkpt>
      <trkpt lat="46.0694" lon="3.53828">
        <ele>443.52</ele>
        <time>2014-10-18T10:38:07Z</time>
      </trkpt>
      <trkpt lat="46.06921" lon="3.53831">
        <ele>443.55</ele>
        <time>2014-10-18T10:38:14Z</time>
      </trkpt>
      <trkpt lat="46.06902" lon="3.53835">
        <ele>444.55</ele>
        <time>2014-10-18T10:38:24Z</time>
      </trkpt>
      <trkpt lat="46.06884" lon="3.53839">
        <ele>444.55</ele>
        <time>2014-10-18T10:38:33Z</time>
      </trkpt>
      <trkpt lat="46.06865" lon="3.53846">
        <ele>445.49</ele>
        <time>2014-10-18T10:38:41Z</time>
      </trkpt>
      <trkpt lat="46.06844" lon="3.53852">
        <ele>446.3</ele>
        <time>2014-10-18T10:38:49Z</time>
      </trkpt>
      <trkpt lat="46.06825" lon="3.53856">
        <ele>447.43</ele>
        <time>2014-10-18T10:38:58Z</time>
      </trkpt>
      <trkpt lat="46.06807" lon="3.53861">
        <ele>448.3</ele>
        <time>2014-10-18T10:39:08Z</time>
      </trkpt>
      <trkpt lat="46.06789" lon="3.53869">
        <ele>449.3</ele>
        <time>2014-10-18T10:39:19Z</time>
      </trkpt>
      <trkpt lat="46.0677" lon="3.53876">
        <ele>450.3</ele>
        <time>2014-10-18T10:39:28Z</time>
      </trkpt>
      <trkpt lat="46.06752" lon="3.53884">
        <ele>450.54</ele>
        <time>2014-10-18T10:39:32Z</time>
      </trkpt>
      <trkpt lat="46.06736" lon="3.53897">
        <ele>451.93</ele>
        <time>2014-10-18T10:39:35Z</time>
      </trkpt>
      <trkpt lat="46.06727" lon="3.53923">
        <ele>453.35</ele>
        <time>2014-10-18T10:39:38Z</time>
      </trkpt>
      <trkpt lat="46.06719" lon="3.53949">
        <ele>453.53</ele>
        <time>2014-10-18T10:39:41Z</time>
      </trkpt>
      <trkpt lat="46.06701" lon="3.5397">
        <ele>454.42</ele>
        <time>2014-10-18T10:39:44Z</time>
      </trkpt>
      <trkpt lat="46.0668" lon="3.53981">
        <ele>454.54</ele>
        <time>2014-10-18T10:39:47Z</time>
      </trkpt>
      <trkpt lat="46.0666" lon="3.53987">
        <ele>453.58</ele>
        <time>2014-10-18T10:39:52Z</time>
      </trkpt>
      <trkpt lat="46.06647" lon="3.54009">
        <ele>453.55</ele>
        <time>2014-10-18T10:39:58Z</time>
      </trkpt>
      <trkpt lat="46.06648" lon="3.54039">
        <ele>456.65</ele>
        <time>2014-10-18T10:40:05Z</time>
      </trkpt>
      <trkpt lat="46.06655" lon="3.54062">
        <ele>458.99</ele>
        <time>2014-10-18T10:40:10Z</time>
      </trkpt>
      <trkpt lat="46.06666" lon="3.5409">
        <ele>461.21</ele>
        <time>2014-10-18T10:40:14Z</time>
      </trkpt>
      <trkpt lat="46.06681" lon="3.54105">
        <ele>462.26</ele>
        <time>2014-10-18T10:40:17Z</time>
      </trkpt>
      <trkpt lat="46.06697" lon="3.5412">
        <ele>461.64</ele>
        <time>2014-10-18T10:40:20Z</time>
      </trkpt>
      <trkpt lat="46.06717" lon="3.54135">
        <ele>460.62</ele>
        <time>2014-10-18T10:40:24Z</time>
      </trkpt>
      <trkpt lat="46.06733" lon="3.54155">
        <ele>461.49</ele>
        <time>2014-10-18T10:40:28Z</time>
      </trkpt>
      <trkpt lat="46.06748" lon="3.54185">
        <ele>462.99</ele>
        <time>2014-10-18T10:40:32Z</time>
      </trkpt>
      <trkpt lat="46.06761" lon="3.54217">
        <ele>462.73</ele>
        <time>2014-10-18T10:40:35Z</time>
      </trkpt>
      <trkpt lat="46.06764" lon="3.54245">
        <ele>462.58</ele>
        <time>2014-10-18T10:40:38Z</time>
      </trkpt>
      <trkpt lat="46.06769" lon="3.5427">
        <ele>462.55</ele>
        <time>2014-10-18T10:40:42Z</time>
      </trkpt>
      <trkpt lat="46.06779" lon="3.54303">
        <ele>464.18</ele>
        <time>2014-10-18T10:40:46Z</time>
      </trkpt>
      <trkpt lat="46.06791" lon="3.54324">
        <ele>465.47</ele>
        <time>2014-10-18T10:40:50Z</time>
      </trkpt>
      <trkpt lat="46.068" lon="3.54348">
        <ele>465.05</ele>
        <time>2014-10-18T10:40:56Z</time>
      </trkpt>
      <trkpt lat="46.0681" lon="3.54373">
        <ele>464.57</ele>
        <time>2014-10-18T10:41:01Z</time>
      </trkpt>
      <trkpt lat="46.06816" lon="3.54401">
        <ele>463.08</ele>
        <time>2014-10-18T10:41:06Z</time>
      </trkpt>
      <trkpt lat="46.06824" lon="3.54427">
        <ele>461.82</ele>
        <time>2014-10-18T10:41:11Z</time>
      </trkpt>
      <trkpt lat="46.06823" lon="3.54455">
        <ele>460.12</ele>
        <time>2014-10-18T10:41:16Z</time>
      </trkpt>
      <trkpt lat="46.06821" lon="3.54483">
        <ele>457.57</ele>
        <time>2014-10-18T10:41:23Z</time>
      </trkpt>
      <trkpt lat="46.06818" lon="3.54515">
        <ele>453.25</ele>
        <time>2014-10-18T10:41:30Z</time>
      </trkpt>
      <trkpt lat="46.06815" lon="3.54545">
        <ele>448.65</ele>
        <time>2014-10-18T10:41:38Z</time>
      </trkpt>
      <trkpt lat="46.06807" lon="3.54573">
        <ele>444.25</ele>
        <time>2014-10-18T10:41:45Z</time>
      </trkpt>
      <trkpt lat="46.06804" lon="3.54599">
        <ele>440.41</ele>
        <time>2014-10-18T10:41:51Z</time>
      </trkpt>
      <trkpt lat="46.06803" lon="3.54627">
        <ele>437.22</ele>
        <time>2014-10-18T10:41:57Z</time>
      </trkpt>
      <trkpt lat="46.06803" lon="3.54659">
        <ele>433.72</ele>
        <time>2014-10-18T10:42:04Z</time>
      </trkpt>
      <trkpt lat="46.06807" lon="3.54687">
        <ele>431.12</ele>
        <time>2014-10-18T10:42:11Z</time>
      </trkpt>
      <trkpt lat="46.06812" lon="3.54712">
        <ele>429.09</ele>
        <time>2014-10-18T10:42:18Z</time>
      </trkpt>
      <trkpt lat="46.06821" lon="3.54736">
        <ele>427.59</ele>
        <time>2014-10-18T10:42:26Z</time>
      </trkpt>
      <trkpt lat="46.06831" lon="3.54758">
        <ele>425.81</ele>
        <time>2014-10-18T10:42:34Z</time>
      </trkpt>
      <trkpt lat="46.06844" lon="3.54781">
        <ele>425.06</ele>
        <time>2014-10-18T10:42:40Z</time>
      </trkpt>
      <trkpt lat="46.06858" lon="3.54811">
        <ele>422.02</ele>
        <time>2014-10-18T10:42:44Z</time>
      </trkpt>
      <trkpt lat="46.06876" lon="3.54839">
        <ele>420.74</ele>
        <time>2014-10-18T10:42:47Z</time>
      </trkpt>
      <trkpt lat="46.06896" lon="3.54865">
        <ele>420.58</ele>
        <time>2014-10-18T10:42:50Z</time>
      </trkpt>
      <trkpt lat="46.06912" lon="3.5488">
        <ele>418.43</ele>
        <time>2014-10-18T10:42:53Z</time>
      </trkpt>
      <trkpt lat="46.06929" lon="3.54893">
        <ele>416.73</ele>
        <time>2014-10-18T10:42:57Z</time>
      </trkpt>
      <trkpt lat="46.0692" lon="3.54916">
        <ele>415.56</ele>
        <time>2014-10-18T10:43:07Z</time>
      </trkpt>
      <trkpt lat="46.06902" lon="3.5491">
        <ele>416.54</ele>
        <time>2014-10-18T10:43:13Z</time>
      </trkpt>
      <trkpt lat="46.06882" lon="3.54899">
        <ele>416.55</ele>
        <time>2014-10-18T10:43:19Z</time>
      </trkpt>
      <trkpt lat="46.06862" lon="3.54899">
        <ele>416.55</ele>
        <time>2014-10-18T10:43:23Z</time>
      </trkpt>
      <trkpt lat="46.06848" lon="3.54918">
        <ele>416.55</ele>
        <time>2014-10-18T10:43:28Z</time>
      </trkpt>
      <trkpt lat="46.06844" lon="3.54944">
        <ele>417.99</ele>
        <time>2014-10-18T10:43:32Z</time>
      </trkpt>
      <trkpt lat="46.06838" lon="3.54974">
        <ele>418.52</ele>
        <time>2014-10-18T10:43:36Z</time>
      </trkpt>
      <trkpt lat="46.06815" lon="3.54989">
        <ele>417.11</ele>
        <time>2014-10-18T10:43:40Z</time>
      </trkpt>
      <trkpt lat="46.06794" lon="3.54991">
        <ele>416.62</ele>
        <time>2014-10-18T10:43:43Z</time>
      </trkpt>
      <trkpt lat="46.0677" lon="3.54985">
        <ele>415.69</ele>
        <time>2014-10-18T10:43:46Z</time>
      </trkpt>
      <trkpt lat="46.06747" lon="3.54981">
        <ele>416.44</ele>
        <time>2014-10-18T10:43:49Z</time>
      </trkpt>
      <trkpt lat="46.06721" lon="3.54983">
        <ele>416.54</ele>
        <time>2014-10-18T10:43:52Z</time>
      </trkpt>
      <trkpt lat="46.06695" lon="3.54991">
        <ele>416.55</ele>
        <time>2014-10-18T10:43:55Z</time>
      </trkpt>
      <trkpt lat="46.06677" lon="3.55">
        <ele>417.05</ele>
        <time>2014-10-18T10:44:03Z</time>
      </trkpt>
      <trkpt lat="46.06656" lon="3.55009">
        <ele>416.58</ele>
        <time>2014-10-18T10:44:13Z</time>
      </trkpt>
      <trkpt lat="46.06638" lon="3.55019">
        <ele>416.05</ele>
        <time>2014-10-18T10:44:22Z</time>
      </trkpt>
      <trkpt lat="46.06621" lon="3.55034">
        <ele>415.05</ele>
        <time>2014-10-18T10:44:32Z</time>
      </trkpt>
      <trkpt lat="46.06603" lon="3.55047">
        <ele>414.05</ele>
        <time>2014-10-18T10:44:40Z</time>
      </trkpt>
      <trkpt lat="46.06579" lon="3.55062">
        <ele>412.07</ele>
        <time>2014-10-18T10:44:52Z</time>
      </trkpt>
      <trkpt lat="46.06563" lon="3.55079">
        <ele>410.09</ele>
        <time>2014-10-18T10:45:01Z</time>
      </trkpt>
      <trkpt lat="46.06552" lon="3.55105">
        <ele>408.62</ele>
        <time>2014-10-18T10:45:10Z</time>
      </trkpt>
      <trkpt lat="46.06545" lon="3.55135">
        <ele>407.56</ele>
        <time>2014-10-18T10:45:20Z</time>
      </trkpt>
      <trkpt lat="46.06543" lon="3.55161">
        <ele>406.56</ele>
        <time>2014-10-18T10:45:29Z</time>
      </trkpt>
      <trkpt lat="46.06534" lon="3.55195">
        <ele>405.05</ele>
        <time>2014-10-18T10:45:43Z</time>
      </trkpt>
      <trkpt lat="46.06528" lon="3.55221">
        <ele>404.05</ele>
        <time>2014-10-18T10:45:54Z</time>
      </trkpt>
      <trkpt lat="46.06529" lon="3.55253">
        <ele>403.05</ele>
        <time>2014-10-18T10:46:05Z</time>
      </trkpt>
      <trkpt lat="46.06537" lon="3.55279">
        <ele>401.8</ele>
        <time>2014-10-18T10:46:15Z</time>
      </trkpt>
      <trkpt lat="46.06549" lon="3.55303">
        <ele>401.55</ele>
        <time>2014-10-18T10:46:23Z</time>
      </trkpt>
      <trkpt lat="46.06566" lon="3.55326">
        <ele>400.57</ele>
        <time>2014-10-18T10:46:34Z</time>
      </trkpt>
      <trkpt lat="46.06575" lon="3.5535">
        <ele>400.55</ele>
        <time>2014-10-18T10:46:41Z</time>
      </trkpt>
      <trkpt lat="46.06585" lon="3.55373">
        <ele>400.55</ele>
        <time>2014-10-18T10:46:49Z</time>
      </trkpt>
      <trkpt lat="46.06594" lon="3.55397">
        <ele>400.55</ele>
        <time>2014-10-18T10:46:56Z</time>
      </trkpt>
      <trkpt lat="46.06607" lon="3.55418">
        <ele>400.55</ele>
        <time>2014-10-18T10:47:04Z</time>
      </trkpt>
      <trkpt lat="46.06619" lon="3.5544">
        <ele>400.55</ele>
        <time>2014-10-18T10:47:11Z</time>
      </trkpt>
      <trkpt lat="46.06623" lon="3.55466">
        <ele>401.52</ele>
        <time>2014-10-18T10:47:18Z</time>
      </trkpt>
      <trkpt lat="46.06609" lon="3.55485">
        <ele>401.55</ele>
        <time>2014-10-18T10:47:25Z</time>
      </trkpt>
      <trkpt lat="46.06597" lon="3.55506">
        <ele>401.55</ele>
        <time>2014-10-18T10:47:32Z</time>
      </trkpt>
      <trkpt lat="46.06589" lon="3.55532">
        <ele>402.52</ele>
        <time>2014-10-18T10:47:39Z</time>
      </trkpt>
      <trkpt lat="46.06582" lon="3.5556">
        <ele>402.55</ele>
        <time>2014-10-18T10:47:46Z</time>
      </trkpt>
      <trkpt lat="46.06581" lon="3.55588">
        <ele>403.55</ele>
        <time>2014-10-18T10:47:54Z</time>
      </trkpt>
      <trkpt lat="46.0658" lon="3.55616">
        <ele>404.55</ele>
        <time>2014-10-18T10:48:02Z</time>
      </trkpt>
      <trkpt lat="46.0658" lon="3.55646">
        <ele>406.3</ele>
        <time>2014-10-18T10:48:11Z</time>
      </trkpt>
      <trkpt lat="46.06571" lon="3.55672">
        <ele>407.43</ele>
        <time>2014-10-18T10:48:18Z</time>
      </trkpt>
      <trkpt lat="46.06553" lon="3.55687">
        <ele>409.55</ele>
        <time>2014-10-18T10:48:23Z</time>
      </trkpt>
      <trkpt lat="46.06532" lon="3.5568">
        <ele>412.37</ele>
        <time>2014-10-18T10:48:28Z</time>
      </trkpt>
      <trkpt lat="46.06513" lon="3.55674">
        <ele>412.05</ele>
        <time>2014-10-18T10:48:33Z</time>
      </trkpt>
      <trkpt lat="46.0649" lon="3.55682">
        <ele>412.32</ele>
        <time>2014-10-18T10:48:38Z</time>
      </trkpt>
      <trkpt lat="46.06471" lon="3.55693">
        <ele>413.4</ele>
        <time>2014-10-18T10:48:41Z</time>
      </trkpt>
      <trkpt lat="46.06452" lon="3.55704">
        <ele>413.78</ele>
        <time>2014-10-18T10:48:44Z</time>
      </trkpt>
      <trkpt lat="46.06431" lon="3.55717">
        <ele>413.08</ele>
        <time>2014-10-18T10:48:47Z</time>
      </trkpt>
      <trkpt lat="46.06413" lon="3.55727">
        <ele>412.59</ele>
        <time>2014-10-18T10:48:51Z</time>
      </trkpt>
      <trkpt lat="46.06413" lon="3.55755">
        <ele>412.55</ele>
        <time>2014-10-18T10:48:57Z</time>
      </trkpt>
      <trkpt lat="46.06424" lon="3.55785">
        <ele>413.8</ele>
        <time>2014-10-18T10:49:01Z</time>
      </trkpt>
      <trkpt lat="46.06436" lon="3.55813">
        <ele>416.08</ele>
        <time>2014-10-18T10:49:04Z</time>
      </trkpt>
      <trkpt lat="46.06454" lon="3.55835">
        <ele>417.87</ele>
        <time>2014-10-18T10:49:07Z</time>
      </trkpt>
      <trkpt lat="46.06468" lon="3.55856">
        <ele>419.22</ele>
        <time>2014-10-18T10:49:10Z</time>
      </trkpt>
      <trkpt lat="46.06482" lon="3.55878">
        <ele>420.28</ele>
        <time>2014-10-18T10:49:14Z</time>
      </trkpt>
      <trkpt lat="46.06499" lon="3.55891">
        <ele>420.54</ele>
        <time>2014-10-18T10:49:18Z</time>
      </trkpt>
      <trkpt lat="46.06514" lon="3.55906">
        <ele>419.68</ele>
        <time>2014-10-18T10:49:21Z</time>
      </trkpt>
      <trkpt lat="46.06529" lon="3.55927">
        <ele>420.44</ele>
        <time>2014-10-18T10:49:24Z</time>
      </trkpt>
      <trkpt lat="46.06539" lon="3.55953">
        <ele>420.54</ele>
        <time>2014-10-18T10:49:27Z</time>
      </trkpt>
      <trkpt lat="46.06561" lon="3.55966">
        <ele>420.55</ele>
        <time>2014-10-18T10:49:31Z</time>
      </trkpt>
      <trkpt lat="46.0658" lon="3.55966">
        <ele>420.43</ele>
        <time>2014-10-18T10:49:34Z</time>
      </trkpt>
      <trkpt lat="46.066" lon="3.55972">
        <ele>420.05</ele>
        <time>2014-10-18T10:49:38Z</time>
      </trkpt>
      <trkpt lat="46.06618" lon="3.55989">
        <ele>419.56</ele>
        <time>2014-10-18T10:49:44Z</time>
      </trkpt>
      <trkpt lat="46.06618" lon="3.56019">
        <ele>416.99</ele>
        <time>2014-10-18T10:49:48Z</time>
      </trkpt>
      <trkpt lat="46.06611" lon="3.56045">
        <ele>415.23</ele>
        <time>2014-10-18T10:49:51Z</time>
      </trkpt>
      <trkpt lat="46.06592" lon="3.56054">
        <ele>413.2</ele>
        <time>2014-10-18T10:49:56Z</time>
      </trkpt>
      <trkpt lat="46.06573" lon="3.56069">
        <ele>409.59</ele>
        <time>2014-10-18T10:50:00Z</time>
      </trkpt>
      <trkpt lat="46.06563" lon="3.56097">
        <ele>406.18</ele>
        <time>2014-10-18T10:50:04Z</time>
      </trkpt>
      <trkpt lat="46.06559" lon="3.56122">
        <ele>404.65</ele>
        <time>2014-10-18T10:50:08Z</time>
      </trkpt>
      <trkpt lat="46.06543" lon="3.56139">
        <ele>403.09</ele>
        <time>2014-10-18T10:50:14Z</time>
      </trkpt>
      <trkpt lat="46.06528" lon="3.56157">
        <ele>401.82</ele>
        <time>2014-10-18T10:50:19Z</time>
      </trkpt>
      <trkpt lat="46.06513" lon="3.56176">
        <ele>400.62</ele>
        <time>2014-10-18T10:50:24Z</time>
      </trkpt>
      <trkpt lat="46.06499" lon="3.56195">
        <ele>398.82</ele>
        <time>2014-10-18T10:50:30Z</time>
      </trkpt>
      <trkpt lat="46.06483" lon="3.56212">
        <ele>397.09</ele>
        <time>2014-10-18T10:50:36Z</time>
      </trkpt>
      <trkpt lat="46.06465" lon="3.56223">
        <ele>395.82</ele>
        <time>2014-10-18T10:50:41Z</time>
      </trkpt>
      <trkpt lat="46.06446" lon="3.56234">
        <ele>394.62</ele>
        <time>2014-10-18T10:50:47Z</time>
      </trkpt>
      <trkpt lat="46.0643" lon="3.56247">
        <ele>393.09</ele>
        <time>2014-10-18T10:50:52Z</time>
      </trkpt>
      <trkpt lat="46.06415" lon="3.56262">
        <ele>391.82</ele>
        <time>2014-10-18T10:50:57Z</time>
      </trkpt>
      <trkpt lat="46.06401" lon="3.56279">
        <ele>390.12</ele>
        <time>2014-10-18T10:51:02Z</time>
      </trkpt>
      <trkpt lat="46.06385" lon="3.56296">
        <ele>388.62</ele>
        <time>2014-10-18T10:51:08Z</time>
      </trkpt>
      <trkpt lat="46.06371" lon="3.56315">
        <ele>386.82</ele>
        <time>2014-10-18T10:51:14Z</time>
      </trkpt>
      <trkpt lat="46.06357" lon="3.56333">
        <ele>385.68</ele>
        <time>2014-10-18T10:51:20Z</time>
      </trkpt>
      <trkpt lat="46.06332" lon="3.56348">
        <ele>384.57</ele>
        <time>2014-10-18T10:51:30Z</time>
      </trkpt>
      <trkpt lat="46.06312" lon="3.5636">
        <ele>383.58</ele>
        <time>2014-10-18T10:51:38Z</time>
      </trkpt>
      <trkpt lat="46.06286" lon="3.56378">
        <ele>382.06</ele>
        <time>2014-10-18T10:51:47Z</time>
      </trkpt>
      <trkpt lat="46.06268" lon="3.56393">
        <ele>380.59</ele>
        <time>2014-10-18T10:51:54Z</time>
      </trkpt>
      <trkpt lat="46.06251" lon="3.56405">
        <ele>379.56</ele>
        <time>2014-10-18T10:52:01Z</time>
      </trkpt>
      <trkpt lat="46.06234" lon="3.56416">
        <ele>378.56</ele>
        <time>2014-10-18T10:52:08Z</time>
      </trkpt>
      <trkpt lat="46.06215" lon="3.56418">
        <ele>378.55</ele>
        <time>2014-10-18T10:52:16Z</time>
      </trkpt>
      <trkpt lat="46.06197" lon="3.56423">
        <ele>377.62</ele>
        <time>2014-10-18T10:52:21Z</time>
      </trkpt>
      <trkpt lat="46.06178" lon="3.56431">
        <ele>376.8</ele>
        <time>2014-10-18T10:52:26Z</time>
      </trkpt>
      <trkpt lat="46.0616" lon="3.56438">
        <ele>375.69</ele>
        <time>2014-10-18T10:52:30Z</time>
      </trkpt>
      <trkpt lat="46.06141" lon="3.56446">
        <ele>374.12</ele>
        <time>2014-10-18T10:52:35Z</time>
      </trkpt>
      <trkpt lat="46.06121" lon="3.56455">
        <ele>371.87</ele>
        <time>2014-10-18T10:52:41Z</time>
      </trkpt>
      <trkpt lat="46.06103" lon="3.56461">
        <ele>369.88</ele>
        <time>2014-10-18T10:52:46Z</time>
      </trkpt>
      <trkpt lat="46.06084" lon="3.56468">
        <ele>367.84</ele>
        <time>2014-10-18T10:52:52Z</time>
      </trkpt>
      <trkpt lat="46.06066" lon="3.56478">
        <ele>365.84</ele>
        <time>2014-10-18T10:52:58Z</time>
      </trkpt>
      <trkpt lat="46.06049" lon="3.56489">
        <ele>364.62</ele>
        <time>2014-10-18T10:53:04Z</time>
      </trkpt>
      <trkpt lat="46.0603" lon="3.56502">
        <ele>362.81</ele>
        <time>2014-10-18T10:53:11Z</time>
      </trkpt>
      <trkpt lat="46.06009" lon="3.56517">
        <ele>362.56</ele>
        <time>2014-10-18T10:53:16Z</time>
      </trkpt>
      <trkpt lat="46.05991" lon="3.56532">
        <ele>361.68</ele>
        <time>2014-10-18T10:53:20Z</time>
      </trkpt>
      <trkpt lat="46.05972" lon="3.56547">
        <ele>360.68</ele>
        <time>2014-10-18T10:53:25Z</time>
      </trkpt>
      <trkpt lat="46.05959" lon="3.56566">
        <ele>358.81</ele>
        <time>2014-10-18T10:53:29Z</time>
      </trkpt>
      <trkpt lat="46.05943" lon="3.56592">
        <ele>355.59</ele>
        <time>2014-10-18T10:53:32Z</time>
      </trkpt>
      <trkpt lat="46.05926" lon="3.56607">
        <ele>353.68</ele>
        <time>2014-10-18T10:53:36Z</time>
      </trkpt>
      <trkpt lat="46.05924" lon="3.56637">
        <ele>353.56</ele>
        <time>2014-10-18T10:53:40Z</time>
      </trkpt>
      <trkpt lat="46.05924" lon="3.56669">
        <ele>354.43</ele>
        <time>2014-10-18T10:53:43Z</time>
      </trkpt>
      <trkpt lat="46.05922" lon="3.56702">
        <ele>355.29</ele>
        <time>2014-10-18T10:53:46Z</time>
      </trkpt>
      <trkpt lat="46.05919" lon="3.56732">
        <ele>357.39</ele>
        <time>2014-10-18T10:53:49Z</time>
      </trkpt>
      <trkpt lat="46.05919" lon="3.56766">
        <ele>361.54</ele>
        <time>2014-10-18T10:53:53Z</time>
      </trkpt>
      <trkpt lat="46.05918" lon="3.56794">
        <ele>365.99</ele>
        <time>2014-10-18T10:53:57Z</time>
      </trkpt>
      <trkpt lat="46.05908" lon="3.5682">
        <ele>367.53</ele>
        <time>2014-10-18T10:54:03Z</time>
      </trkpt>
      <trkpt lat="46.05893" lon="3.56839">
        <ele>367.55</ele>
        <time>2014-10-18T10:54:09Z</time>
      </trkpt>
      <trkpt lat="46.05882" lon="3.56863">
        <ele>368.55</ele>
        <time>2014-10-18T10:54:16Z</time>
      </trkpt>
      <trkpt lat="46.05889" lon="3.56888">
        <ele>368.55</ele>
        <time>2014-10-18T10:54:22Z</time>
      </trkpt>
      <trkpt lat="46.05904" lon="3.56905">
        <ele>366.74</ele>
        <time>2014-10-18T10:54:26Z</time>
      </trkpt>
      <trkpt lat="46.05923" lon="3.56918">
        <ele>365.13</ele>
        <time>2014-10-18T10:54:30Z</time>
      </trkpt>
      <trkpt lat="46.05939" lon="3.5694">
        <ele>365.07</ele>
        <time>2014-10-18T10:54:35Z</time>
      </trkpt>
      <trkpt lat="46.05923" lon="3.56966">
        <ele>366.43</ele>
        <time>2014-10-18T10:54:44Z</time>
      </trkpt>
      <trkpt lat="46.05911" lon="3.56989">
        <ele>366.55</ele>
        <time>2014-10-18T10:54:49Z</time>
      </trkpt>
      <trkpt lat="46.05899" lon="3.57013">
        <ele>366.55</ele>
        <time>2014-10-18T10:54:54Z</time>
      </trkpt>
      <trkpt lat="46.05886" lon="3.57036">
        <ele>366.55</ele>
        <time>2014-10-18T10:54:59Z</time>
      </trkpt>
      <trkpt lat="46.05869" lon="3.57054">
        <ele>366.55</ele>
        <time>2014-10-18T10:55:04Z</time>
      </trkpt>
      <trkpt lat="46.05849" lon="3.57054">
        <ele>367.3</ele>
        <time>2014-10-18T10:55:07Z</time>
      </trkpt>
      <trkpt lat="46.05828" lon="3.57049">
        <ele>369.65</ele>
        <time>2014-10-18T10:55:10Z</time>
      </trkpt>
      <trkpt lat="46.05809" lon="3.57045">
        <ele>371.19</ele>
        <time>2014-10-18T10:55:13Z</time>
      </trkpt>
      <trkpt lat="46.0579" lon="3.57045">
        <ele>372.38</ele>
        <time>2014-10-18T10:55:16Z</time>
      </trkpt>
      <trkpt lat="46.05769" lon="3.57041">
        <ele>372.73</ele>
        <time>2014-10-18T10:55:20Z</time>
      </trkpt>
      <trkpt lat="46.05749" lon="3.57043">
        <ele>372.56</ele>
        <time>2014-10-18T10:55:25Z</time>
      </trkpt>
      <trkpt lat="46.05729" lon="3.57051">
        <ele>371.68</ele>
        <time>2014-10-18T10:55:30Z</time>
      </trkpt>
      <trkpt lat="46.0571" lon="3.57064">
        <ele>369.71</ele>
        <time>2014-10-18T10:55:35Z</time>
      </trkpt>
      <trkpt lat="46.05691" lon="3.57077">
        <ele>368.62</ele>
        <time>2014-10-18T10:55:40Z</time>
      </trkpt>
      <trkpt lat="46.0567" lon="3.5709">
        <ele>368.56</ele>
        <time>2014-10-18T10:55:45Z</time>
      </trkpt>
      <trkpt lat="46.0565" lon="3.57103">
        <ele>368.65</ele>
        <time>2014-10-18T10:55:50Z</time>
      </trkpt>
      <trkpt lat="46.05631" lon="3.57114">
        <ele>368.56</ele>
        <time>2014-10-18T10:55:55Z</time>
      </trkpt>
      <trkpt lat="46.0561" lon="3.57124">
        <ele>368.55</ele>
        <time>2014-10-18T10:56:00Z</time>
      </trkpt>
      <trkpt lat="46.05591" lon="3.57133">
        <ele>368.55</ele>
        <time>2014-10-18T10:56:05Z</time>
      </trkpt>
      <trkpt lat="46.05571" lon="3.57144">
        <ele>367.68</ele>
        <time>2014-10-18T10:56:10Z</time>
      </trkpt>
      <trkpt lat="46.05552" lon="3.57157">
        <ele>367.06</ele>
        <time>2014-10-18T10:56:15Z</time>
      </trkpt>
      <trkpt lat="46.05535" lon="3.57172">
        <ele>366.57</ele>
        <time>2014-10-18T10:56:20Z</time>
      </trkpt>
      <trkpt lat="46.0552" lon="3.57191">
        <ele>366.55</ele>
        <time>2014-10-18T10:56:25Z</time>
      </trkpt>
      <trkpt lat="46.05506" lon="3.57208">
        <ele>366.55</ele>
        <time>2014-10-18T10:56:30Z</time>
      </trkpt>
      <trkpt lat="46.05492" lon="3.57225">
        <ele>366.55</ele>
        <time>2014-10-18T10:56:35Z</time>
      </trkpt>
      <trkpt lat="46.05476" lon="3.5724">
        <ele>366.05</ele>
        <time>2014-10-18T10:56:40Z</time>
      </trkpt>
      <trkpt lat="46.0546" lon="3.57262">
        <ele>364.19</ele>
        <time>2014-10-18T10:56:45Z</time>
      </trkpt>
      <trkpt lat="46.05443" lon="3.57283">
        <ele>363.57</ele>
        <time>2014-10-18T10:56:50Z</time>
      </trkpt>
      <trkpt lat="46.05425" lon="3.57296">
        <ele>363.55</ele>
        <time>2014-10-18T10:56:55Z</time>
      </trkpt>
      <trkpt lat="46.05405" lon="3.57307">
        <ele>363.05</ele>
        <time>2014-10-18T10:57:00Z</time>
      </trkpt>
      <trkpt lat="46.05386" lon="3.57313">
        <ele>361.13</ele>
        <time>2014-10-18T10:57:05Z</time>
      </trkpt>
      <trkpt lat="46.05365" lon="3.5732">
        <ele>360.07</ele>
        <time>2014-10-18T10:57:10Z</time>
      </trkpt>
      <trkpt lat="46.05346" lon="3.5732">
        <ele>359.59</ele>
        <time>2014-10-18T10:57:14Z</time>
      </trkpt>
      <trkpt lat="46.05328" lon="3.57315">
        <ele>359.56</ele>
        <time>2014-10-18T10:57:18Z</time>
      </trkpt>
      <trkpt lat="46.05304" lon="3.57309">
        <ele>359.55</ele>
        <time>2014-10-18T10:57:28Z</time>
      </trkpt>
      <trkpt lat="46.05283" lon="3.57302">
        <ele>367.33</ele>
        <time>2014-10-18T10:59:49Z</time>
      </trkpt>
      <trkpt lat="46.05263" lon="3.57298">
        <ele>370.96</ele>
        <time>2014-10-18T10:59:55Z</time>
      </trkpt>
      <trkpt lat="46.05243" lon="3.57296">
        <ele>372.42</ele>
        <time>2014-10-18T11:00:01Z</time>
      </trkpt>
      <trkpt lat="46.05225" lon="3.57294">
        <ele>373.49</ele>
        <time>2014-10-18T11:00:07Z</time>
      </trkpt>
      <trkpt lat="46.05206" lon="3.57292">
        <ele>374.52</ele>
        <time>2014-10-18T11:00:13Z</time>
      </trkpt>
      <trkpt lat="46.05188" lon="3.57287">
        <ele>375.52</ele>
        <time>2014-10-18T11:00:19Z</time>
      </trkpt>
      <trkpt lat="46.05168" lon="3.57285">
        <ele>376.49</ele>
        <time>2014-10-18T11:00:25Z</time>
      </trkpt>
      <trkpt lat="46.05149" lon="3.57281">
        <ele>376.55</ele>
        <time>2014-10-18T11:00:31Z</time>
      </trkpt>
      <trkpt lat="46.05131" lon="3.57277">
        <ele>377.05</ele>
        <time>2014-10-18T11:00:36Z</time>
      </trkpt>
      <trkpt lat="46.05111" lon="3.57272">
        <ele>377.55</ele>
        <time>2014-10-18T11:00:42Z</time>
      </trkpt>
      <trkpt lat="46.05092" lon="3.57266">
        <ele>377.55</ele>
        <time>2014-10-18T11:00:48Z</time>
      </trkpt>
      <trkpt lat="46.05075" lon="3.57255">
        <ele>377.55</ele>
        <time>2014-10-18T11:00:55Z</time>
      </trkpt>
      <trkpt lat="46.0506" lon="3.57238">
        <ele>377.55</ele>
        <time>2014-10-18T11:01:03Z</time>
      </trkpt>
      <trkpt lat="46.05046" lon="3.57219">
        <ele>377.55</ele>
        <time>2014-10-18T11:01:12Z</time>
      </trkpt>
      <trkpt lat="46.05031" lon="3.57202">
        <ele>377.55</ele>
        <time>2014-10-18T11:01:21Z</time>
      </trkpt>
      <trkpt lat="46.05018" lon="3.57182">
        <ele>377.55</ele>
        <time>2014-10-18T11:01:29Z</time>
      </trkpt>
      <trkpt lat="46.05008" lon="3.57159">
        <ele>377.55</ele>
        <time>2014-10-18T11:01:38Z</time>
      </trkpt>
      <trkpt lat="46.05" lon="3.57135">
        <ele>377.55</ele>
        <time>2014-10-18T11:01:47Z</time>
      </trkpt>
      <trkpt lat="46.04992" lon="3.57111">
        <ele>377.55</ele>
        <time>2014-10-18T11:01:57Z</time>
      </trkpt>
      <trkpt lat="46.05008" lon="3.57099">
        <ele>378.55</ele>
        <time>2014-10-18T11:02:19Z</time>
      </trkpt>
      <trkpt lat="46.05027" lon="3.57105">
        <ele>379.55</ele>
        <time>2014-10-18T11:02:37Z</time>
      </trkpt>
      <trkpt lat="46.05046" lon="3.57103">
        <ele>380.55</ele>
        <time>2014-10-18T11:02:50Z</time>
      </trkpt>
      <trkpt lat="46.05064" lon="3.57101">
        <ele>382.49</ele>
        <time>2014-10-18T11:03:06Z</time>
      </trkpt>
      <trkpt lat="46.05083" lon="3.57096">
        <ele>383.54</ele>
        <time>2014-10-18T11:03:22Z</time>
      </trkpt>
      <trkpt lat="46.05099" lon="3.57084">
        <ele>384.55</ele>
        <time>2014-10-18T11:03:38Z</time>
      </trkpt>
      <trkpt lat="46.05115" lon="3.57071">
        <ele>387.52</ele>
        <time>2014-10-18T11:03:56Z</time>
      </trkpt>
      <trkpt lat="46.05125" lon="3.57049">
        <ele>391.3</ele>
        <time>2014-10-18T11:04:14Z</time>
      </trkpt>
      <trkpt lat="46.05118" lon="3.57026">
        <ele>397.02</ele>
        <time>2014-10-18T11:04:37Z</time>
      </trkpt>
      <trkpt lat="46.05101" lon="3.57034">
        <ele>404.23</ele>
        <time>2014-10-18T11:04:57Z</time>
      </trkpt>
      <trkpt lat="46.05083" lon="3.57026">
        <ele>410.27</ele>
        <time>2014-10-18T11:05:14Z</time>
      </trkpt>
      <trkpt lat="46.05071" lon="3.57004">
        <ele>416.27</ele>
        <time>2014-10-18T11:05:34Z</time>
      </trkpt>
      <trkpt lat="46.05063" lon="3.56978">
        <ele>419.29</ele>
        <time>2014-10-18T11:05:47Z</time>
      </trkpt>
      <trkpt lat="46.0505" lon="3.56957">
        <ele>422.49</ele>
        <time>2014-10-18T11:06:04Z</time>
      </trkpt>
      <trkpt lat="46.05037" lon="3.56938">
        <ele>425.52</ele>
        <time>2014-10-18T11:06:22Z</time>
      </trkpt>
      <trkpt lat="46.05024" lon="3.5692">
        <ele>427.52</ele>
        <time>2014-10-18T11:06:33Z</time>
      </trkpt>
      <trkpt lat="46.05017" lon="3.56895">
        <ele>428.54</ele>
        <time>2014-10-18T11:06:43Z</time>
      </trkpt>
      <trkpt lat="46.05016" lon="3.56867">
        <ele>429.55</ele>
        <time>2014-10-18T11:06:57Z</time>
      </trkpt>
      <trkpt lat="46.05016" lon="3.56839">
        <ele>430.55</ele>
        <time>2014-10-18T11:07:10Z</time>
      </trkpt>
      <trkpt lat="46.05008" lon="3.56815">
        <ele>432.05</ele>
        <time>2014-10-18T11:07:20Z</time>
      </trkpt>
      <trkpt lat="46.04992" lon="3.56802">
        <ele>435.79</ele>
        <time>2014-10-18T11:07:25Z</time>
      </trkpt>
      <trkpt lat="46.04971" lon="3.56787">
        <ele>441.38</ele>
        <time>2014-10-18T11:07:29Z</time>
      </trkpt>
      <trkpt lat="46.04949" lon="3.56772">
        <ele>444.17</ele>
        <time>2014-10-18T11:07:33Z</time>
      </trkpt>
      <trkpt lat="46.04931" lon="3.5677">
        <ele>445.38</ele>
        <time>2014-10-18T11:07:36Z</time>
      </trkpt>
      <trkpt lat="46.04912" lon="3.56775">
        <ele>444.67</ele>
        <time>2014-10-18T11:07:40Z</time>
      </trkpt>
      <trkpt lat="46.04893" lon="3.56772">
        <ele>443.62</ele>
        <time>2014-10-18T11:07:44Z</time>
      </trkpt>
      <trkpt lat="46.04874" lon="3.56766">
        <ele>443.56</ele>
        <time>2014-10-18T11:07:48Z</time>
      </trkpt>
      <trkpt lat="46.04857" lon="3.56751">
        <ele>444.3</ele>
        <time>2014-10-18T11:07:52Z</time>
      </trkpt>
      <trkpt lat="46.04839" lon="3.56732">
        <ele>445.51</ele>
        <time>2014-10-18T11:07:57Z</time>
      </trkpt>
      <trkpt lat="46.04824" lon="3.56712">
        <ele>445.05</ele>
        <time>2014-10-18T11:08:03Z</time>
      </trkpt>
      <trkpt lat="46.04806" lon="3.56708">
        <ele>444.05</ele>
        <time>2014-10-18T11:08:12Z</time>
      </trkpt>
      <trkpt lat="46.04808" lon="3.5674">
        <ele>443.55</ele>
        <time>2014-10-18T11:08:31Z</time>
      </trkpt>
      <trkpt lat="46.04813" lon="3.56772">
        <ele>442.55</ele>
        <time>2014-10-18T11:08:50Z</time>
      </trkpt>
      <trkpt lat="46.04805" lon="3.56807">
        <ele>444.55</ele>
        <time>2014-10-18T11:09:21Z</time>
      </trkpt>
      <trkpt lat="46.04808" lon="3.56839">
        <ele>445.55</ele>
        <time>2014-10-18T11:09:39Z</time>
      </trkpt>
      <trkpt lat="46.0482" lon="3.56863">
        <ele>446.55</ele>
        <time>2014-10-18T11:09:56Z</time>
      </trkpt>
      <trkpt lat="46.04829" lon="3.56886">
        <ele>447.04</ele>
        <time>2014-10-18T11:10:09Z</time>
      </trkpt>
      <trkpt lat="46.04829" lon="3.56925">
        <ele>446.05</ele>
        <time>2014-10-18T11:10:22Z</time>
      </trkpt>
      <trkpt lat="46.0482" lon="3.56948">
        <ele>446.55</ele>
        <time>2014-10-18T11:11:24Z</time>
      </trkpt>
      <trkpt lat="46.04805" lon="3.56963">
        <ele>446.3</ele>
        <time>2014-10-18T11:11:39Z</time>
      </trkpt>
      <trkpt lat="46.04786" lon="3.56966">
        <ele>447.43</ele>
        <time>2014-10-18T11:11:50Z</time>
      </trkpt>
      <trkpt lat="46.04768" lon="3.5697">
        <ele>448.54</ele>
        <time>2014-10-18T11:12:03Z</time>
      </trkpt>
      <trkpt lat="46.04749" lon="3.5697">
        <ele>449.55</ele>
        <time>2014-10-18T11:12:14Z</time>
      </trkpt>
      <trkpt lat="46.04731" lon="3.5697">
        <ele>451.43</ele>
        <time>2014-10-18T11:12:26Z</time>
      </trkpt>
      <trkpt lat="46.04711" lon="3.56974">
        <ele>452.54</ele>
        <time>2014-10-18T11:12:38Z</time>
      </trkpt>
      <trkpt lat="46.04693" lon="3.56974">
        <ele>453.49</ele>
        <time>2014-10-18T11:12:46Z</time>
      </trkpt>
      <trkpt lat="46.04676" lon="3.56966">
        <ele>455.55</ele>
        <time>2014-10-18T11:13:18Z</time>
      </trkpt>
      <trkpt lat="46.04656" lon="3.56966">
        <ele>455.55</ele>
        <time>2014-10-18T11:13:44Z</time>
      </trkpt>
      <trkpt lat="46.04635" lon="3.56968">
        <ele>456.49</ele>
        <time>2014-10-18T11:13:48Z</time>
      </trkpt>
      <trkpt lat="46.04616" lon="3.5697">
        <ele>456.55</ele>
        <time>2014-10-18T11:13:51Z</time>
      </trkpt>
      <trkpt lat="46.04598" lon="3.56983">
        <ele>456.05</ele>
        <time>2014-10-18T11:13:54Z</time>
      </trkpt>
      <trkpt lat="46.04585" lon="3.57004">
        <ele>455.58</ele>
        <time>2014-10-18T11:13:58Z</time>
      </trkpt>
      <trkpt lat="46.04574" lon="3.5703">
        <ele>455.55</ele>
        <time>2014-10-18T11:14:07Z</time>
      </trkpt>
      <trkpt lat="46.04557" lon="3.57051">
        <ele>456.55</ele>
        <time>2014-10-18T11:14:18Z</time>
      </trkpt>
      <trkpt lat="46.0454" lon="3.57064">
        <ele>457.3</ele>
        <time>2014-10-18T11:14:25Z</time>
      </trkpt>
      <trkpt lat="46.0452" lon="3.57071">
        <ele>458.79</ele>
        <time>2014-10-18T11:14:29Z</time>
      </trkpt>
      <trkpt lat="46.04501" lon="3.57073">
        <ele>459.46</ele>
        <time>2014-10-18T11:14:32Z</time>
      </trkpt>
      <trkpt lat="46.04478" lon="3.57081">
        <ele>459.55</ele>
        <time>2014-10-18T11:14:36Z</time>
      </trkpt>
      <trkpt lat="46.04462" lon="3.57096">
        <ele>459.55</ele>
        <time>2014-10-18T11:14:42Z</time>
      </trkpt>
      <trkpt lat="46.04448" lon="3.57116">
        <ele>459.55</ele>
        <time>2014-10-18T11:14:48Z</time>
      </trkpt>
      <trkpt lat="46.04436" lon="3.57135">
        <ele>459.55</ele>
        <time>2014-10-18T11:14:54Z</time>
      </trkpt>
      <trkpt lat="46.04423" lon="3.57154">
        <ele>459.55</ele>
        <time>2014-10-18T11:15:00Z</time>
      </trkpt>
      <trkpt lat="46.0441" lon="3.57176">
        <ele>459.55</ele>
        <time>2014-10-18T11:15:06Z</time>
      </trkpt>
      <trkpt lat="46.04396" lon="3.57199">
        <ele>460.49</ele>
        <time>2014-10-18T11:15:12Z</time>
      </trkpt>
      <trkpt lat="46.04381" lon="3.57221">
        <ele>460.55</ele>
        <time>2014-10-18T11:15:17Z</time>
      </trkpt>
      <trkpt lat="46.04365" lon="3.57234">
        <ele>460.55</ele>
        <time>2014-10-18T11:15:21Z</time>
      </trkpt>
      <trkpt lat="46.04342" lon="3.57234">
        <ele>461.05</ele>
        <time>2014-10-18T11:15:25Z</time>
      </trkpt>
      <trkpt lat="46.04323" lon="3.57217">
        <ele>461.49</ele>
        <time>2014-10-18T11:15:28Z</time>
      </trkpt>
      <trkpt lat="46.04305" lon="3.57202">
        <ele>461.05</ele>
        <time>2014-10-18T11:15:31Z</time>
      </trkpt>
      <trkpt lat="46.04282" lon="3.57212">
        <ele>459.36</ele>
        <time>2014-10-18T11:15:34Z</time>
      </trkpt>
      <trkpt lat="46.04267" lon="3.57232">
        <ele>458.01</ele>
        <time>2014-10-18T11:15:36Z</time>
      </trkpt>
      <trkpt lat="46.0425" lon="3.57249">
        <ele>457.67</ele>
        <time>2014-10-18T11:15:38Z</time>
      </trkpt>
      <trkpt lat="46.04234" lon="3.57266">
        <ele>456.83</ele>
        <time>2014-10-18T11:15:40Z</time>
      </trkpt>
      <trkpt lat="46.04219" lon="3.57285">
        <ele>455.84</ele>
        <time>2014-10-18T11:15:43Z</time>
      </trkpt>
      <trkpt lat="46.04204" lon="3.57309">
        <ele>455.55</ele>
        <time>2014-10-18T11:15:52Z</time>
      </trkpt>
      <trkpt lat="46.04192" lon="3.57335">
        <ele>455.55</ele>
        <time>2014-10-18T11:16:07Z</time>
      </trkpt>
      <trkpt lat="46.04183" lon="3.57363">
        <ele>455.52</ele>
        <time>2014-10-18T11:16:22Z</time>
      </trkpt>
      <trkpt lat="46.04171" lon="3.57384">
        <ele>456.52</ele>
        <time>2014-10-18T11:16:39Z</time>
      </trkpt>
      <trkpt lat="46.04154" lon="3.57403">
        <ele>457.05</ele>
        <time>2014-10-18T11:16:55Z</time>
      </trkpt>
      <trkpt lat="46.04138" lon="3.57418">
        <ele>458.49</ele>
        <time>2014-10-18T11:17:05Z</time>
      </trkpt>
      <trkpt lat="46.04123" lon="3.57433">
        <ele>459.52</ele>
        <time>2014-10-18T11:17:17Z</time>
      </trkpt>
      <trkpt lat="46.04106" lon="3.57446">
        <ele>461.05</ele>
        <time>2014-10-18T11:17:31Z</time>
      </trkpt>
      <trkpt lat="46.04087" lon="3.57457">
        <ele>463.02</ele>
        <time>2014-10-18T11:17:46Z</time>
      </trkpt>
      <trkpt lat="46.04069" lon="3.5747">
        <ele>466.02</ele>
        <time>2014-10-18T11:18:00Z</time>
      </trkpt>
      <trkpt lat="46.04046" lon="3.57483">
        <ele>470.05</ele>
        <time>2014-10-18T11:18:20Z</time>
      </trkpt>
      <trkpt lat="46.04023" lon="3.57491">
        <ele>473.05</ele>
        <time>2014-10-18T11:18:39Z</time>
      </trkpt>
      <trkpt lat="46.04006" lon="3.57504">
        <ele>475.49</ele>
        <time>2014-10-18T11:18:52Z</time>
      </trkpt>
      <trkpt lat="46.03989" lon="3.57515">
        <ele>478.3</ele>
        <time>2014-10-18T11:19:08Z</time>
      </trkpt>
      <trkpt lat="46.03971" lon="3.57517">
        <ele>480.54</ele>
        <time>2014-10-18T11:19:22Z</time>
      </trkpt>
      <trkpt lat="46.03953" lon="3.57519">
        <ele>482.52</ele>
        <time>2014-10-18T11:19:33Z</time>
      </trkpt>
      <trkpt lat="46.03935" lon="3.57517">
        <ele>484.52</ele>
        <time>2014-10-18T11:19:44Z</time>
      </trkpt>
      <trkpt lat="46.03916" lon="3.57513">
        <ele>487.43</ele>
        <time>2014-10-18T11:19:59Z</time>
      </trkpt>
      <trkpt lat="46.03898" lon="3.57504">
        <ele>488.3</ele>
        <time>2014-10-18T11:20:11Z</time>
      </trkpt>
      <trkpt lat="46.0388" lon="3.57498">
        <ele>489.49</ele>
        <time>2014-10-18T11:20:25Z</time>
      </trkpt>
      <trkpt lat="46.03862" lon="3.57496">
        <ele>492.3</ele>
        <time>2014-10-18T11:20:42Z</time>
      </trkpt>
      <trkpt lat="46.03844" lon="3.57504">
        <ele>497.27</ele>
        <time>2014-10-18T11:21:02Z</time>
      </trkpt>
      <trkpt lat="46.03827" lon="3.57515">
        <ele>501.52</ele>
        <time>2014-10-18T11:21:20Z</time>
      </trkpt>
      <trkpt lat="46.0381" lon="3.57523">
        <ele>505.02</ele>
        <time>2014-10-18T11:21:35Z</time>
      </trkpt>
      <trkpt lat="46.03792" lon="3.5753">
        <ele>509.02</ele>
        <time>2014-10-18T11:21:54Z</time>
      </trkpt>
      <trkpt lat="46.03774" lon="3.5753">
        <ele>512.49</ele>
        <time>2014-10-18T11:22:09Z</time>
      </trkpt>
      <trkpt lat="46.03755" lon="3.57534">
        <ele>516.42</ele>
        <time>2014-10-18T11:22:23Z</time>
      </trkpt>
      <trkpt lat="46.03737" lon="3.57543">
        <ele>519.49</ele>
        <time>2014-10-18T11:22:35Z</time>
      </trkpt>
      <trkpt lat="46.03721" lon="3.57556">
        <ele>523.29</ele>
        <time>2014-10-18T11:22:48Z</time>
      </trkpt>
      <trkpt lat="46.03703" lon="3.57566">
        <ele>527.02</ele>
        <time>2014-10-18T11:23:02Z</time>
      </trkpt>
      <trkpt lat="46.03685" lon="3.57575">
        <ele>530.04</ele>
        <time>2014-10-18T11:23:15Z</time>
      </trkpt>
      <trkpt lat="46.03666" lon="3.57579">
        <ele>532.49</ele>
        <time>2014-10-18T11:23:26Z</time>
      </trkpt>
      <trkpt lat="46.03647" lon="3.57588">
        <ele>535.48</ele>
        <time>2014-10-18T11:23:36Z</time>
      </trkpt>
      <trkpt lat="46.03629" lon="3.57592">
        <ele>538.02</ele>
        <time>2014-10-18T11:23:45Z</time>
      </trkpt>
      <trkpt lat="46.03609" lon="3.57599">
        <ele>540.42</ele>
        <time>2014-10-18T11:23:56Z</time>
      </trkpt>
      <trkpt lat="46.0359" lon="3.57601">
        <ele>542.04</ele>
        <time>2014-10-18T11:24:06Z</time>
      </trkpt>
      <trkpt lat="46.03572" lon="3.57603">
        <ele>543.49</ele>
        <time>2014-10-18T11:24:14Z</time>
      </trkpt>
      <trkpt lat="46.03552" lon="3.57603">
        <ele>545.42</ele>
        <time>2014-10-18T11:24:22Z</time>
      </trkpt>
      <trkpt lat="46.03532" lon="3.57603">
        <ele>546.54</ele>
        <time>2014-10-18T11:24:31Z</time>
      </trkpt>
      <trkpt lat="46.03513" lon="3.57603">
        <ele>548.42</ele>
        <time>2014-10-18T11:24:39Z</time>
      </trkpt>
      <trkpt lat="46.03494" lon="3.57601">
        <ele>549.52</ele>
        <time>2014-10-18T11:24:46Z</time>
      </trkpt>
      <trkpt lat="46.03475" lon="3.57599">
        <ele>551.42</ele>
        <time>2014-10-18T11:24:54Z</time>
      </trkpt>
      <trkpt lat="46.03456" lon="3.57596">
        <ele>552.52</ele>
        <time>2014-10-18T11:25:03Z</time>
      </trkpt>
      <trkpt lat="46.03438" lon="3.57594">
        <ele>554.49</ele>
        <time>2014-10-18T11:25:11Z</time>
      </trkpt>
      <trkpt lat="46.0342" lon="3.57594">
        <ele>556.49</ele>
        <time>2014-10-18T11:25:19Z</time>
      </trkpt>
      <trkpt lat="46.03401" lon="3.57594">
        <ele>558.05</ele>
        <time>2014-10-18T11:25:27Z</time>
      </trkpt>
      <trkpt lat="46.03382" lon="3.57594">
        <ele>559.43</ele>
        <time>2014-10-18T11:25:37Z</time>
      </trkpt>
      <trkpt lat="46.03362" lon="3.57596">
        <ele>561.02</ele>
        <time>2014-10-18T11:25:45Z</time>
      </trkpt>
      <trkpt lat="46.03343" lon="3.57594">
        <ele>562.29</ele>
        <time>2014-10-18T11:25:51Z</time>
      </trkpt>
      <trkpt lat="46.03323" lon="3.5759">
        <ele>562.55</ele>
        <time>2014-10-18T11:25:57Z</time>
      </trkpt>
      <trkpt lat="46.03305" lon="3.5759">
        <ele>563.49</ele>
        <time>2014-10-18T11:26:02Z</time>
      </trkpt>
      <trkpt lat="46.03284" lon="3.5759">
        <ele>564.49</ele>
        <time>2014-10-18T11:26:08Z</time>
      </trkpt>
      <trkpt lat="46.03265" lon="3.57588">
        <ele>565.52</ele>
        <time>2014-10-18T11:26:14Z</time>
      </trkpt>
      <trkpt lat="46.03245" lon="3.57588">
        <ele>566.49</ele>
        <time>2014-10-18T11:26:21Z</time>
      </trkpt>
      <trkpt lat="46.03225" lon="3.57586">
        <ele>567.05</ele>
        <time>2014-10-18T11:26:28Z</time>
      </trkpt>
      <trkpt lat="46.03207" lon="3.57584">
        <ele>567.55</ele>
        <time>2014-10-18T11:26:36Z</time>
      </trkpt>
      <trkpt lat="46.03189" lon="3.57584">
        <ele>568.3</ele>
        <time>2014-10-18T11:26:45Z</time>
      </trkpt>
      <trkpt lat="46.03171" lon="3.57584">
        <ele>568.55</ele>
        <time>2014-10-18T11:26:53Z</time>
      </trkpt>
      <trkpt lat="46.03152" lon="3.57586">
        <ele>568.55</ele>
        <time>2014-10-18T11:26:59Z</time>
      </trkpt>
      <trkpt lat="46.03134" lon="3.57581">
        <ele>569.05</ele>
        <time>2014-10-18T11:27:04Z</time>
      </trkpt>
      <trkpt lat="46.03116" lon="3.57577">
        <ele>569.54</ele>
        <time>2014-10-18T11:27:09Z</time>
      </trkpt>
      <trkpt lat="46.03097" lon="3.57575">
        <ele>570.43</ele>
        <time>2014-10-18T11:27:15Z</time>
      </trkpt>
      <trkpt lat="46.03078" lon="3.57571">
        <ele>571.05</ele>
        <time>2014-10-18T11:27:21Z</time>
      </trkpt>
      <trkpt lat="46.0306" lon="3.57566">
        <ele>571.55</ele>
        <time>2014-10-18T11:27:27Z</time>
      </trkpt>
      <trkpt lat="46.0304" lon="3.57564">
        <ele>572.55</ele>
        <time>2014-10-18T11:27:34Z</time>
      </trkpt>
      <trkpt lat="46.0302" lon="3.57573">
        <ele>573.55</ele>
        <time>2014-10-18T11:27:42Z</time>
      </trkpt>
      <trkpt lat="46.03011" lon="3.57599">
        <ele>574.54</ele>
        <time>2014-10-18T11:27:49Z</time>
      </trkpt>
      <trkpt lat="46.03" lon="3.57622">
        <ele>575.52</ele>
        <time>2014-10-18T11:27:56Z</time>
      </trkpt>
      <trkpt lat="46.02986" lon="3.57641">
        <ele>575.55</ele>
        <time>2014-10-18T11:28:03Z</time>
      </trkpt>
      <trkpt lat="46.02969" lon="3.57654">
        <ele>576.54</ele>
        <time>2014-10-18T11:28:09Z</time>
      </trkpt>
      <trkpt lat="46.02952" lon="3.57646">
        <ele>576.55</ele>
        <time>2014-10-18T11:28:14Z</time>
      </trkpt>
      <trkpt lat="46.02932" lon="3.57633">
        <ele>577.3</ele>
        <time>2014-10-18T11:28:20Z</time>
      </trkpt>
      <trkpt lat="46.02912" lon="3.57635">
        <ele>577.55</ele>
        <time>2014-10-18T11:28:26Z</time>
      </trkpt>
      <trkpt lat="46.02892" lon="3.57641">
        <ele>577.55</ele>
        <time>2014-10-18T11:28:32Z</time>
      </trkpt>
      <trkpt lat="46.02871" lon="3.57644">
        <ele>578.3</ele>
        <time>2014-10-18T11:28:38Z</time>
      </trkpt>
      <trkpt lat="46.02853" lon="3.57648">
        <ele>578.55</ele>
        <time>2014-10-18T11:28:44Z</time>
      </trkpt>
      <trkpt lat="46.02834" lon="3.57652">
        <ele>578.55</ele>
        <time>2014-10-18T11:28:50Z</time>
      </trkpt>
      <trkpt lat="46.02813" lon="3.57656">
        <ele>579.54</ele>
        <time>2014-10-18T11:28:56Z</time>
      </trkpt>
      <trkpt lat="46.02793" lon="3.57652">
        <ele>579.55</ele>
        <time>2014-10-18T11:29:02Z</time>
      </trkpt>
      <trkpt lat="46.02782" lon="3.57629">
        <ele>580.52</ele>
        <time>2014-10-18T11:29:07Z</time>
      </trkpt>
      <trkpt lat="46.02781" lon="3.57601">
        <ele>580.55</ele>
        <time>2014-10-18T11:29:12Z</time>
      </trkpt>
      <trkpt lat="46.02785" lon="3.57573">
        <ele>581.52</ele>
        <time>2014-10-18T11:29:17Z</time>
      </trkpt>
      <trkpt lat="46.02767" lon="3.57571">
        <ele>583.37</ele>
        <time>2014-10-18T11:29:26Z</time>
      </trkpt>
      <trkpt lat="46.02761" lon="3.57596">
        <ele>583.53</ele>
        <time>2014-10-18T11:29:29Z</time>
      </trkpt>
      <trkpt lat="46.0275" lon="3.57622">
        <ele>583.55</ele>
        <time>2014-10-18T11:29:33Z</time>
      </trkpt>
      <trkpt lat="46.02738" lon="3.57646">
        <ele>583.55</ele>
        <time>2014-10-18T11:29:37Z</time>
      </trkpt>
      <trkpt lat="46.02722" lon="3.57665">
        <ele>583.55</ele>
        <time>2014-10-18T11:29:42Z</time>
      </trkpt>
      <trkpt lat="46.02704" lon="3.57676">
        <ele>583.55</ele>
        <time>2014-10-18T11:29:49Z</time>
      </trkpt>
      <trkpt lat="46.02681" lon="3.57682">
        <ele>582.8</ele>
        <time>2014-10-18T11:29:55Z</time>
      </trkpt>
      <trkpt lat="46.02658" lon="3.57687">
        <ele>581.82</ele>
        <time>2014-10-18T11:29:59Z</time>
      </trkpt>
      <trkpt lat="46.02638" lon="3.57689">
        <ele>580.84</ele>
        <time>2014-10-18T11:30:02Z</time>
      </trkpt>
      <trkpt lat="46.02617" lon="3.57691">
        <ele>579.84</ele>
        <time>2014-10-18T11:30:05Z</time>
      </trkpt>
      <trkpt lat="46.02592" lon="3.57689">
        <ele>578.21</ele>
        <time>2014-10-18T11:30:08Z</time>
      </trkpt>
      <trkpt lat="46.0257" lon="3.57689">
        <ele>576.89</ele>
        <time>2014-10-18T11:30:11Z</time>
      </trkpt>
      <trkpt lat="46.02552" lon="3.57682">
        <ele>575.84</ele>
        <time>2014-10-18T11:30:14Z</time>
      </trkpt>
      <trkpt lat="46.02533" lon="3.57676">
        <ele>575.59</ele>
        <time>2014-10-18T11:30:17Z</time>
      </trkpt>
      <trkpt lat="46.02512" lon="3.57669">
        <ele>575.06</ele>
        <time>2014-10-18T11:30:20Z</time>
      </trkpt>
      <trkpt lat="46.02486" lon="3.57663">
        <ele>573.37</ele>
        <time>2014-10-18T11:30:23Z</time>
      </trkpt>
      <trkpt lat="46.02467" lon="3.57659">
        <ele>571.51</ele>
        <time>2014-10-18T11:30:25Z</time>
      </trkpt>
      <trkpt lat="46.02446" lon="3.57656">
        <ele>570.29</ele>
        <time>2014-10-18T11:30:27Z</time>
      </trkpt>
      <trkpt lat="46.02425" lon="3.57661">
        <ele>568.49</ele>
        <time>2014-10-18T11:30:29Z</time>
      </trkpt>
      <trkpt lat="46.02406" lon="3.57671">
        <ele>567.29</ele>
        <time>2014-10-18T11:30:31Z</time>
      </trkpt>
      <trkpt lat="46.02389" lon="3.5768">
        <ele>566.24</ele>
        <time>2014-10-18T11:30:33Z</time>
      </trkpt>
      <trkpt lat="46.02368" lon="3.57689">
        <ele>564.47</ele>
        <time>2014-10-18T11:30:35Z</time>
      </trkpt>
      <trkpt lat="46.02346" lon="3.57695">
        <ele>563.28</ele>
        <time>2014-10-18T11:30:37Z</time>
      </trkpt>
      <trkpt lat="46.02326" lon="3.57699">
        <ele>561.49</ele>
        <time>2014-10-18T11:30:39Z</time>
      </trkpt>
      <trkpt lat="46.02308" lon="3.57706">
        <ele>560.29</ele>
        <time>2014-10-18T11:30:41Z</time>
      </trkpt>
      <trkpt lat="46.02282" lon="3.57704">
        <ele>558.89</ele>
        <time>2014-10-18T11:30:44Z</time>
      </trkpt>
      <trkpt lat="46.0226" lon="3.57691">
        <ele>557.85</ele>
        <time>2014-10-18T11:30:47Z</time>
      </trkpt>
      <trkpt lat="46.02239" lon="3.57678">
        <ele>556.21</ele>
        <time>2014-10-18T11:30:50Z</time>
      </trkpt>
      <trkpt lat="46.02219" lon="3.57661">
        <ele>554.89</ele>
        <time>2014-10-18T11:30:53Z</time>
      </trkpt>
      <trkpt lat="46.02194" lon="3.5765">
        <ele>553.72</ele>
        <time>2014-10-18T11:30:56Z</time>
      </trkpt>
      <trkpt lat="46.02171" lon="3.57648">
        <ele>552.2</ele>
        <time>2014-10-18T11:30:59Z</time>
      </trkpt>
      <trkpt lat="46.02148" lon="3.57663">
        <ele>550.26</ele>
        <time>2014-10-18T11:31:02Z</time>
      </trkpt>
      <trkpt lat="46.02131" lon="3.57678">
        <ele>549.23</ele>
        <time>2014-10-18T11:31:04Z</time>
      </trkpt>
      <trkpt lat="46.0211" lon="3.57689">
        <ele>548.22</ele>
        <time>2014-10-18T11:31:06Z</time>
      </trkpt>
      <trkpt lat="46.02086" lon="3.57695">
        <ele>544.72</ele>
        <time>2014-10-18T11:31:08Z</time>
      </trkpt>
      <trkpt lat="46.02064" lon="3.57699">
        <ele>540.59</ele>
        <time>2014-10-18T11:31:10Z</time>
      </trkpt>
      <trkpt lat="46.02044" lon="3.57706">
        <ele>536.81</ele>
        <time>2014-10-18T11:31:12Z</time>
      </trkpt>
      <trkpt lat="46.02024" lon="3.57712">
        <ele>532.62</ele>
        <time>2014-10-18T11:31:14Z</time>
      </trkpt>
      <trkpt lat="46.02004" lon="3.57719">
        <ele>528.57</ele>
        <time>2014-10-18T11:31:16Z</time>
      </trkpt>
      <trkpt lat="46.01986" lon="3.57721">
        <ele>525.06</ele>
        <time>2014-10-18T11:31:18Z</time>
      </trkpt>
      <trkpt lat="46.0196" lon="3.5771">
        <ele>520.24</ele>
        <time>2014-10-18T11:31:21Z</time>
      </trkpt>
      <trkpt lat="46.01942" lon="3.57702">
        <ele>516.47</ele>
        <time>2014-10-18T11:31:23Z</time>
      </trkpt>
      <trkpt lat="46.01925" lon="3.57691">
        <ele>513.03</ele>
        <time>2014-10-18T11:31:25Z</time>
      </trkpt>
      <trkpt lat="46.01907" lon="3.57682">
        <ele>509.92</ele>
        <time>2014-10-18T11:31:27Z</time>
      </trkpt>
      <trkpt lat="46.01889" lon="3.57676">
        <ele>507.65</ele>
        <time>2014-10-18T11:31:29Z</time>
      </trkpt>
      <trkpt lat="46.01866" lon="3.57669">
        <ele>504.56</ele>
        <time>2014-10-18T11:31:32Z</time>
      </trkpt>
      <trkpt lat="46.01863" lon="3.57641">
        <ele>500.3</ele>
        <time>2014-10-18T11:31:36Z</time>
      </trkpt>
      <trkpt lat="46.01865" lon="3.57614">
        <ele>498.06</ele>
        <time>2014-10-18T11:31:44Z</time>
      </trkpt>
      <trkpt lat="46.01846" lon="3.57624">
        <ele>496.62</ele>
        <time>2014-10-18T11:31:51Z</time>
      </trkpt>
      <trkpt lat="46.01826" lon="3.57635">
        <ele>491.37</ele>
        <time>2014-10-18T11:31:55Z</time>
      </trkpt>
      <trkpt lat="46.01806" lon="3.57648">
        <ele>486.6</ele>
        <time>2014-10-18T11:31:59Z</time>
      </trkpt>
      <trkpt lat="46.01795" lon="3.57669">
        <ele>484.31</ele>
        <time>2014-10-18T11:32:02Z</time>
      </trkpt>
      <trkpt lat="46.01787" lon="3.57697">
        <ele>482.27</ele>
        <time>2014-10-18T11:32:05Z</time>
      </trkpt>
      <trkpt lat="46.01776" lon="3.57721">
        <ele>481.14</ele>
        <time>2014-10-18T11:32:08Z</time>
      </trkpt>
      <trkpt lat="46.01758" lon="3.57747">
        <ele>480.55</ele>
        <time>2014-10-18T11:32:18Z</time>
      </trkpt>
      <trkpt lat="46.01755" lon="3.57783">
        <ele>479.56</ele>
        <time>2014-10-18T11:32:34Z</time>
      </trkpt>
      <trkpt lat="46.01762" lon="3.57809">
        <ele>478.55</ele>
        <time>2014-10-18T11:32:53Z</time>
      </trkpt>
      <trkpt lat="46.01775" lon="3.57837">
        <ele>479.05</ele>
        <time>2014-10-18T11:33:12Z</time>
      </trkpt>
      <trkpt lat="46.01788" lon="3.57856">
        <ele>482.29</ele>
        <time>2014-10-18T11:33:35Z</time>
      </trkpt>
      <trkpt lat="46.01805" lon="3.57871">
        <ele>484.49</ele>
        <time>2014-10-18T11:33:50Z</time>
      </trkpt>
      <trkpt lat="46.0182" lon="3.57886">
        <ele>486.05</ele>
        <time>2014-10-18T11:34:05Z</time>
      </trkpt>
      <trkpt lat="46.01834" lon="3.57903">
        <ele>487.49</ele>
        <time>2014-10-18T11:34:16Z</time>
      </trkpt>
      <trkpt lat="46.01847" lon="3.57923">
        <ele>488.05</ele>
        <time>2014-10-18T11:34:27Z</time>
      </trkpt>
      <trkpt lat="46.01862" lon="3.57955">
        <ele>488.55</ele>
        <time>2014-10-18T11:34:45Z</time>
      </trkpt>
      <trkpt lat="46.01862" lon="3.57983">
        <ele>488.05</ele>
        <time>2014-10-18T11:34:57Z</time>
      </trkpt>
      <trkpt lat="46.01846" lon="3.58">
        <ele>487.05</ele>
        <time>2014-10-18T11:35:06Z</time>
      </trkpt>
      <trkpt lat="46.01837" lon="3.58023">
        <ele>485.07</ele>
        <time>2014-10-18T11:35:15Z</time>
      </trkpt>
      <trkpt lat="46.01824" lon="3.58043">
        <ele>482.06</ele>
        <time>2014-10-18T11:35:30Z</time>
      </trkpt>
      <trkpt lat="46.01807" lon="3.58051">
        <ele>482.3</ele>
        <time>2014-10-18T11:35:46Z</time>
      </trkpt>
      <trkpt lat="46.01789" lon="3.58051">
        <ele>484.54</ele>
        <time>2014-10-18T11:36:01Z</time>
      </trkpt>
      <trkpt lat="46.01772" lon="3.58041">
        <ele>485.55</ele>
        <time>2014-10-18T11:36:16Z</time>
      </trkpt>
      <trkpt lat="46.01753" lon="3.58028">
        <ele>485.55</ele>
        <time>2014-10-18T11:36:26Z</time>
      </trkpt>
      <trkpt lat="46.01736" lon="3.58015">
        <ele>486.3</ele>
        <time>2014-10-18T11:36:35Z</time>
      </trkpt>
      <trkpt lat="46.01718" lon="3.58006">
        <ele>488.42</ele>
        <time>2014-10-18T11:36:45Z</time>
      </trkpt>
      <trkpt lat="46.017" lon="3.58011">
        <ele>491.98</ele>
        <time>2014-10-18T11:36:57Z</time>
      </trkpt>
      <trkpt lat="46.01681" lon="3.58017">
        <ele>495.89</ele>
        <time>2014-10-18T11:37:07Z</time>
      </trkpt>
      <trkpt lat="46.01662" lon="3.58023">
        <ele>500.97</ele>
        <time>2014-10-18T11:37:19Z</time>
      </trkpt>
      <trkpt lat="46.01644" lon="3.58028">
        <ele>506.98</ele>
        <time>2014-10-18T11:37:36Z</time>
      </trkpt>
      <trkpt lat="46.01625" lon="3.58023">
        <ele>510.27</ele>
        <time>2014-10-18T11:37:47Z</time>
      </trkpt>
      <trkpt lat="46.01611" lon="3.58006">
        <ele>514.55</ele>
        <time>2014-10-18T11:38:14Z</time>
      </trkpt>
      <trkpt lat="46.01592" lon="3.58008">
        <ele>516.55</ele>
        <time>2014-10-18T11:39:07Z</time>
      </trkpt>
      <trkpt lat="46.01574" lon="3.58013">
        <ele>519.05</ele>
        <time>2014-10-18T11:39:28Z</time>
      </trkpt>
      <trkpt lat="46.01556" lon="3.58019">
        <ele>521.05</ele>
        <time>2014-10-18T11:39:43Z</time>
      </trkpt>
      <trkpt lat="46.01537" lon="3.58019">
        <ele>523.49</ele>
        <time>2014-10-18T11:39:59Z</time>
      </trkpt>
      <trkpt lat="46.01517" lon="3.58013">
        <ele>525.05</ele>
        <time>2014-10-18T11:40:10Z</time>
      </trkpt>
      <trkpt lat="46.01499" lon="3.58002">
        <ele>527.02</ele>
        <time>2014-10-18T11:40:18Z</time>
      </trkpt>
      <trkpt lat="46.01482" lon="3.57993">
        <ele>528.42</ele>
        <time>2014-10-18T11:40:25Z</time>
      </trkpt>
      <trkpt lat="46.01465" lon="3.57985">
        <ele>529.49</ele>
        <time>2014-10-18T11:40:31Z</time>
      </trkpt>
      <trkpt lat="46.01445" lon="3.57978">
        <ele>530.54</ele>
        <time>2014-10-18T11:40:38Z</time>
      </trkpt>
      <trkpt lat="46.01426" lon="3.5797">
        <ele>531.55</ele>
        <time>2014-10-18T11:40:47Z</time>
      </trkpt>
      <trkpt lat="46.01411" lon="3.57953">
        <ele>531.55</ele>
        <time>2014-10-18T11:40:55Z</time>
      </trkpt>
      <trkpt lat="46.01397" lon="3.57933">
        <ele>531.55</ele>
        <time>2014-10-18T11:41:04Z</time>
      </trkpt>
      <trkpt lat="46.01386" lon="3.57912">
        <ele>532.43</ele>
        <time>2014-10-18T11:41:12Z</time>
      </trkpt>
      <trkpt lat="46.01376" lon="3.57888">
        <ele>533.43</ele>
        <time>2014-10-18T11:41:21Z</time>
      </trkpt>
      <trkpt lat="46.01361" lon="3.57873">
        <ele>534.52</ele>
        <time>2014-10-18T11:41:31Z</time>
      </trkpt>
      <trkpt lat="46.01344" lon="3.57862">
        <ele>536.49</ele>
        <time>2014-10-18T11:41:42Z</time>
      </trkpt>
      <trkpt lat="46.01326" lon="3.57854">
        <ele>538.43</ele>
        <time>2014-10-18T11:41:55Z</time>
      </trkpt>
      <trkpt lat="46.01307" lon="3.57847">
        <ele>540.49</ele>
        <time>2014-10-18T11:42:10Z</time>
      </trkpt>
      <trkpt lat="46.01289" lon="3.57841">
        <ele>543.3</ele>
        <time>2014-10-18T11:42:25Z</time>
      </trkpt>
      <trkpt lat="46.01271" lon="3.57835">
        <ele>545.42</ele>
        <time>2014-10-18T11:42:36Z</time>
      </trkpt>
      <trkpt lat="46.01251" lon="3.57835">
        <ele>548.29</ele>
        <time>2014-10-18T11:42:47Z</time>
      </trkpt>
      <trkpt lat="46.01233" lon="3.57837">
        <ele>550.42</ele>
        <time>2014-10-18T11:42:57Z</time>
      </trkpt>
      <trkpt lat="46.01215" lon="3.57839">
        <ele>553.48</ele>
        <time>2014-10-18T11:43:08Z</time>
      </trkpt>
      <trkpt lat="46.01197" lon="3.57841">
        <ele>556.29</ele>
        <time>2014-10-18T11:43:19Z</time>
      </trkpt>
      <trkpt lat="46.01177" lon="3.57847">
        <ele>558.29</ele>
        <time>2014-10-18T11:43:27Z</time>
      </trkpt>
      <trkpt lat="46.01162" lon="3.57865">
        <ele>560.49</ele>
        <time>2014-10-18T11:43:36Z</time>
      </trkpt>
      <trkpt lat="46.01158" lon="3.5789">
        <ele>562.49</ele>
        <time>2014-10-18T11:43:45Z</time>
      </trkpt>
      <trkpt lat="46.01155" lon="3.57918">
        <ele>564.05</ele>
        <time>2014-10-18T11:43:55Z</time>
      </trkpt>
      <trkpt lat="46.01146" lon="3.57942">
        <ele>565.3</ele>
        <time>2014-10-18T11:44:03Z</time>
      </trkpt>
      <trkpt lat="46.01134" lon="3.57968">
        <ele>568.55</ele>
        <time>2014-10-18T11:44:08Z</time>
      </trkpt>
      <trkpt lat="46.01116" lon="3.57974">
        <ele>571.52</ele>
        <time>2014-10-18T11:44:15Z</time>
      </trkpt>
      <trkpt lat="46.01098" lon="3.57974">
        <ele>572.3</ele>
        <time>2014-10-18T11:44:26Z</time>
      </trkpt>
      <trkpt lat="46.01084" lon="3.57996">
        <ele>572.42</ele>
        <time>2014-10-18T11:44:31Z</time>
      </trkpt>
      <trkpt lat="46.0107" lon="3.58013">
        <ele>572.54</ele>
        <time>2014-10-18T11:44:35Z</time>
      </trkpt>
      <trkpt lat="46.01053" lon="3.58026">
        <ele>572.55</ele>
        <time>2014-10-18T11:44:39Z</time>
      </trkpt>
      <trkpt lat="46.01036" lon="3.58036">
        <ele>572.55</ele>
        <time>2014-10-18T11:44:43Z</time>
      </trkpt>
      <trkpt lat="46.01016" lon="3.58062">
        <ele>571.56</ele>
        <time>2014-10-18T11:44:54Z</time>
      </trkpt>
      <trkpt lat="46.01017" lon="3.58092">
        <ele>570.58</ele>
        <time>2014-10-18T11:45:02Z</time>
      </trkpt>
      <trkpt lat="46.01023" lon="3.58118">
        <ele>570.55</ele>
        <time>2014-10-18T11:45:07Z</time>
      </trkpt>
      <trkpt lat="46.01028" lon="3.58146">
        <ele>570.33</ele>
        <time>2014-10-18T11:45:12Z</time>
      </trkpt>
      <trkpt lat="46.01017" lon="3.58167">
        <ele>572.05</ele>
        <time>2014-10-18T11:45:26Z</time>
      </trkpt>
      <trkpt lat="46.01008" lon="3.58195">
        <ele>574.04</ele>
        <time>2014-10-18T11:45:36Z</time>
      </trkpt>
      <trkpt lat="46.01022" lon="3.58217">
        <ele>574.55</ele>
        <time>2014-10-18T11:45:43Z</time>
      </trkpt>
      <trkpt lat="46.0103" lon="3.58242">
        <ele>575.54</ele>
        <time>2014-10-18T11:45:54Z</time>
      </trkpt>
      <trkpt lat="46.01047" lon="3.58274">
        <ele>576.54</ele>
        <time>2014-10-18T11:46:10Z</time>
      </trkpt>
      <trkpt lat="46.01054" lon="3.583">
        <ele>576.55</ele>
        <time>2014-10-18T11:46:17Z</time>
      </trkpt>
      <trkpt lat="46.01051" lon="3.58328">
        <ele>576.05</ele>
        <time>2014-10-18T11:46:28Z</time>
      </trkpt>
      <trkpt lat="46.01046" lon="3.58354">
        <ele>574.06</ele>
        <time>2014-10-18T11:46:49Z</time>
      </trkpt>
      <trkpt lat="46.01036" lon="3.58382">
        <ele>572.62</ele>
        <time>2014-10-18T11:46:57Z</time>
      </trkpt>
      <trkpt lat="46.01023" lon="3.58405">
        <ele>571.59</ele>
        <time>2014-10-18T11:47:03Z</time>
      </trkpt>
      <trkpt lat="46.01007" lon="3.58433">
        <ele>571.05</ele>
        <time>2014-10-18T11:47:14Z</time>
      </trkpt>
      <trkpt lat="46.00999" lon="3.58461">
        <ele>569.06</ele>
        <time>2014-10-18T11:47:26Z</time>
      </trkpt>
      <trkpt lat="46.01007" lon="3.58493">
        <ele>567.55</ele>
        <time>2014-10-18T11:47:47Z</time>
      </trkpt>
      <trkpt lat="46.00991" lon="3.58506">
        <ele>565.55</ele>
        <time>2014-10-18T11:48:18Z</time>
      </trkpt>
      <trkpt lat="46.00974" lon="3.58519">
        <ele>565.55</ele>
        <time>2014-10-18T11:48:32Z</time>
      </trkpt>
      <trkpt lat="46.00957" lon="3.58532">
        <ele>565.55</ele>
        <time>2014-10-18T11:48:44Z</time>
      </trkpt>
      <trkpt lat="46.00939" lon="3.58536">
        <ele>567.49</ele>
        <time>2014-10-18T11:48:57Z</time>
      </trkpt>
      <trkpt lat="46.00921" lon="3.58545">
        <ele>568.55</ele>
        <time>2014-10-18T11:49:09Z</time>
      </trkpt>
      <trkpt lat="46.00903" lon="3.58551">
        <ele>570.52</ele>
        <time>2014-10-18T11:49:21Z</time>
      </trkpt>
      <trkpt lat="46.00884" lon="3.58556">
        <ele>572.52</ele>
        <time>2014-10-18T11:49:36Z</time>
      </trkpt>
      <trkpt lat="46.00867" lon="3.58564">
        <ele>574.54</ele>
        <time>2014-10-18T11:49:53Z</time>
      </trkpt>
      <trkpt lat="46.00849" lon="3.58566">
        <ele>577.05</ele>
        <time>2014-10-18T11:50:07Z</time>
      </trkpt>
      <trkpt lat="46.0083" lon="3.58566">
        <ele>579.42</ele>
        <time>2014-10-18T11:50:19Z</time>
      </trkpt>
      <trkpt lat="46.0081" lon="3.58566">
        <ele>582.49</ele>
        <time>2014-10-18T11:50:33Z</time>
      </trkpt>
      <trkpt lat="46.00791" lon="3.58566">
        <ele>586.41</ele>
        <time>2014-10-18T11:50:48Z</time>
      </trkpt>
      <trkpt lat="46.00773" lon="3.58575">
        <ele>590.02</ele>
        <time>2014-10-18T11:51:02Z</time>
      </trkpt>
      <trkpt lat="46.00759" lon="3.58592">
        <ele>595.55</ele>
        <time>2014-10-18T11:52:13Z</time>
      </trkpt>
      <trkpt lat="46.00745" lon="3.58611">
        <ele>598.52</ele>
        <time>2014-10-18T11:52:37Z</time>
      </trkpt>
      <trkpt lat="46.00727" lon="3.58618">
        <ele>599.55</ele>
        <time>2014-10-18T11:52:58Z</time>
      </trkpt>
      <trkpt lat="46.00708" lon="3.58618">
        <ele>600.52</ele>
        <time>2014-10-18T11:53:13Z</time>
      </trkpt>
      <trkpt lat="46.0069" lon="3.58616">
        <ele>600.55</ele>
        <time>2014-10-18T11:53:25Z</time>
      </trkpt>
      <trkpt lat="46.00672" lon="3.58613">
        <ele>601.55</ele>
        <time>2014-10-18T11:53:37Z</time>
      </trkpt>
      <trkpt lat="46.00657" lon="3.58598">
        <ele>600.55</ele>
        <time>2014-10-18T11:53:51Z</time>
      </trkpt>
      <trkpt lat="46.00658" lon="3.58571">
        <ele>600.55</ele>
        <time>2014-10-18T11:54:05Z</time>
      </trkpt>
      <trkpt lat="46.00665" lon="3.58547">
        <ele>600.55</ele>
        <time>2014-10-18T11:54:20Z</time>
      </trkpt>
      <trkpt lat="46.00669" lon="3.58521">
        <ele>601.3</ele>
        <time>2014-10-18T11:54:37Z</time>
      </trkpt>
      <trkpt lat="46.00662" lon="3.58495">
        <ele>602.54</ele>
        <time>2014-10-18T11:54:50Z</time>
      </trkpt>
      <trkpt lat="46.00655" lon="3.58472">
        <ele>604.52</ele>
        <time>2014-10-18T11:55:03Z</time>
      </trkpt>
      <trkpt lat="46.00642" lon="3.5845">
        <ele>608.29</ele>
        <time>2014-10-18T11:55:20Z</time>
      </trkpt>
      <trkpt lat="46.00631" lon="3.58429">
        <ele>611.42</ele>
        <time>2014-10-18T11:55:36Z</time>
      </trkpt>
      <trkpt lat="46.00623" lon="3.58405">
        <ele>614.04</ele>
        <time>2014-10-18T11:55:51Z</time>
      </trkpt>
      <trkpt lat="46.0062" lon="3.5838">
        <ele>616.05</ele>
        <time>2014-10-18T11:56:04Z</time>
      </trkpt>
      <trkpt lat="46.00618" lon="3.58354">
        <ele>617.05</ele>
        <time>2014-10-18T11:56:14Z</time>
      </trkpt>
      <trkpt lat="46.00614" lon="3.58328">
        <ele>618.05</ele>
        <time>2014-10-18T11:56:24Z</time>
      </trkpt>
      <trkpt lat="46.00604" lon="3.58305">
        <ele>619.49</ele>
        <time>2014-10-18T11:56:35Z</time>
      </trkpt>
      <trkpt lat="46.00597" lon="3.58281">
        <ele>621.43</ele>
        <time>2014-10-18T11:56:46Z</time>
      </trkpt>
      <trkpt lat="46.00587" lon="3.58257">
        <ele>624.27</ele>
        <time>2014-10-18T11:56:58Z</time>
      </trkpt>
      <trkpt lat="46.00575" lon="3.58236">
        <ele>627.98</ele>
        <time>2014-10-18T11:57:10Z</time>
      </trkpt>
      <trkpt lat="46.00565" lon="3.58212">
        <ele>632.27</ele>
        <time>2014-10-18T11:57:25Z</time>
      </trkpt>
      <trkpt lat="46.00558" lon="3.58186">
        <ele>635.04</ele>
        <time>2014-10-18T11:57:38Z</time>
      </trkpt>
      <trkpt lat="46.00553" lon="3.58161">
        <ele>637.05</ele>
        <time>2014-10-18T11:57:50Z</time>
      </trkpt>
      <trkpt lat="46.00546" lon="3.58135">
        <ele>638.54</ele>
        <time>2014-10-18T11:58:01Z</time>
      </trkpt>
      <trkpt lat="46.00539" lon="3.58111">
        <ele>639.54</ele>
        <time>2014-10-18T11:58:09Z</time>
      </trkpt>
      <trkpt lat="46.00528" lon="3.58088">
        <ele>641.49</ele>
        <time>2014-10-18T11:58:17Z</time>
      </trkpt>
      <trkpt lat="46.00514" lon="3.58064">
        <ele>644.24</ele>
        <time>2014-10-18T11:58:25Z</time>
      </trkpt>
      <trkpt lat="46.00496" lon="3.58053">
        <ele>647.26</ele>
        <time>2014-10-18T11:58:33Z</time>
      </trkpt>
      <trkpt lat="46.00477" lon="3.58053">
        <ele>650.41</ele>
        <time>2014-10-18T11:58:42Z</time>
      </trkpt>
      <trkpt lat="46.00457" lon="3.58053">
        <ele>653.42</ele>
        <time>2014-10-18T11:58:52Z</time>
      </trkpt>
      <trkpt lat="46.00439" lon="3.58056">
        <ele>655.49</ele>
        <time>2014-10-18T11:59:01Z</time>
      </trkpt>
      <trkpt lat="46.0042" lon="3.5806">
        <ele>657.49</ele>
        <time>2014-10-18T11:59:09Z</time>
      </trkpt>
      <trkpt lat="46.00399" lon="3.5806">
        <ele>659.42</ele>
        <time>2014-10-18T11:59:17Z</time>
      </trkpt>
      <trkpt lat="46.00381" lon="3.5806">
        <ele>661.42</ele>
        <time>2014-10-18T11:59:25Z</time>
      </trkpt>
      <trkpt lat="46.00363" lon="3.58053">
        <ele>663.42</ele>
        <time>2014-10-18T11:59:33Z</time>
      </trkpt>
      <trkpt lat="46.00346" lon="3.58045">
        <ele>665.42</ele>
        <time>2014-10-18T11:59:38Z</time>
      </trkpt>
      <trkpt lat="46.00325" lon="3.58036">
        <ele>672.17</ele>
        <time>2014-10-18T11:59:42Z</time>
      </trkpt>
      <trkpt lat="46.00306" lon="3.58026">
        <ele>675.78</ele>
        <time>2014-10-18T11:59:46Z</time>
      </trkpt>
      <trkpt lat="46.00289" lon="3.58017">
        <ele>676.46</ele>
        <time>2014-10-18T11:59:49Z</time>
      </trkpt>
      <trkpt lat="46.00266" lon="3.58006">
        <ele>676.55</ele>
        <time>2014-10-18T11:59:53Z</time>
      </trkpt>
      <trkpt lat="46.00259" lon="3.57983">
        <ele>675.58</ele>
        <time>2014-10-18T11:59:58Z</time>
      </trkpt>
      <trkpt lat="46.00274" lon="3.57959">
        <ele>676.43</ele>
        <time>2014-10-18T12:00:42Z</time>
      </trkpt>
      <trkpt lat="46.00284" lon="3.57935">
        <ele>673.55</ele>
        <time>2014-10-18T12:05:53Z</time>
      </trkpt>
      <trkpt lat="46.00297" lon="3.57912">
        <ele>673.55</ele>
        <time>2014-10-18T12:06:09Z</time>
      </trkpt>
      <trkpt lat="46.00312" lon="3.57888">
        <ele>673.55</ele>
        <time>2014-10-18T12:06:14Z</time>
      </trkpt>
      <trkpt lat="46.00329" lon="3.57865">
        <ele>673.55</ele>
        <time>2014-10-18T12:06:18Z</time>
      </trkpt>
      <trkpt lat="46.00344" lon="3.57845">
        <ele>673.55</ele>
        <time>2014-10-18T12:06:21Z</time>
      </trkpt>
      <trkpt lat="46.00356" lon="3.57826">
        <ele>672.55</ele>
        <time>2014-10-18T12:06:38Z</time>
      </trkpt>
      <trkpt lat="46.00373" lon="3.57807">
        <ele>670.93</ele>
        <time>2014-10-18T12:06:43Z</time>
      </trkpt>
      <trkpt lat="46.00392" lon="3.57785">
        <ele>669.64</ele>
        <time>2014-10-18T12:06:47Z</time>
      </trkpt>
      <trkpt lat="46.00405" lon="3.57764">
        <ele>668.69</ele>
        <time>2014-10-18T12:06:50Z</time>
      </trkpt>
      <trkpt lat="46.00414" lon="3.57734">
        <ele>668.57</ele>
        <time>2014-10-18T12:06:53Z</time>
      </trkpt>
      <trkpt lat="46.00422" lon="3.57704">
        <ele>668.56</ele>
        <time>2014-10-18T12:06:56Z</time>
      </trkpt>
      <trkpt lat="46.00426" lon="3.57671">
        <ele>668.55</ele>
        <time>2014-10-18T12:06:59Z</time>
      </trkpt>
      <trkpt lat="46.00428" lon="3.57637">
        <ele>667.68</ele>
        <time>2014-10-18T12:07:02Z</time>
      </trkpt>
      <trkpt lat="46.00429" lon="3.57603">
        <ele>666.69</ele>
        <time>2014-10-18T12:07:05Z</time>
      </trkpt>
      <trkpt lat="46.00433" lon="3.57571">
        <ele>666.07</ele>
        <time>2014-10-18T12:07:08Z</time>
      </trkpt>
      <trkpt lat="46.00433" lon="3.57538">
        <ele>665.62</ele>
        <time>2014-10-18T12:07:11Z</time>
      </trkpt>
      <trkpt lat="46.0043" lon="3.57506">
        <ele>664.81</ele>
        <time>2014-10-18T12:07:14Z</time>
      </trkpt>
      <trkpt lat="46.00428" lon="3.57478">
        <ele>663.84</ele>
        <time>2014-10-18T12:07:17Z</time>
      </trkpt>
      <trkpt lat="46.00433" lon="3.5745">
        <ele>662.84</ele>
        <time>2014-10-18T12:07:20Z</time>
      </trkpt>
      <trkpt lat="46.00437" lon="3.57423">
        <ele>661.84</ele>
        <time>2014-10-18T12:07:23Z</time>
      </trkpt>
      <trkpt lat="46.00437" lon="3.57395">
        <ele>661.09</ele>
        <time>2014-10-18T12:07:26Z</time>
      </trkpt>
      <trkpt lat="46.00434" lon="3.57363">
        <ele>659.71</ele>
        <time>2014-10-18T12:07:30Z</time>
      </trkpt>
      <trkpt lat="46.00425" lon="3.57335">
        <ele>658.63</ele>
        <time>2014-10-18T12:07:34Z</time>
      </trkpt>
      <trkpt lat="46.00417" lon="3.57305">
        <ele>656.87</ele>
        <time>2014-10-18T12:07:38Z</time>
      </trkpt>
      <trkpt lat="46.00417" lon="3.57268">
        <ele>654.26</ele>
        <time>2014-10-18T12:07:42Z</time>
      </trkpt>
      <trkpt lat="46.00426" lon="3.5724">
        <ele>653.14</ele>
        <time>2014-10-18T12:07:45Z</time>
      </trkpt>
      <trkpt lat="46.00441" lon="3.57212">
        <ele>652.63</ele>
        <time>2014-10-18T12:07:48Z</time>
      </trkpt>
      <trkpt lat="46.00455" lon="3.57187">
        <ele>652.56</ele>
        <time>2014-10-18T12:07:51Z</time>
      </trkpt>
      <trkpt lat="46.00457" lon="3.57159">
        <ele>652.05</ele>
        <time>2014-10-18T12:07:54Z</time>
      </trkpt>
      <trkpt lat="46.00473" lon="3.57144">
        <ele>650.59</ele>
        <time>2014-10-18T12:08:00Z</time>
      </trkpt>
      <trkpt lat="46.0047" lon="3.57116">
        <ele>649.8</ele>
        <time>2014-10-18T12:08:08Z</time>
      </trkpt>
      <trkpt lat="46.00459" lon="3.57092">
        <ele>648.81</ele>
        <time>2014-10-18T12:08:13Z</time>
      </trkpt>
      <trkpt lat="46.00458" lon="3.57062">
        <ele>646.22</ele>
        <time>2014-10-18T12:08:18Z</time>
      </trkpt>
      <trkpt lat="46.0047" lon="3.57038">
        <ele>643.47</ele>
        <time>2014-10-18T12:08:22Z</time>
      </trkpt>
      <trkpt lat="46.00482" lon="3.57017">
        <ele>640.54</ele>
        <time>2014-10-18T12:08:25Z</time>
      </trkpt>
      <trkpt lat="46.00497" lon="3.56998">
        <ele>637.55</ele>
        <time>2014-10-18T12:08:28Z</time>
      </trkpt>
      <trkpt lat="46.00515" lon="3.56985">
        <ele>634.55</ele>
        <time>2014-10-18T12:08:31Z</time>
      </trkpt>
      <trkpt lat="46.00538" lon="3.56981">
        <ele>632.43</ele>
        <time>2014-10-18T12:08:34Z</time>
      </trkpt>
      <trkpt lat="46.0056" lon="3.56981">
        <ele>629.54</ele>
        <time>2014-10-18T12:08:37Z</time>
      </trkpt>
      <trkpt lat="46.00584" lon="3.56985">
        <ele>627.43</ele>
        <time>2014-10-18T12:08:40Z</time>
      </trkpt>
      <trkpt lat="46.00605" lon="3.56993">
        <ele>625.91</ele>
        <time>2014-10-18T12:08:43Z</time>
      </trkpt>
      <trkpt lat="46.00625" lon="3.57008">
        <ele>624.72</ele>
        <time>2014-10-18T12:08:46Z</time>
      </trkpt>
      <trkpt lat="46.00641" lon="3.57028">
        <ele>622.45</ele>
        <time>2014-10-18T12:08:49Z</time>
      </trkpt>
      <trkpt lat="46.00658" lon="3.57047">
        <ele>620.42</ele>
        <time>2014-10-18T12:08:52Z</time>
      </trkpt>
      <trkpt lat="46.00676" lon="3.57056">
        <ele>619.41</ele>
        <time>2014-10-18T12:08:55Z</time>
      </trkpt>
      <trkpt lat="46.00701" lon="3.5706">
        <ele>618.79</ele>
        <time>2014-10-18T12:08:58Z</time>
      </trkpt>
      <trkpt lat="46.00723" lon="3.57064">
        <ele>617.71</ele>
        <time>2014-10-18T12:09:01Z</time>
      </trkpt>
      <trkpt lat="46.00746" lon="3.57066">
        <ele>616.7</ele>
        <time>2014-10-18T12:09:04Z</time>
      </trkpt>
      <trkpt lat="46.00765" lon="3.57058">
        <ele>616.56</ele>
        <time>2014-10-18T12:09:08Z</time>
      </trkpt>
      <trkpt lat="46.00783" lon="3.57047">
        <ele>616.55</ele>
        <time>2014-10-18T12:09:14Z</time>
      </trkpt>
      <trkpt lat="46.00802" lon="3.57036">
        <ele>616.55</ele>
        <time>2014-10-18T12:09:20Z</time>
      </trkpt>
      <trkpt lat="46.0082" lon="3.57026">
        <ele>617.43</ele>
        <time>2014-10-18T12:09:26Z</time>
      </trkpt>
      <trkpt lat="46.00836" lon="3.57011">
        <ele>617.55</ele>
        <time>2014-10-18T12:09:32Z</time>
      </trkpt>
      <trkpt lat="46.00847" lon="3.56987">
        <ele>620.55</ele>
        <time>2014-10-18T12:09:36Z</time>
      </trkpt>
      <trkpt lat="46.00849" lon="3.56959">
        <ele>623.18</ele>
        <time>2014-10-18T12:09:40Z</time>
      </trkpt>
      <trkpt lat="46.00831" lon="3.56944">
        <ele>625.22</ele>
        <time>2014-10-18T12:09:44Z</time>
      </trkpt>
      <trkpt lat="46.00826" lon="3.56918">
        <ele>627.39</ele>
        <time>2014-10-18T12:09:49Z</time>
      </trkpt>
      <trkpt lat="46.00838" lon="3.56895">
        <ele>629.24</ele>
        <time>2014-10-18T12:09:54Z</time>
      </trkpt>
      <trkpt lat="46.00852" lon="3.56871">
        <ele>629.03</ele>
        <time>2014-10-18T12:09:58Z</time>
      </trkpt>
      <trkpt lat="46.0087" lon="3.56863">
        <ele>628.57</ele>
        <time>2014-10-18T12:10:03Z</time>
      </trkpt>
      <trkpt lat="46.00894" lon="3.56867">
        <ele>628.74</ele>
        <time>2014-10-18T12:10:07Z</time>
      </trkpt>
      <trkpt lat="46.00919" lon="3.56852">
        <ele>627.25</ele>
        <time>2014-10-18T12:10:11Z</time>
      </trkpt>
      <trkpt lat="46.00927" lon="3.56817">
        <ele>628.73</ele>
        <time>2014-10-18T12:10:13Z</time>
      </trkpt>
      <trkpt lat="46.0093" lon="3.56785">
        <ele>629.35</ele>
        <time>2014-10-18T12:10:15Z</time>
      </trkpt>
      <trkpt lat="46.00934" lon="3.5676">
        <ele>630.25</ele>
        <time>2014-10-18T12:10:17Z</time>
      </trkpt>
      <trkpt lat="46.00934" lon="3.56725">
        <ele>631.39</ele>
        <time>2014-10-18T12:10:20Z</time>
      </trkpt>
      <trkpt lat="46.00935" lon="3.56689">
        <ele>631.04</ele>
        <time>2014-10-18T12:10:24Z</time>
      </trkpt>
      <trkpt lat="46.00936" lon="3.56659">
        <ele>630.58</ele>
        <time>2014-10-18T12:10:28Z</time>
      </trkpt>
      <trkpt lat="46.00941" lon="3.56631">
        <ele>627.93</ele>
        <time>2014-10-18T12:10:32Z</time>
      </trkpt>
      <trkpt lat="46.00951" lon="3.56607">
        <ele>624.33</ele>
        <time>2014-10-18T12:10:36Z</time>
      </trkpt>
      <trkpt lat="46.00968" lon="3.56592">
        <ele>622.73</ele>
        <time>2014-10-18T12:10:40Z</time>
      </trkpt>
      <trkpt lat="46.00983" lon="3.56577">
        <ele>622.56</ele>
        <time>2014-10-18T12:10:44Z</time>
      </trkpt>
      <trkpt lat="46.01001" lon="3.56569">
        <ele>622.55</ele>
        <time>2014-10-18T12:10:50Z</time>
      </trkpt>
      <trkpt lat="46.0102" lon="3.56564">
        <ele>620.87</ele>
        <time>2014-10-18T12:10:57Z</time>
      </trkpt>
      <trkpt lat="46.01038" lon="3.5656">
        <ele>616.48</ele>
        <time>2014-10-18T12:11:03Z</time>
      </trkpt>
      <trkpt lat="46.01058" lon="3.56554">
        <ele>610.05</ele>
        <time>2014-10-18T12:11:09Z</time>
      </trkpt>
      <trkpt lat="46.01066" lon="3.56581">
        <ele>592.39</ele>
        <time>2014-10-18T12:11:21Z</time>
      </trkpt>
      <trkpt lat="46.01068" lon="3.56556">
        <ele>571.59</ele>
        <time>2014-10-18T12:11:36Z</time>
      </trkpt>
      <trkpt lat="46.01061" lon="3.56528">
        <ele>557.61</ele>
        <time>2014-10-18T12:11:47Z</time>
      </trkpt>
      <trkpt lat="46.01054" lon="3.565">
        <ele>545.11</ele>
        <time>2014-10-18T12:12:00Z</time>
      </trkpt>
      <trkpt lat="46.01043" lon="3.56478">
        <ele>537.58</ele>
        <time>2014-10-18T12:12:11Z</time>
      </trkpt>
      <trkpt lat="46.0103" lon="3.56455">
        <ele>531.58</ele>
        <time>2014-10-18T12:12:23Z</time>
      </trkpt>
      <trkpt lat="46.0102" lon="3.56431">
        <ele>527.59</ele>
        <time>2014-10-18T12:12:33Z</time>
      </trkpt>
      <trkpt lat="46.01012" lon="3.56403">
        <ele>524.12</ele>
        <time>2014-10-18T12:12:41Z</time>
      </trkpt>
      <trkpt lat="46.0101" lon="3.56373">
        <ele>521.59</ele>
        <time>2014-10-18T12:12:49Z</time>
      </trkpt>
      <trkpt lat="46.01009" lon="3.56333">
        <ele>518.07</ele>
        <time>2014-10-18T12:13:02Z</time>
      </trkpt>
      <trkpt lat="46.01001" lon="3.56307">
        <ele>515.56</ele>
        <time>2014-10-18T12:13:13Z</time>
      </trkpt>
      <trkpt lat="46.00988" lon="3.56285">
        <ele>514.55</ele>
        <time>2014-10-18T12:13:24Z</time>
      </trkpt>
      <trkpt lat="46.00981" lon="3.5626">
        <ele>514.55</ele>
        <time>2014-10-18T12:13:32Z</time>
      </trkpt>
      <trkpt lat="46.00978" lon="3.5623">
        <ele>516.02</ele>
        <time>2014-10-18T12:13:41Z</time>
      </trkpt>
      <trkpt lat="46.0098" lon="3.56204">
        <ele>517.04</ele>
        <time>2014-10-18T12:13:46Z</time>
      </trkpt>
      <trkpt lat="46.00988" lon="3.56178">
        <ele>518.98</ele>
        <time>2014-10-18T12:13:52Z</time>
      </trkpt>
      <trkpt lat="46.01003" lon="3.56157">
        <ele>520.98</ele>
        <time>2014-10-18T12:13:58Z</time>
      </trkpt>
      <trkpt lat="46.01018" lon="3.56139">
        <ele>522.49</ele>
        <time>2014-10-18T12:14:05Z</time>
      </trkpt>
      <trkpt lat="46.01032" lon="3.5612">
        <ele>524.52</ele>
        <time>2014-10-18T12:14:16Z</time>
      </trkpt>
      <trkpt lat="46.01044" lon="3.56099">
        <ele>527.48</ele>
        <time>2014-10-18T12:14:28Z</time>
      </trkpt>
      <trkpt lat="46.01052" lon="3.56075">
        <ele>530.04</ele>
        <time>2014-10-18T12:14:41Z</time>
      </trkpt>
      <trkpt lat="46.01051" lon="3.56047">
        <ele>533.3</ele>
        <time>2014-10-18T12:14:58Z</time>
      </trkpt>
      <trkpt lat="46.0105" lon="3.56019">
        <ele>536.42</ele>
        <time>2014-10-18T12:15:15Z</time>
      </trkpt>
      <trkpt lat="46.01045" lon="3.55994">
        <ele>537.55</ele>
        <time>2014-10-18T12:15:27Z</time>
      </trkpt>
      <trkpt lat="46.01042" lon="3.55968">
        <ele>538.55</ele>
        <time>2014-10-18T12:15:42Z</time>
      </trkpt>
      <trkpt lat="46.01039" lon="3.55942">
        <ele>539.55</ele>
        <time>2014-10-18T12:15:58Z</time>
      </trkpt>
      <trkpt lat="46.0103" lon="3.55918">
        <ele>541.49</ele>
        <time>2014-10-18T12:16:16Z</time>
      </trkpt>
      <trkpt lat="46.01048" lon="3.5591">
        <ele>542.55</ele>
        <time>2014-10-18T12:16:49Z</time>
      </trkpt>
      <trkpt lat="46.01067" lon="3.55925">
        <ele>543.49</ele>
        <time>2014-10-18T12:16:58Z</time>
      </trkpt>
      <trkpt lat="46.01083" lon="3.55944">
        <ele>544.3</ele>
        <time>2014-10-18T12:17:02Z</time>
      </trkpt>
      <trkpt lat="46.01101" lon="3.55966">
        <ele>545.04</ele>
        <time>2014-10-18T12:17:06Z</time>
      </trkpt>
      <trkpt lat="46.01117" lon="3.55983">
        <ele>546.29</ele>
        <time>2014-10-18T12:17:11Z</time>
      </trkpt>
      <trkpt lat="46.01132" lon="3.56">
        <ele>547.98</ele>
        <time>2014-10-18T12:17:16Z</time>
      </trkpt>
      <trkpt lat="46.01145" lon="3.56019">
        <ele>549.41</ele>
        <time>2014-10-18T12:17:21Z</time>
      </trkpt>
      <trkpt lat="46.01158" lon="3.56039">
        <ele>551.91</ele>
        <time>2014-10-18T12:17:27Z</time>
      </trkpt>
      <trkpt lat="46.01166" lon="3.56064">
        <ele>553.48</ele>
        <time>2014-10-18T12:17:33Z</time>
      </trkpt>
      <trkpt lat="46.01178" lon="3.5609">
        <ele>556.27</ele>
        <time>2014-10-18T12:17:41Z</time>
      </trkpt>
      <trkpt lat="46.01194" lon="3.56103">
        <ele>558.02</ele>
        <time>2014-10-18T12:17:48Z</time>
      </trkpt>
      <trkpt lat="46.01208" lon="3.5612">
        <ele>560.02</ele>
        <time>2014-10-18T12:17:55Z</time>
      </trkpt>
      <trkpt lat="46.01222" lon="3.56142">
        <ele>562.41</ele>
        <time>2014-10-18T12:18:03Z</time>
      </trkpt>
      <trkpt lat="46.01237" lon="3.56161">
        <ele>564.41</ele>
        <time>2014-10-18T12:18:10Z</time>
      </trkpt>
      <trkpt lat="46.01254" lon="3.56174">
        <ele>566.02</ele>
        <time>2014-10-18T12:18:16Z</time>
      </trkpt>
      <trkpt lat="46.01282" lon="3.56193">
        <ele>572.39</ele>
        <time>2014-10-18T12:18:20Z</time>
      </trkpt>
      <trkpt lat="46.01307" lon="3.56206">
        <ele>578.66</ele>
        <time>2014-10-18T12:18:23Z</time>
      </trkpt>
      <trkpt lat="46.01332" lon="3.56215">
        <ele>581.69</ele>
        <time>2014-10-18T12:18:26Z</time>
      </trkpt>
      <trkpt lat="46.01352" lon="3.56225">
        <ele>582.45</ele>
        <time>2014-10-18T12:18:29Z</time>
      </trkpt>
      <trkpt lat="46.0137" lon="3.56242">
        <ele>583.29</ele>
        <time>2014-10-18T12:18:32Z</time>
      </trkpt>
      <trkpt lat="46.01389" lon="3.56247">
        <ele>583.04</ele>
        <time>2014-10-18T12:18:36Z</time>
      </trkpt>
      <trkpt lat="46.01408" lon="3.56245">
        <ele>582.57</ele>
        <time>2014-10-18T12:18:41Z</time>
      </trkpt>
      <trkpt lat="46.01426" lon="3.56245">
        <ele>582.55</ele>
        <time>2014-10-18T12:18:46Z</time>
      </trkpt>
      <trkpt lat="46.01445" lon="3.56247">
        <ele>582.55</ele>
        <time>2014-10-18T12:18:53Z</time>
      </trkpt>
      <trkpt lat="46.01465" lon="3.56249">
        <ele>582.55</ele>
        <time>2014-10-18T12:19:01Z</time>
      </trkpt>
      <trkpt lat="46.01485" lon="3.56249">
        <ele>581.57</ele>
        <time>2014-10-18T12:19:12Z</time>
      </trkpt>
      <trkpt lat="46.01502" lon="3.56238">
        <ele>581.55</ele>
        <time>2014-10-18T12:19:23Z</time>
      </trkpt>
      <trkpt lat="46.01517" lon="3.56219">
        <ele>581.55</ele>
        <time>2014-10-18T12:19:33Z</time>
      </trkpt>
      <trkpt lat="46.01532" lon="3.562">
        <ele>581.55</ele>
        <time>2014-10-18T12:19:43Z</time>
      </trkpt>
      <trkpt lat="46.01544" lon="3.56176">
        <ele>581.55</ele>
        <time>2014-10-18T12:19:54Z</time>
      </trkpt>
      <trkpt lat="46.01553" lon="3.56152">
        <ele>582.05</ele>
        <time>2014-10-18T12:20:06Z</time>
      </trkpt>
      <trkpt lat="46.01568" lon="3.56133">
        <ele>583.05</ele>
        <time>2014-10-18T12:20:22Z</time>
      </trkpt>
      <trkpt lat="46.01581" lon="3.56109">
        <ele>585.05</ele>
        <time>2014-10-18T12:20:38Z</time>
      </trkpt>
      <trkpt lat="46.01588" lon="3.56084">
        <ele>587.05</ele>
        <time>2014-10-18T12:20:50Z</time>
      </trkpt>
      <trkpt lat="46.01596" lon="3.56058">
        <ele>589.04</ele>
        <time>2014-10-18T12:21:00Z</time>
      </trkpt>
      <trkpt lat="46.01605" lon="3.56032">
        <ele>591.02</ele>
        <time>2014-10-18T12:21:09Z</time>
      </trkpt>
      <trkpt lat="46.01616" lon="3.56006">
        <ele>592.54</ele>
        <time>2014-10-18T12:21:19Z</time>
      </trkpt>
      <trkpt lat="46.01631" lon="3.55987">
        <ele>594.04</ele>
        <time>2014-10-18T12:21:29Z</time>
      </trkpt>
      <trkpt lat="46.01642" lon="3.55966">
        <ele>594.55</ele>
        <time>2014-10-18T12:21:37Z</time>
      </trkpt>
      <trkpt lat="46.01646" lon="3.55938">
        <ele>594.55</ele>
        <time>2014-10-18T12:21:45Z</time>
      </trkpt>
      <trkpt lat="46.01646" lon="3.5591">
        <ele>594.55</ele>
        <time>2014-10-18T12:21:52Z</time>
      </trkpt>
      <trkpt lat="46.01642" lon="3.5588">
        <ele>594.55</ele>
        <time>2014-10-18T12:21:56Z</time>
      </trkpt>
      <trkpt lat="46.01624" lon="3.55856">
        <ele>594.55</ele>
        <time>2014-10-18T12:22:00Z</time>
      </trkpt>
      <trkpt lat="46.01604" lon="3.55839">
        <ele>594.55</ele>
        <time>2014-10-18T12:22:03Z</time>
      </trkpt>
      <trkpt lat="46.01587" lon="3.55815">
        <ele>594.55</ele>
        <time>2014-10-18T12:22:06Z</time>
      </trkpt>
      <trkpt lat="46.01574" lon="3.55792">
        <ele>596.18</ele>
        <time>2014-10-18T12:22:09Z</time>
      </trkpt>
      <trkpt lat="46.01563" lon="3.55764">
        <ele>598.63</ele>
        <time>2014-10-18T12:22:12Z</time>
      </trkpt>
      <trkpt lat="46.01554" lon="3.5574">
        <ele>601.07</ele>
        <time>2014-10-18T12:22:15Z</time>
      </trkpt>
      <trkpt lat="46.01544" lon="3.55708">
        <ele>603.99</ele>
        <time>2014-10-18T12:22:18Z</time>
      </trkpt>
      <trkpt lat="46.01543" lon="3.55667">
        <ele>603.61</ele>
        <time>2014-10-18T12:22:21Z</time>
      </trkpt>
      <trkpt lat="46.01546" lon="3.55637">
        <ele>603.57</ele>
        <time>2014-10-18T12:22:23Z</time>
      </trkpt>
      <trkpt lat="46.01551" lon="3.55605">
        <ele>604.81</ele>
        <time>2014-10-18T12:22:25Z</time>
      </trkpt>
      <trkpt lat="46.01556" lon="3.55579">
        <ele>606.87</ele>
        <time>2014-10-18T12:22:27Z</time>
      </trkpt>
      <trkpt lat="46.01558" lon="3.55547">
        <ele>607.84</ele>
        <time>2014-10-18T12:22:30Z</time>
      </trkpt>
      <trkpt lat="46.01557" lon="3.55517">
        <ele>607.57</ele>
        <time>2014-10-18T12:22:34Z</time>
      </trkpt>
      <trkpt lat="46.01565" lon="3.55489">
        <ele>607.05</ele>
        <time>2014-10-18T12:22:40Z</time>
      </trkpt>
      <trkpt lat="46.01572" lon="3.55457">
        <ele>605.83</ele>
        <time>2014-10-18T12:22:44Z</time>
      </trkpt>
      <trkpt lat="46.01575" lon="3.55431">
        <ele>604.84</ele>
        <time>2014-10-18T12:22:47Z</time>
      </trkpt>
      <trkpt lat="46.01582" lon="3.55403">
        <ele>598.63</ele>
        <time>2014-10-18T12:22:51Z</time>
      </trkpt>
      <trkpt lat="46.01576" lon="3.55376">
        <ele>592.43</ele>
        <time>2014-10-18T12:22:55Z</time>
      </trkpt>
      <trkpt lat="46.01569" lon="3.55348">
        <ele>590.83</ele>
        <time>2014-10-18T12:23:00Z</time>
      </trkpt>
      <trkpt lat="46.01551" lon="3.55315">
        <ele>588.09</ele>
        <time>2014-10-18T12:23:09Z</time>
      </trkpt>
      <trkpt lat="46.01532" lon="3.55303">
        <ele>586.09</ele>
        <time>2014-10-18T12:23:17Z</time>
      </trkpt>
      <trkpt lat="46.01522" lon="3.55279">
        <ele>583.62</ele>
        <time>2014-10-18T12:23:25Z</time>
      </trkpt>
      <trkpt lat="46.01522" lon="3.55251">
        <ele>582.62</ele>
        <time>2014-10-18T12:23:30Z</time>
      </trkpt>
      <trkpt lat="46.01515" lon="3.55223">
        <ele>582.55</ele>
        <time>2014-10-18T12:23:35Z</time>
      </trkpt>
      <trkpt lat="46.01506" lon="3.55195">
        <ele>582.55</ele>
        <time>2014-10-18T12:23:40Z</time>
      </trkpt>
      <trkpt lat="46.01496" lon="3.5517">
        <ele>581.68</ele>
        <time>2014-10-18T12:23:45Z</time>
      </trkpt>
      <trkpt lat="46.01485" lon="3.55148">
        <ele>581.56</ele>
        <time>2014-10-18T12:23:49Z</time>
      </trkpt>
      <trkpt lat="46.0147" lon="3.55127">
        <ele>582.05</ele>
        <time>2014-10-18T12:23:54Z</time>
      </trkpt>
      <trkpt lat="46.01458" lon="3.55099">
        <ele>582.54</ele>
        <time>2014-10-18T12:23:59Z</time>
      </trkpt>
      <trkpt lat="46.01455" lon="3.55069">
        <ele>581.68</ele>
        <time>2014-10-18T12:24:03Z</time>
      </trkpt>
      <trkpt lat="46.01455" lon="3.55036">
        <ele>580.62</ele>
        <time>2014-10-18T12:24:07Z</time>
      </trkpt>
      <trkpt lat="46.01453" lon="3.55006">
        <ele>579.68</ele>
        <time>2014-10-18T12:24:11Z</time>
      </trkpt>
      <trkpt lat="46.01451" lon="3.54976">
        <ele>579.56</ele>
        <time>2014-10-18T12:24:15Z</time>
      </trkpt>
      <trkpt lat="46.01453" lon="3.54951">
        <ele>578.68</ele>
        <time>2014-10-18T12:24:18Z</time>
      </trkpt>
      <trkpt lat="46.01463" lon="3.54925">
        <ele>578.57</ele>
        <time>2014-10-18T12:24:21Z</time>
      </trkpt>
      <trkpt lat="46.01475" lon="3.54903">
        <ele>578.55</ele>
        <time>2014-10-18T12:24:24Z</time>
      </trkpt>
      <trkpt lat="46.01493" lon="3.5488">
        <ele>578.55</ele>
        <time>2014-10-18T12:24:28Z</time>
      </trkpt>
      <trkpt lat="46.0151" lon="3.54863">
        <ele>578.55</ele>
        <time>2014-10-18T12:24:32Z</time>
      </trkpt>
      <trkpt lat="46.01528" lon="3.54854">
        <ele>577.8</ele>
        <time>2014-10-18T12:24:36Z</time>
      </trkpt>
      <trkpt lat="46.01548" lon="3.54846">
        <ele>576.69</ele>
        <time>2014-10-18T12:24:40Z</time>
      </trkpt>
      <trkpt lat="46.01569" lon="3.54837">
        <ele>575.12</ele>
        <time>2014-10-18T12:24:44Z</time>
      </trkpt>
      <trkpt lat="46.01587" lon="3.54826">
        <ele>574.59</ele>
        <time>2014-10-18T12:24:48Z</time>
      </trkpt>
      <trkpt lat="46.01605" lon="3.54828">
        <ele>573.56</ele>
        <time>2014-10-18T12:24:56Z</time>
      </trkpt>
      <trkpt lat="46.01616" lon="3.54854">
        <ele>572.8</ele>
        <time>2014-10-18T12:25:01Z</time>
      </trkpt>
      <trkpt lat="46.0163" lon="3.54871">
        <ele>570.84</ele>
        <time>2014-10-18T12:25:06Z</time>
      </trkpt>
      <trkpt lat="46.01648" lon="3.54858">
        <ele>570.56</ele>
        <time>2014-10-18T12:25:12Z</time>
      </trkpt>
      <trkpt lat="46.01668" lon="3.54846">
        <ele>568.82</ele>
        <time>2014-10-18T12:25:18Z</time>
      </trkpt>
      <trkpt lat="46.01687" lon="3.54835">
        <ele>566.88</ele>
        <time>2014-10-18T12:25:22Z</time>
      </trkpt>
      <trkpt lat="46.01705" lon="3.54818">
        <ele>565.82</ele>
        <time>2014-10-18T12:25:26Z</time>
      </trkpt>
      <trkpt lat="46.01722" lon="3.54796">
        <ele>565.57</ele>
        <time>2014-10-18T12:25:30Z</time>
      </trkpt>
      <trkpt lat="46.01743" lon="3.54777">
        <ele>566.05</ele>
        <time>2014-10-18T12:25:34Z</time>
      </trkpt>
      <trkpt lat="46.01761" lon="3.54762">
        <ele>568.12</ele>
        <time>2014-10-18T12:25:37Z</time>
      </trkpt>
      <trkpt lat="46.01781" lon="3.54749">
        <ele>569.25</ele>
        <time>2014-10-18T12:25:40Z</time>
      </trkpt>
      <trkpt lat="46.01802" lon="3.54734">
        <ele>569.51</ele>
        <time>2014-10-18T12:25:43Z</time>
      </trkpt>
      <trkpt lat="46.01823" lon="3.54717">
        <ele>569.55</ele>
        <time>2014-10-18T12:25:46Z</time>
      </trkpt>
      <trkpt lat="46.01843" lon="3.54702">
        <ele>569.55</ele>
        <time>2014-10-18T12:25:49Z</time>
      </trkpt>
      <trkpt lat="46.01864" lon="3.54682">
        <ele>569.55</ele>
        <time>2014-10-18T12:25:52Z</time>
      </trkpt>
      <trkpt lat="46.01884" lon="3.54663">
        <ele>570.43</ele>
        <time>2014-10-18T12:25:55Z</time>
      </trkpt>
      <trkpt lat="46.01907" lon="3.54644">
        <ele>570.54</ele>
        <time>2014-10-18T12:25:58Z</time>
      </trkpt>
      <trkpt lat="46.01928" lon="3.54625">
        <ele>571.3</ele>
        <time>2014-10-18T12:26:01Z</time>
      </trkpt>
      <trkpt lat="46.01949" lon="3.54605">
        <ele>572.27</ele>
        <time>2014-10-18T12:26:04Z</time>
      </trkpt>
      <trkpt lat="46.01968" lon="3.54586">
        <ele>573.39</ele>
        <time>2014-10-18T12:26:07Z</time>
      </trkpt>
      <trkpt lat="46.01986" lon="3.54569">
        <ele>574.78</ele>
        <time>2014-10-18T12:26:10Z</time>
      </trkpt>
      <trkpt lat="46.02004" lon="3.54554">
        <ele>578.33</ele>
        <time>2014-10-18T12:26:13Z</time>
      </trkpt>
      <trkpt lat="46.02027" lon="3.54547">
        <ele>582.4</ele>
        <time>2014-10-18T12:26:16Z</time>
      </trkpt>
      <trkpt lat="46.02049" lon="3.54547">
        <ele>584.16</ele>
        <time>2014-10-18T12:26:19Z</time>
      </trkpt>
      <trkpt lat="46.02071" lon="3.54567">
        <ele>584.5</ele>
        <time>2014-10-18T12:26:22Z</time>
      </trkpt>
      <trkpt lat="46.02087" lon="3.54582">
        <ele>583.67</ele>
        <time>2014-10-18T12:26:25Z</time>
      </trkpt>
      <trkpt lat="46.02105" lon="3.54586">
        <ele>582.12</ele>
        <time>2014-10-18T12:26:29Z</time>
      </trkpt>
      <trkpt lat="46.0212" lon="3.54571">
        <ele>580.32</ele>
        <time>2014-10-18T12:26:34Z</time>
      </trkpt>
      <trkpt lat="46.02133" lon="3.54552">
        <ele>578.58</ele>
        <time>2014-10-18T12:26:40Z</time>
      </trkpt>
      <trkpt lat="46.02148" lon="3.5453">
        <ele>576.06</ele>
        <time>2014-10-18T12:26:52Z</time>
      </trkpt>
      <trkpt lat="46.02166" lon="3.54513">
        <ele>572.57</ele>
        <time>2014-10-18T12:27:02Z</time>
      </trkpt>
      <trkpt lat="46.02188" lon="3.54513">
        <ele>570.07</ele>
        <time>2014-10-18T12:27:12Z</time>
      </trkpt>
      <trkpt lat="46.02209" lon="3.54511">
        <ele>567.57</ele>
        <time>2014-10-18T12:27:22Z</time>
      </trkpt>
      <trkpt lat="46.02233" lon="3.54515">
        <ele>565.05</ele>
        <time>2014-10-18T12:27:36Z</time>
      </trkpt>
      <trkpt lat="46.0226" lon="3.54519">
        <ele>562.55</ele>
        <time>2014-10-18T12:27:59Z</time>
      </trkpt>
      <trkpt lat="46.02284" lon="3.54522">
        <ele>561.55</ele>
        <time>2014-10-18T12:28:15Z</time>
      </trkpt>
      <trkpt lat="46.02304" lon="3.54519">
        <ele>561.55</ele>
        <time>2014-10-18T12:28:29Z</time>
      </trkpt>
      <trkpt lat="46.02323" lon="3.54511">
        <ele>561.55</ele>
        <time>2014-10-18T12:28:41Z</time>
      </trkpt>
      <trkpt lat="46.02342" lon="3.54494">
        <ele>561.55</ele>
        <time>2014-10-18T12:28:54Z</time>
      </trkpt>
      <trkpt lat="46.02366" lon="3.54474">
        <ele>562.55</ele>
        <time>2014-10-18T12:29:11Z</time>
      </trkpt>
      <trkpt lat="46.02362" lon="3.54444">
        <ele>563.55</ele>
        <time>2014-10-18T12:29:28Z</time>
      </trkpt>
      <trkpt lat="46.02357" lon="3.54419">
        <ele>564.43</ele>
        <time>2014-10-18T12:29:39Z</time>
      </trkpt>
      <trkpt lat="46.02357" lon="3.54391">
        <ele>564.55</ele>
        <time>2014-10-18T12:29:51Z</time>
      </trkpt>
      <trkpt lat="46.02377" lon="3.54384">
        <ele>565.55</ele>
        <time>2014-10-18T12:30:03Z</time>
      </trkpt>
      <trkpt lat="46.02397" lon="3.54388">
        <ele>566.05</ele>
        <time>2014-10-18T12:30:11Z</time>
      </trkpt>
      <trkpt lat="46.02416" lon="3.54391">
        <ele>566.55</ele>
        <time>2014-10-18T12:30:20Z</time>
      </trkpt>
      <trkpt lat="46.02434" lon="3.54378">
        <ele>568.3</ele>
        <time>2014-10-18T12:30:30Z</time>
      </trkpt>
      <trkpt lat="46.02446" lon="3.54358">
        <ele>569.52</ele>
        <time>2014-10-18T12:30:39Z</time>
      </trkpt>
      <trkpt lat="46.0246" lon="3.54341">
        <ele>571.52</ele>
        <time>2014-10-18T12:30:44Z</time>
      </trkpt>
      <trkpt lat="46.02476" lon="3.54322">
        <ele>576.05</ele>
        <time>2014-10-18T12:30:49Z</time>
      </trkpt>
      <trkpt lat="46.0249" lon="3.54305">
        <ele>577.51</ele>
        <time>2014-10-18T12:30:54Z</time>
      </trkpt>
      <trkpt lat="46.02503" lon="3.54285">
        <ele>577.55</ele>
        <time>2014-10-18T12:31:00Z</time>
      </trkpt>
      <trkpt lat="46.02519" lon="3.54264">
        <ele>577.55</ele>
        <time>2014-10-18T12:31:07Z</time>
      </trkpt>
      <trkpt lat="46.02537" lon="3.54245">
        <ele>577.55</ele>
        <time>2014-10-18T12:31:12Z</time>
      </trkpt>
      <trkpt lat="46.02553" lon="3.54232">
        <ele>577.55</ele>
        <time>2014-10-18T12:31:16Z</time>
      </trkpt>
      <trkpt lat="46.02573" lon="3.54219">
        <ele>577.55</ele>
        <time>2014-10-18T12:31:21Z</time>
      </trkpt>
      <trkpt lat="46.02587" lon="3.54193">
        <ele>576.8</ele>
        <time>2014-10-18T12:31:26Z</time>
      </trkpt>
      <trkpt lat="46.02596" lon="3.54163">
        <ele>575.82</ele>
        <time>2014-10-18T12:31:30Z</time>
      </trkpt>
      <trkpt lat="46.02601" lon="3.54137">
        <ele>575.59</ele>
        <time>2014-10-18T12:31:33Z</time>
      </trkpt>
      <trkpt lat="46.02606" lon="3.54112">
        <ele>574.68</ele>
        <time>2014-10-18T12:31:36Z</time>
      </trkpt>
      <trkpt lat="46.02611" lon="3.54082">
        <ele>574.56</ele>
        <time>2014-10-18T12:31:40Z</time>
      </trkpt>
      <trkpt lat="46.02616" lon="3.54054">
        <ele>574.55</ele>
        <time>2014-10-18T12:31:44Z</time>
      </trkpt>
      <trkpt lat="46.02619" lon="3.54028">
        <ele>574.55</ele>
        <time>2014-10-18T12:31:48Z</time>
      </trkpt>
      <trkpt lat="46.02623" lon="3.54002">
        <ele>574.55</ele>
        <time>2014-10-18T12:31:52Z</time>
      </trkpt>
      <trkpt lat="46.0263" lon="3.53972">
        <ele>574.55</ele>
        <time>2014-10-18T12:31:57Z</time>
      </trkpt>
      <trkpt lat="46.02632" lon="3.53946">
        <ele>575.43</ele>
        <time>2014-10-18T12:32:01Z</time>
      </trkpt>
      <trkpt lat="46.1379" lon="3.45413">
        <ele>311.55</ele>
        <time>2014-10-18T13:43:37Z</time>
      </trkpt>
      <trkpt lat="46.13809" lon="3.45408">
        <ele>301.55</ele>
        <time>2014-10-18T13:43:40Z</time>
      </trkpt>
      <trkpt lat="46.13829" lon="3.45421">
        <ele>266.06</ele>
        <time>2014-10-18T13:43:54Z</time>
      </trkpt>
      <trkpt lat="46.13847" lon="3.45408">
        <ele>270.69</ele>
        <time>2014-10-18T13:44:00Z</time>
      </trkpt>
      <trkpt lat="46.13847" lon="3.45381">
        <ele>272.44</ele>
        <time>2014-10-18T13:44:04Z</time>
      </trkpt>
      <trkpt lat="46.13848" lon="3.45351">
        <ele>273.3</ele>
        <time>2014-10-18T13:44:09Z</time>
      </trkpt>
      <trkpt lat="46.1385" lon="3.45318">
        <ele>273.55</ele>
        <time>2014-10-18T13:44:15Z</time>
      </trkpt>
      <trkpt lat="46.13852" lon="3.45288">
        <ele>273.05</ele>
        <time>2014-10-18T13:44:20Z</time>
      </trkpt>
      <trkpt lat="46.13855" lon="3.4526">
        <ele>272.57</ele>
        <time>2014-10-18T13:44:25Z</time>
      </trkpt>
      <trkpt lat="46.13859" lon="3.4523">
        <ele>271.8</ele>
        <time>2014-10-18T13:44:30Z</time>
      </trkpt>
      <trkpt lat="46.13862" lon="3.45205">
        <ele>271.56</ele>
        <time>2014-10-18T13:44:35Z</time>
      </trkpt>
      <trkpt lat="46.13865" lon="3.45179">
        <ele>271.05</ele>
        <time>2014-10-18T13:44:40Z</time>
      </trkpt>
      <trkpt lat="46.13869" lon="3.45149">
        <ele>269.82</ele>
        <time>2014-10-18T13:44:45Z</time>
      </trkpt>
      <trkpt lat="46.13875" lon="3.45119">
        <ele>268.09</ele>
        <time>2014-10-18T13:44:50Z</time>
      </trkpt>
      <trkpt lat="46.13878" lon="3.45091">
        <ele>267.59</ele>
        <time>2014-10-18T13:44:54Z</time>
      </trkpt>
      <trkpt lat="46.13882" lon="3.45061">
        <ele>267.05</ele>
        <time>2014-10-18T13:44:59Z</time>
      </trkpt>
      <trkpt lat="46.1388" lon="3.45033">
        <ele>266.57</ele>
        <time>2014-10-18T13:45:04Z</time>
      </trkpt>
      <trkpt lat="46.13878" lon="3.45005">
        <ele>266.55</ele>
        <time>2014-10-18T13:45:08Z</time>
      </trkpt>
      <trkpt lat="46.13881" lon="3.44975">
        <ele>265.8</ele>
        <time>2014-10-18T13:45:13Z</time>
      </trkpt>
      <trkpt lat="46.13897" lon="3.44962">
        <ele>265.56</ele>
        <time>2014-10-18T13:45:18Z</time>
      </trkpt>
      <trkpt lat="46.1392" lon="3.44956">
        <ele>264.68</ele>
        <time>2014-10-18T13:45:23Z</time>
      </trkpt>
      <trkpt lat="46.13941" lon="3.44958">
        <ele>264.56</ele>
        <time>2014-10-18T13:45:27Z</time>
      </trkpt>
      <trkpt lat="46.13961" lon="3.4496">
        <ele>264.55</ele>
        <time>2014-10-18T13:45:31Z</time>
      </trkpt>
      <trkpt lat="46.1398" lon="3.44962">
        <ele>264.37</ele>
        <time>2014-10-18T13:45:35Z</time>
      </trkpt>
      <trkpt lat="46.14001" lon="3.44966">
        <ele>264.55</ele>
        <time>2014-10-18T13:45:40Z</time>
      </trkpt>
      <trkpt lat="46.14021" lon="3.44966">
        <ele>264.55</ele>
        <time>2014-10-18T13:45:45Z</time>
      </trkpt>
      <trkpt lat="46.1404" lon="3.4496">
        <ele>264.55</ele>
        <time>2014-10-18T13:45:53Z</time>
      </trkpt>
      <trkpt lat="46.14059" lon="3.44954">
        <ele>265.54</ele>
        <time>2014-10-18T13:45:59Z</time>
      </trkpt>
      <trkpt lat="46.14078" lon="3.44947">
        <ele>265.55</ele>
        <time>2014-10-18T13:46:05Z</time>
      </trkpt>
      <trkpt lat="46.14096" lon="3.44941">
        <ele>265.55</ele>
        <time>2014-10-18T13:46:11Z</time>
      </trkpt>
      <trkpt lat="46.14116" lon="3.44939">
        <ele>266.05</ele>
        <time>2014-10-18T13:46:17Z</time>
      </trkpt>
      <trkpt lat="46.14134" lon="3.44936">
        <ele>266.55</ele>
        <time>2014-10-18T13:46:23Z</time>
      </trkpt>
      <trkpt lat="46.14153" lon="3.44936">
        <ele>267.43</ele>
        <time>2014-10-18T13:46:45Z</time>
      </trkpt>
      <trkpt lat="46.1417" lon="3.44928">
        <ele>268.49</ele>
        <time>2014-10-18T13:46:50Z</time>
      </trkpt>
      <trkpt lat="46.14189" lon="3.44926">
        <ele>269.52</ele>
        <time>2014-10-18T13:46:56Z</time>
      </trkpt>
      <trkpt lat="46.14207" lon="3.44923">
        <ele>270.54</ele>
        <time>2014-10-18T13:47:02Z</time>
      </trkpt>
      <trkpt lat="46.14227" lon="3.44923">
        <ele>271.54</ele>
        <time>2014-10-18T13:47:08Z</time>
      </trkpt>
      <trkpt lat="46.14247" lon="3.44926">
        <ele>272.54</ele>
        <time>2014-10-18T13:47:15Z</time>
      </trkpt>
      <trkpt lat="46.14267" lon="3.44928">
        <ele>273.52</ele>
        <time>2014-10-18T13:47:22Z</time>
      </trkpt>
      <trkpt lat="46.14287" lon="3.44934">
        <ele>274.49</ele>
        <time>2014-10-18T13:47:29Z</time>
      </trkpt>
      <trkpt lat="46.14305" lon="3.44941">
        <ele>275.05</ele>
        <time>2014-10-18T13:47:35Z</time>
      </trkpt>
      <trkpt lat="46.14323" lon="3.44943">
        <ele>275.55</ele>
        <time>2014-10-18T13:47:43Z</time>
      </trkpt>
      <trkpt lat="46.14338" lon="3.44926">
        <ele>277.3</ele>
        <time>2014-10-18T13:47:53Z</time>
      </trkpt>
      <trkpt lat="46.14349" lon="3.449">
        <ele>278.49</ele>
        <time>2014-10-18T13:48:01Z</time>
      </trkpt>
      <trkpt lat="46.14359" lon="3.44876">
        <ele>279.54</ele>
        <time>2014-10-18T13:48:10Z</time>
      </trkpt>
      <trkpt lat="46.14366" lon="3.44853">
        <ele>280.54</ele>
        <time>2014-10-18T13:48:17Z</time>
      </trkpt>
      <trkpt lat="46.14374" lon="3.44827">
        <ele>281.55</ele>
        <time>2014-10-18T13:48:26Z</time>
      </trkpt>
      <trkpt lat="46.14382" lon="3.44801">
        <ele>282.55</ele>
        <time>2014-10-18T13:48:35Z</time>
      </trkpt>
      <trkpt lat="46.1439" lon="3.44778">
        <ele>283.55</ele>
        <time>2014-10-18T13:48:44Z</time>
      </trkpt>
      <trkpt lat="46.14397" lon="3.44754">
        <ele>284.54</ele>
        <time>2014-10-18T13:48:52Z</time>
      </trkpt>
      <trkpt lat="46.14412" lon="3.44737">
        <ele>285.49</ele>
        <time>2014-10-18T13:49:00Z</time>
      </trkpt>
      <trkpt lat="46.14426" lon="3.4472">
        <ele>286.43</ele>
        <time>2014-10-18T13:49:08Z</time>
      </trkpt>
      <trkpt lat="46.14441" lon="3.44705">
        <ele>286.55</ele>
        <time>2014-10-18T13:49:16Z</time>
      </trkpt>
      <trkpt lat="46.14458" lon="3.44694">
        <ele>288.49</ele>
        <time>2014-10-18T13:49:26Z</time>
      </trkpt>
      <trkpt lat="46.14477" lon="3.44687">
        <ele>291.02</ele>
        <time>2014-10-18T13:49:35Z</time>
      </trkpt>
      <trkpt lat="46.14496" lon="3.44681">
        <ele>293.29</ele>
        <time>2014-10-18T13:49:44Z</time>
      </trkpt>
      <trkpt lat="46.14512" lon="3.44666">
        <ele>295.04</ele>
        <time>2014-10-18T13:49:52Z</time>
      </trkpt>
      <trkpt lat="46.14528" lon="3.44651">
        <ele>297.04</ele>
        <time>2014-10-18T13:50:02Z</time>
      </trkpt>
      <trkpt lat="46.14542" lon="3.44632">
        <ele>298.54</ele>
        <time>2014-10-18T13:50:13Z</time>
      </trkpt>
      <trkpt lat="46.14555" lon="3.4461">
        <ele>300.05</ele>
        <time>2014-10-18T13:50:20Z</time>
      </trkpt>
      <trkpt lat="46.1457" lon="3.44591">
        <ele>303.6</ele>
        <time>2014-10-18T13:50:25Z</time>
      </trkpt>
      <trkpt lat="46.14584" lon="3.44572">
        <ele>305.87</ele>
        <time>2014-10-18T13:50:29Z</time>
      </trkpt>
      <trkpt lat="46.146" lon="3.44552">
        <ele>306.51</ele>
        <time>2014-10-18T13:50:33Z</time>
      </trkpt>
      <trkpt lat="46.14616" lon="3.44531">
        <ele>307.3</ele>
        <time>2014-10-18T13:50:37Z</time>
      </trkpt>
      <trkpt lat="46.14631" lon="3.44507">
        <ele>307.54</ele>
        <time>2014-10-18T13:50:41Z</time>
      </trkpt>
      <trkpt lat="46.14645" lon="3.44486">
        <ele>307.55</ele>
        <time>2014-10-18T13:50:45Z</time>
      </trkpt>
      <trkpt lat="46.14658" lon="3.44466">
        <ele>307.55</ele>
        <time>2014-10-18T13:50:49Z</time>
      </trkpt>
      <trkpt lat="46.14671" lon="3.44447">
        <ele>307.55</ele>
        <time>2014-10-18T13:50:53Z</time>
      </trkpt>
      <trkpt lat="46.14684" lon="3.44428">
        <ele>306.58</ele>
        <time>2014-10-18T13:50:58Z</time>
      </trkpt>
      <trkpt lat="46.14697" lon="3.44402">
        <ele>306.55</ele>
        <time>2014-10-18T13:51:04Z</time>
      </trkpt>
      <trkpt lat="46.14706" lon="3.44376">
        <ele>305.12</ele>
        <time>2014-10-18T13:51:09Z</time>
      </trkpt>
      <trkpt lat="46.14715" lon="3.44348">
        <ele>304.57</ele>
        <time>2014-10-18T13:51:14Z</time>
      </trkpt>
      <trkpt lat="46.14728" lon="3.44325">
        <ele>304.55</ele>
        <time>2014-10-18T13:51:20Z</time>
      </trkpt>
      <trkpt lat="46.14742" lon="3.44308">
        <ele>304.55</ele>
        <time>2014-10-18T13:51:25Z</time>
      </trkpt>
      <trkpt lat="46.14757" lon="3.4429">
        <ele>304.55</ele>
        <time>2014-10-18T13:51:30Z</time>
      </trkpt>
      <trkpt lat="46.14774" lon="3.44275">
        <ele>305.52</ele>
        <time>2014-10-18T13:51:35Z</time>
      </trkpt>
      <trkpt lat="46.14791" lon="3.4426">
        <ele>305.55</ele>
        <time>2014-10-18T13:51:41Z</time>
      </trkpt>
      <trkpt lat="46.14808" lon="3.44245">
        <ele>305.55</ele>
        <time>2014-10-18T13:51:47Z</time>
      </trkpt>
      <trkpt lat="46.14824" lon="3.4423">
        <ele>306.54</ele>
        <time>2014-10-18T13:51:53Z</time>
      </trkpt>
      <trkpt lat="46.14839" lon="3.44213">
        <ele>306.55</ele>
        <time>2014-10-18T13:51:59Z</time>
      </trkpt>
      <trkpt lat="46.14854" lon="3.44198">
        <ele>307.3</ele>
        <time>2014-10-18T13:52:04Z</time>
      </trkpt>
      <trkpt lat="46.1487" lon="3.44181">
        <ele>307.55</ele>
        <time>2014-10-18T13:52:10Z</time>
      </trkpt>
      <trkpt lat="46.14887" lon="3.44168">
        <ele>308.3</ele>
        <time>2014-10-18T13:52:15Z</time>
      </trkpt>
      <trkpt lat="46.14906" lon="3.44157">
        <ele>308.55</ele>
        <time>2014-10-18T13:52:21Z</time>
      </trkpt>
      <trkpt lat="46.14926" lon="3.44147">
        <ele>308.55</ele>
        <time>2014-10-18T13:52:27Z</time>
      </trkpt>
      <trkpt lat="46.14946" lon="3.44138">
        <ele>309.52</ele>
        <time>2014-10-18T13:52:33Z</time>
      </trkpt>
      <trkpt lat="46.14966" lon="3.4413">
        <ele>309.55</ele>
        <time>2014-10-18T13:52:39Z</time>
      </trkpt>
      <trkpt lat="46.14986" lon="3.44125">
        <ele>309.55</ele>
        <time>2014-10-18T13:52:45Z</time>
      </trkpt>
      <trkpt lat="46.15008" lon="3.44119">
        <ele>309.55</ele>
        <time>2014-10-18T13:52:51Z</time>
      </trkpt>
      <trkpt lat="46.15029" lon="3.4411">
        <ele>309.55</ele>
        <time>2014-10-18T13:52:57Z</time>
      </trkpt>
      <trkpt lat="46.1505" lon="3.44097">
        <ele>309.55</ele>
        <time>2014-10-18T13:53:03Z</time>
      </trkpt>
      <trkpt lat="46.15067" lon="3.44089">
        <ele>310.49</ele>
        <time>2014-10-18T13:53:07Z</time>
      </trkpt>
      <trkpt lat="46.15086" lon="3.4408">
        <ele>311.52</ele>
        <time>2014-10-18T13:53:12Z</time>
      </trkpt>
      <trkpt lat="46.15105" lon="3.44072">
        <ele>312.52</ele>
        <time>2014-10-18T13:53:17Z</time>
      </trkpt>
      <trkpt lat="46.15124" lon="3.44057">
        <ele>313.43</ele>
        <time>2014-10-18T13:53:22Z</time>
      </trkpt>
      <trkpt lat="46.15139" lon="3.44042">
        <ele>313.55</ele>
        <time>2014-10-18T13:53:26Z</time>
      </trkpt>
      <trkpt lat="46.15155" lon="3.44024">
        <ele>313.55</ele>
        <time>2014-10-18T13:53:30Z</time>
      </trkpt>
      <trkpt lat="46.15174" lon="3.44018">
        <ele>313.55</ele>
        <time>2014-10-18T13:53:35Z</time>
      </trkpt>
      <trkpt lat="46.15193" lon="3.44022">
        <ele>313.55</ele>
        <time>2014-10-18T13:53:40Z</time>
      </trkpt>
      <trkpt lat="46.15212" lon="3.44029">
        <ele>313.55</ele>
        <time>2014-10-18T13:53:45Z</time>
      </trkpt>
      <trkpt lat="46.1523" lon="3.44018">
        <ele>313.55</ele>
        <time>2014-10-18T13:53:50Z</time>
      </trkpt>
      <trkpt lat="46.15241" lon="3.43997">
        <ele>313.55</ele>
        <time>2014-10-18T13:53:57Z</time>
      </trkpt>
      <trkpt lat="46.1525" lon="3.43973">
        <ele>313.55</ele>
        <time>2014-10-18T13:54:05Z</time>
      </trkpt>
      <trkpt lat="46.15276" lon="3.43962">
        <ele>314.55</ele>
        <time>2014-10-18T13:54:23Z</time>
      </trkpt>
      <trkpt lat="46.15302" lon="3.43962">
        <ele>314.55</ele>
        <time>2014-10-18T13:54:39Z</time>
      </trkpt>
      <trkpt lat="46.15329" lon="3.43956">
        <ele>315.52</ele>
        <time>2014-10-18T13:54:52Z</time>
      </trkpt>
      <trkpt lat="46.15354" lon="3.43947">
        <ele>317.05</ele>
        <time>2014-10-18T13:55:03Z</time>
      </trkpt>
      <trkpt lat="46.15379" lon="3.43939">
        <ele>319.04</ele>
        <time>2014-10-18T13:55:16Z</time>
      </trkpt>
      <trkpt lat="46.15398" lon="3.43939">
        <ele>320.05</ele>
        <time>2014-10-18T13:55:25Z</time>
      </trkpt>
      <trkpt lat="46.15424" lon="3.43928">
        <ele>322.05</ele>
        <time>2014-10-18T13:55:38Z</time>
      </trkpt>
      <trkpt lat="46.15442" lon="3.43917">
        <ele>324.04</ele>
        <time>2014-10-18T13:55:47Z</time>
      </trkpt>
      <trkpt lat="46.15462" lon="3.43906">
        <ele>325.05</ele>
        <time>2014-10-18T13:55:57Z</time>
      </trkpt>
      <trkpt lat="46.15482" lon="3.43898">
        <ele>326.54</ele>
        <time>2014-10-18T13:56:07Z</time>
      </trkpt>
      <trkpt lat="46.155" lon="3.43891">
        <ele>328.02</ele>
        <time>2014-10-18T13:56:15Z</time>
      </trkpt>
      <trkpt lat="46.1552" lon="3.43889">
        <ele>329.52</ele>
        <time>2014-10-18T13:56:23Z</time>
      </trkpt>
      <trkpt lat="46.15539" lon="3.43885">
        <ele>331.42</ele>
        <time>2014-10-18T13:56:31Z</time>
      </trkpt>
      <trkpt lat="46.15557" lon="3.43881">
        <ele>332.52</ele>
        <time>2014-10-18T13:56:38Z</time>
      </trkpt>
      <trkpt lat="46.15575" lon="3.43876">
        <ele>334.42</ele>
        <time>2014-10-18T13:56:45Z</time>
      </trkpt>
      <trkpt lat="46.15594" lon="3.43866">
        <ele>336.42</ele>
        <time>2014-10-18T13:56:54Z</time>
      </trkpt>
      <trkpt lat="46.15611" lon="3.43855">
        <ele>338.29</ele>
        <time>2014-10-18T13:57:02Z</time>
      </trkpt>
      <trkpt lat="46.15629" lon="3.43844">
        <ele>341.02</ele>
        <time>2014-10-18T13:57:12Z</time>
      </trkpt>
      <trkpt lat="46.15646" lon="3.43829">
        <ele>343.29</ele>
        <time>2014-10-18T13:57:22Z</time>
      </trkpt>
      <trkpt lat="46.15664" lon="3.43823">
        <ele>345.29</ele>
        <time>2014-10-18T13:57:31Z</time>
      </trkpt>
      <trkpt lat="46.15683" lon="3.43816">
        <ele>347.29</ele>
        <time>2014-10-18T13:57:40Z</time>
      </trkpt>
      <trkpt lat="46.15701" lon="3.43814">
        <ele>348.54</ele>
        <time>2014-10-18T13:57:49Z</time>
      </trkpt>
      <trkpt lat="46.1572" lon="3.43816">
        <ele>350.43</ele>
        <time>2014-10-18T13:57:58Z</time>
      </trkpt>
      <trkpt lat="46.15741" lon="3.43823">
        <ele>352.02</ele>
        <time>2014-10-18T13:58:05Z</time>
      </trkpt>
      <trkpt lat="46.15759" lon="3.43825">
        <ele>353.29</ele>
        <time>2014-10-18T13:58:11Z</time>
      </trkpt>
      <trkpt lat="46.15778" lon="3.43818">
        <ele>355.04</ele>
        <time>2014-10-18T13:58:19Z</time>
      </trkpt>
      <trkpt lat="46.15795" lon="3.43808">
        <ele>356.49</ele>
        <time>2014-10-18T13:58:27Z</time>
      </trkpt>
      <trkpt lat="46.15813" lon="3.43801">
        <ele>357.54</ele>
        <time>2014-10-18T13:58:34Z</time>
      </trkpt>
      <trkpt lat="46.15834" lon="3.4381">
        <ele>359.42</ele>
        <time>2014-10-18T13:58:41Z</time>
      </trkpt>
      <trkpt lat="46.15851" lon="3.43821">
        <ele>360.49</ele>
        <time>2014-10-18T13:58:47Z</time>
      </trkpt>
      <trkpt lat="46.15868" lon="3.43829">
        <ele>362.02</ele>
        <time>2014-10-18T13:58:53Z</time>
      </trkpt>
      <trkpt lat="46.15889" lon="3.43836">
        <ele>363.42</ele>
        <time>2014-10-18T13:59:00Z</time>
      </trkpt>
      <trkpt lat="46.15907" lon="3.43836">
        <ele>365.29</ele>
        <time>2014-10-18T13:59:07Z</time>
      </trkpt>
      <trkpt lat="46.15921" lon="3.43816">
        <ele>366.42</ele>
        <time>2014-10-18T13:59:13Z</time>
      </trkpt>
      <trkpt lat="46.15937" lon="3.43801">
        <ele>367.52</ele>
        <time>2014-10-18T13:59:19Z</time>
      </trkpt>
      <trkpt lat="46.15955" lon="3.43791">
        <ele>369.29</ele>
        <time>2014-10-18T13:59:26Z</time>
      </trkpt>
      <trkpt lat="46.15972" lon="3.43782">
        <ele>370.42</ele>
        <time>2014-10-18T13:59:32Z</time>
      </trkpt>
      <trkpt lat="46.15991" lon="3.43776">
        <ele>372.02</ele>
        <time>2014-10-18T13:59:39Z</time>
      </trkpt>
      <trkpt lat="46.16007" lon="3.43763">
        <ele>373.42</ele>
        <time>2014-10-18T13:59:45Z</time>
      </trkpt>
      <trkpt lat="46.16022" lon="3.43748">
        <ele>375.02</ele>
        <time>2014-10-18T13:59:51Z</time>
      </trkpt>
      <trkpt lat="46.16037" lon="3.43728">
        <ele>376.49</ele>
        <time>2014-10-18T13:59:58Z</time>
      </trkpt>
      <trkpt lat="46.16048" lon="3.43705">
        <ele>378.42</ele>
        <time>2014-10-18T14:00:05Z</time>
      </trkpt>
      <trkpt lat="46.16061" lon="3.43677">
        <ele>385.36</ele>
        <time>2014-10-18T14:00:10Z</time>
      </trkpt>
      <trkpt lat="46.16083" lon="3.43673">
        <ele>388.17</ele>
        <time>2014-10-18T14:00:14Z</time>
      </trkpt>
      <trkpt lat="46.16101" lon="3.43679">
        <ele>389.38</ele>
        <time>2014-10-18T14:00:17Z</time>
      </trkpt>
      <trkpt lat="46.16121" lon="3.43685">
        <ele>389.03</ele>
        <time>2014-10-18T14:00:20Z</time>
      </trkpt>
      <trkpt lat="46.16146" lon="3.43683">
        <ele>388.61</ele>
        <time>2014-10-18T14:00:23Z</time>
      </trkpt>
      <trkpt lat="46.16164" lon="3.43685">
        <ele>388.57</ele>
        <time>2014-10-18T14:00:25Z</time>
      </trkpt>
      <trkpt lat="46.16184" lon="3.43685">
        <ele>388.56</ele>
        <time>2014-10-18T14:00:27Z</time>
      </trkpt>
      <trkpt lat="46.16204" lon="3.43688">
        <ele>387.8</ele>
        <time>2014-10-18T14:00:29Z</time>
      </trkpt>
      <trkpt lat="46.16225" lon="3.43685">
        <ele>386.87</ele>
        <time>2014-10-18T14:00:31Z</time>
      </trkpt>
      <trkpt lat="46.16245" lon="3.43685">
        <ele>385.38</ele>
        <time>2014-10-18T14:00:33Z</time>
      </trkpt>
      <trkpt lat="46.16264" lon="3.43681">
        <ele>384.26</ele>
        <time>2014-10-18T14:00:35Z</time>
      </trkpt>
      <trkpt lat="46.16282" lon="3.4367">
        <ele>383.73</ele>
        <time>2014-10-18T14:00:37Z</time>
      </trkpt>
      <trkpt lat="46.16301" lon="3.43653">
        <ele>382.85</ele>
        <time>2014-10-18T14:00:39Z</time>
      </trkpt>
      <trkpt lat="46.16317" lon="3.43638">
        <ele>381.88</ele>
        <time>2014-10-18T14:00:41Z</time>
      </trkpt>
      <trkpt lat="46.16333" lon="3.43621">
        <ele>380.88</ele>
        <time>2014-10-18T14:00:43Z</time>
      </trkpt>
      <trkpt lat="46.16347" lon="3.43602">
        <ele>380.64</ele>
        <time>2014-10-18T14:00:45Z</time>
      </trkpt>
      <trkpt lat="46.16361" lon="3.43585">
        <ele>380.57</ele>
        <time>2014-10-18T14:00:47Z</time>
      </trkpt>
      <trkpt lat="46.16384" lon="3.43565">
        <ele>379.18</ele>
        <time>2014-10-18T14:00:50Z</time>
      </trkpt>
      <trkpt lat="46.16409" lon="3.43552">
        <ele>376.51</ele>
        <time>2014-10-18T14:00:53Z</time>
      </trkpt>
      <trkpt lat="46.16433" lon="3.4355">
        <ele>372.8</ele>
        <time>2014-10-18T14:00:56Z</time>
      </trkpt>
      <trkpt lat="46.16454" lon="3.43552">
        <ele>369.58</ele>
        <time>2014-10-18T14:00:59Z</time>
      </trkpt>
      <trkpt lat="46.16474" lon="3.43561">
        <ele>365.18</ele>
        <time>2014-10-18T14:01:02Z</time>
      </trkpt>
      <trkpt lat="46.16493" lon="3.43567">
        <ele>361.13</ele>
        <time>2014-10-18T14:01:05Z</time>
      </trkpt>
      <trkpt lat="46.16516" lon="3.43576">
        <ele>355.71</ele>
        <time>2014-10-18T14:01:09Z</time>
      </trkpt>
      <trkpt lat="46.16537" lon="3.43582">
        <ele>352.06</ele>
        <time>2014-10-18T14:01:13Z</time>
      </trkpt>
      <trkpt lat="46.16555" lon="3.43587">
        <ele>349.9</ele>
        <time>2014-10-18T14:01:17Z</time>
      </trkpt>
      <trkpt lat="46.16573" lon="3.43589">
        <ele>349.07</ele>
        <time>2014-10-18T14:01:21Z</time>
      </trkpt>
      <trkpt lat="46.16591" lon="3.43587">
        <ele>348.57</ele>
        <time>2014-10-18T14:01:26Z</time>
      </trkpt>
      <trkpt lat="46.16613" lon="3.43585">
        <ele>348.55</ele>
        <time>2014-10-18T14:01:31Z</time>
      </trkpt>
      <trkpt lat="46.16631" lon="3.4358">
        <ele>348.55</ele>
        <time>2014-10-18T14:01:34Z</time>
      </trkpt>
      <trkpt lat="46.1665" lon="3.43576">
        <ele>348.55</ele>
        <time>2014-10-18T14:01:37Z</time>
      </trkpt>
      <trkpt lat="46.16672" lon="3.43574">
        <ele>347.8</ele>
        <time>2014-10-18T14:01:41Z</time>
      </trkpt>
      <trkpt lat="46.1669" lon="3.43565">
        <ele>347.58</ele>
        <time>2014-10-18T14:01:44Z</time>
      </trkpt>
      <trkpt lat="46.16709" lon="3.4357">
        <ele>347.06</ele>
        <time>2014-10-18T14:01:47Z</time>
      </trkpt>
      <trkpt lat="46.16727" lon="3.4358">
        <ele>345.37</ele>
        <time>2014-10-18T14:01:50Z</time>
      </trkpt>
      <trkpt lat="46.16745" lon="3.43593">
        <ele>343.4</ele>
        <time>2014-10-18T14:01:53Z</time>
      </trkpt>
      <trkpt lat="46.16765" lon="3.43606">
        <ele>340.92</ele>
        <time>2014-10-18T14:01:57Z</time>
      </trkpt>
      <trkpt lat="46.16784" lon="3.43617">
        <ele>339.64</ele>
        <time>2014-10-18T14:02:01Z</time>
      </trkpt>
      <trkpt lat="46.16805" lon="3.43627">
        <ele>338.68</ele>
        <time>2014-10-18T14:02:06Z</time>
      </trkpt>
      <trkpt lat="46.16824" lon="3.43627">
        <ele>338.56</ele>
        <time>2014-10-18T14:02:11Z</time>
      </trkpt>
      <trkpt lat="46.16839" lon="3.43612">
        <ele>338.55</ele>
        <time>2014-10-18T14:02:15Z</time>
      </trkpt>
      <trkpt lat="46.16852" lon="3.43589">
        <ele>337.62</ele>
        <time>2014-10-18T14:02:19Z</time>
      </trkpt>
      <trkpt lat="46.16862" lon="3.43565">
        <ele>336.81</ele>
        <time>2014-10-18T14:02:22Z</time>
      </trkpt>
      <trkpt lat="46.1688" lon="3.43548">
        <ele>336.59</ele>
        <time>2014-10-18T14:02:25Z</time>
      </trkpt>
      <trkpt lat="46.16904" lon="3.43544">
        <ele>336.56</ele>
        <time>2014-10-18T14:02:28Z</time>
      </trkpt>
      <trkpt lat="46.16929" lon="3.43542">
        <ele>335.8</ele>
        <time>2014-10-18T14:02:31Z</time>
      </trkpt>
      <trkpt lat="46.16955" lon="3.43539">
        <ele>335.58</ele>
        <time>2014-10-18T14:02:34Z</time>
      </trkpt>
      <trkpt lat="46.16974" lon="3.43544">
        <ele>334.31</ele>
        <time>2014-10-18T14:02:36Z</time>
      </trkpt>
      <trkpt lat="46.16995" lon="3.43548">
        <ele>332.49</ele>
        <time>2014-10-18T14:02:38Z</time>
      </trkpt>
      <trkpt lat="46.17013" lon="3.43563">
        <ele>330.54</ele>
        <time>2014-10-18T14:02:40Z</time>
      </trkpt>
      <trkpt lat="46.1703" lon="3.4358">
        <ele>329.05</ele>
        <time>2014-10-18T14:02:42Z</time>
      </trkpt>
      <trkpt lat="46.17046" lon="3.43602">
        <ele>327.93</ele>
        <time>2014-10-18T14:02:44Z</time>
      </trkpt>
      <trkpt lat="46.17063" lon="3.43619">
        <ele>326.9</ele>
        <time>2014-10-18T14:02:46Z</time>
      </trkpt>
      <trkpt lat="46.17084" lon="3.43632">
        <ele>325.89</ele>
        <time>2014-10-18T14:02:48Z</time>
      </trkpt>
      <trkpt lat="46.17104" lon="3.43636">
        <ele>325.14</ele>
        <time>2014-10-18T14:02:50Z</time>
      </trkpt>
      <trkpt lat="46.17123" lon="3.43632">
        <ele>325.45</ele>
        <time>2014-10-18T14:02:52Z</time>
      </trkpt>
      <trkpt lat="46.17147" lon="3.43623">
        <ele>324.79</ele>
        <time>2014-10-18T14:02:55Z</time>
      </trkpt>
      <trkpt lat="46.17165" lon="3.43617">
        <ele>323.83</ele>
        <time>2014-10-18T14:02:58Z</time>
      </trkpt>
      <trkpt lat="46.17186" lon="3.4361">
        <ele>321.88</ele>
        <time>2014-10-18T14:03:02Z</time>
      </trkpt>
      <trkpt lat="46.17207" lon="3.436">
        <ele>320.7</ele>
        <time>2014-10-18T14:03:06Z</time>
      </trkpt>
      <trkpt lat="46.17228" lon="3.43585">
        <ele>320.56</ele>
        <time>2014-10-18T14:03:10Z</time>
      </trkpt>
      <trkpt lat="46.17243" lon="3.43563">
        <ele>319.68</ele>
        <time>2014-10-18T14:03:14Z</time>
      </trkpt>
      <trkpt lat="46.17252" lon="3.43539">
        <ele>319.31</ele>
        <time>2014-10-18T14:03:18Z</time>
      </trkpt>
      <trkpt lat="46.17262" lon="3.43514">
        <ele>319.55</ele>
        <time>2014-10-18T14:03:24Z</time>
      </trkpt>
      <trkpt lat="46.17267" lon="3.43488">
        <ele>319.55</ele>
        <time>2014-10-18T14:03:31Z</time>
      </trkpt>
      <trkpt lat="46.17253" lon="3.43467">
        <ele>319.55</ele>
        <time>2014-10-18T14:03:39Z</time>
      </trkpt>
      <trkpt lat="46.17238" lon="3.43451">
        <ele>319.55</ele>
        <time>2014-10-18T14:03:48Z</time>
      </trkpt>
      <trkpt lat="46.1722" lon="3.43426">
        <ele>318.55</ele>
        <time>2014-10-18T14:03:59Z</time>
      </trkpt>
      <trkpt lat="46.17215" lon="3.434">
        <ele>318.55</ele>
        <time>2014-10-18T14:04:08Z</time>
      </trkpt>
      <trkpt lat="46.17206" lon="3.43374">
        <ele>319.54</ele>
        <time>2014-10-18T14:04:15Z</time>
      </trkpt>
      <trkpt lat="46.17198" lon="3.43351">
        <ele>320.05</ele>
        <time>2014-10-18T14:04:22Z</time>
      </trkpt>
      <trkpt lat="46.17191" lon="3.43325">
        <ele>321.05</ele>
        <time>2014-10-18T14:04:29Z</time>
      </trkpt>
      <trkpt lat="46.172" lon="3.43297">
        <ele>321.55</ele>
        <time>2014-10-18T14:04:36Z</time>
      </trkpt>
      <trkpt lat="46.17207" lon="3.43273">
        <ele>322.3</ele>
        <time>2014-10-18T14:04:42Z</time>
      </trkpt>
      <trkpt lat="46.17198" lon="3.4325">
        <ele>323.8</ele>
        <time>2014-10-18T14:04:50Z</time>
      </trkpt>
      <trkpt lat="46.17182" lon="3.43233">
        <ele>324.51</ele>
        <time>2014-10-18T14:04:54Z</time>
      </trkpt>
      <trkpt lat="46.17165" lon="3.43218">
        <ele>324.55</ele>
        <time>2014-10-18T14:04:58Z</time>
      </trkpt>
      <trkpt lat="46.1715" lon="3.43203">
        <ele>324.05</ele>
        <time>2014-10-18T14:05:01Z</time>
      </trkpt>
      <trkpt lat="46.17134" lon="3.4319">
        <ele>323.62</ele>
        <time>2014-10-18T14:05:04Z</time>
      </trkpt>
      <trkpt lat="46.17117" lon="3.43177">
        <ele>323.56</ele>
        <time>2014-10-18T14:05:07Z</time>
      </trkpt>
      <trkpt lat="46.17098" lon="3.43162">
        <ele>324.43</ele>
        <time>2014-10-18T14:05:10Z</time>
      </trkpt>
      <trkpt lat="46.17081" lon="3.43145">
        <ele>324.54</ele>
        <time>2014-10-18T14:05:13Z</time>
      </trkpt>
      <trkpt lat="46.17067" lon="3.43127">
        <ele>323.68</ele>
        <time>2014-10-18T14:05:16Z</time>
      </trkpt>
      <trkpt lat="46.17052" lon="3.4311">
        <ele>323.55</ele>
        <time>2014-10-18T14:05:22Z</time>
      </trkpt>
    </trkseg>
  </trk>
</gpx>